Wetterdaten: Freitag, 11.01.2019
Datum Zeit Temp. A. Pool Temp. Temp. 5cm Feuchte A. Luftdruck Regen Wind Richtung Richtung Sonnenschein ET UV Solar Taupunkt Windchill Windben Empfang
11.01.2019 00:00 -2,1 C 3,3 C -3,3 C 86 % 1022,8 hPa 0,0 l/m 3,7 km/h (1 Bft) W 274 0 min 0,000 mm 0,0 UV-I 0 W/m -4,1 C -2,1 C 6,4 km/h (2 Bft) 95,74 %
11.01.2019 00:02 -2,1 C 3,3 C -3,3 C 86 % 1022,8 hPa 0,0 l/m 3,2 km/h (1 Bft) W 274 0 min 0,000 mm 0,0 UV-I 0 W/m -4,1 C -2,1 C 3,2 km/h (1 Bft) 12,50 %
11.01.2019 00:04 -2,1 C 3,3 C -3,3 C 86 % 1022,8 hPa 0,0 l/m 2,5 km/h (1 Bft) W 274 0 min 0,000 mm 0,0 UV-I 0 W/m -4,1 C -2,1 C 3,2 km/h (1 Bft) 78,05 %
11.01.2019 00:06 -2,1 C 3,3 C -3,3 C 86 % 1022,8 hPa 0,0 l/m 2,8 km/h (1 Bft) W 274 0 min 0,000 mm 0,0 UV-I 0 W/m -4,1 C -2,1 C 4,8 km/h (1 Bft) 95,74 %
11.01.2019 00:08 -2,1 C 3,3 C -3,3 C 86 % 1022,9 hPa 0,0 l/m 3,4 km/h (1 Bft) W 274 0 min 0,000 mm 0,0 UV-I 0 W/m -4,1 C -2,1 C 4,8 km/h (1 Bft) 95,74 %
11.01.2019 00:10 -2,1 C 3,3 C -3,3 C 86 % 1022,9 hPa 0,0 l/m 2,0 km/h (1 Bft) W 274 0 min 0,000 mm 0,0 UV-I 0 W/m -4,1 C -2,1 C 3,2 km/h (1 Bft) 95,74 %
11.01.2019 00:12 -2,1 C 3,3 C -3,3 C 87 % 1022,9 hPa 0,0 l/m 2,1 km/h (1 Bft) W 274 0 min 0,000 mm 0,0 UV-I 0 W/m -4,0 C -2,1 C 3,2 km/h (1 Bft) 91,49 %
11.01.2019 00:14 -2,1 C 3,3 C -3,3 C 86 % 1022,9 hPa 0,0 l/m 2,9 km/h (1 Bft) W 274 0 min 0,000 mm 0,0 UV-I 0 W/m -4,1 C -2,1 C 4,8 km/h (1 Bft) 95,74 %
11.01.2019 00:16 -2,0 C 3,3 C -3,3 C 86 % 1022,8 hPa 0,0 l/m 3,6 km/h (1 Bft) W 273 0 min 0,000 mm 0,0 UV-I 0 W/m -4,0 C -2,0 C 4,8 km/h (1 Bft) 95,74 %
11.01.2019 00:18 -2,0 C 3,3 C -3,3 C 86 % 1023,0 hPa 0,0 l/m 4,2 km/h (1 Bft) W 272 0 min 0,000 mm 0,0 UV-I 0 W/m -4,0 C -2,0 C 4,8 km/h (1 Bft) 97,87 %
11.01.2019 00:20 -1,9 C 3,3 C -3,3 C 86 % 1023,0 hPa 0,0 l/m 3,6 km/h (1 Bft) W-SW 257 0 min 0,000 mm 0,0 UV-I 0 W/m -3,9 C -1,9 C 4,8 km/h (1 Bft) 98,00 %
11.01.2019 00:22 -2,0 C 3,3 C -3,3 C 86 % 1023,0 hPa 0,0 l/m 3,9 km/h (1 Bft) W-SW 256 0 min 0,000 mm 0,0 UV-I 0 W/m -4,0 C -2,0 C 6,4 km/h (2 Bft) 100,00 %
11.01.2019 00:24 -2,0 C 3,3 C -3,3 C 86 % 1023,0 hPa 0,0 l/m 3,0 km/h (1 Bft) W-SW 256 0 min 0,000 mm 0,0 UV-I 0 W/m -4,0 C -2,0 C 4,8 km/h (1 Bft) 97,92 %
11.01.2019 00:26 -2,0 C 3,3 C -3,9 C 86 % 1022,9 hPa 0,0 l/m 3,3 km/h (1 Bft) SW 232 0 min 0,000 mm 0,0 UV-I 0 W/m -4,0 C -2,0 C 6,4 km/h (2 Bft) 97,87 %
11.01.2019 00:28 -2,1 C 3,3 C -3,9 C 86 % 1022,9 hPa 0,0 l/m 3,9 km/h (1 Bft) SW 234 0 min 0,000 mm 0,0 UV-I 0 W/m -4,1 C -2,1 C 4,8 km/h (1 Bft) 97,87 %
11.01.2019 00:30 -2,2 C 3,3 C -3,9 C 87 % 1022,9 hPa 0,0 l/m 3,4 km/h (1 Bft) SW 228 0 min 0,000 mm 0,0 UV-I 0 W/m -4,1 C -2,2 C 4,8 km/h (1 Bft) 100,00 %
11.01.2019 00:32 -2,3 C 3,3 C -3,9 C 87 % 1022,9 hPa 0,0 l/m 4,9 km/h (1 Bft) SW 229 0 min 0,000 mm 0,0 UV-I 0 W/m -4,2 C -2,3 C 6,4 km/h (2 Bft) 97,87 %
11.01.2019 00:34 -2,4 C 3,3 C -3,9 C 87 % 1022,9 hPa 0,0 l/m 4,3 km/h (1 Bft) SW 221 0 min 0,000 mm 0,0 UV-I 0 W/m -4,3 C -2,4 C 6,4 km/h (2 Bft) 91,49 %
11.01.2019 00:36 -2,4 C 3,3 C -3,9 C 87 % 1022,9 hPa 0,0 l/m 4,7 km/h (1 Bft) S-SW 204 0 min 0,000 mm 0,0 UV-I 0 W/m -4,3 C -2,4 C 6,4 km/h (2 Bft) 97,87 %
11.01.2019 00:38 -2,4 C 3,3 C -3,3 C 87 % 1022,9 hPa 0,0 l/m 4,3 km/h (1 Bft) SW 217 0 min 0,000 mm 0,0 UV-I 0 W/m -4,3 C -2,4 C 6,4 km/h (2 Bft) 97,87 %
11.01.2019 00:40 -2,4 C 3,3 C -3,3 C 87 % 1022,9 hPa 0,0 l/m 3,8 km/h (1 Bft) SW 217 0 min 0,000 mm 0,0 UV-I 0 W/m -4,3 C -2,4 C 4,8 km/h (1 Bft) 93,62 %
11.01.2019 00:42 -2,3 C 3,3 C -3,3 C 87 % 1022,9 hPa 0,0 l/m 4,7 km/h (1 Bft) SW 220 0 min 0,000 mm 0,0 UV-I 0 W/m -4,2 C -2,3 C 6,4 km/h (2 Bft) 97,14 %
11.01.2019 00:44 -2,3 C 3,3 C -3,3 C 86 % 1022,9 hPa 0,0 l/m 3,8 km/h (1 Bft) SW 220 0 min 0,000 mm 0,0 UV-I 0 W/m -4,3 C -2,3 C 4,8 km/h (1 Bft) 97,87 %
11.01.2019 00:46 -2,3 C 3,3 C -3,3 C 86 % 1022,9 hPa 0,0 l/m 3,2 km/h (1 Bft) SW 221 0 min 0,000 mm 0,0 UV-I 0 W/m -4,3 C -2,3 C 4,8 km/h (1 Bft) 95,74 %
11.01.2019 00:48 -2,3 C 3,3 C -3,3 C 86 % 1022,9 hPa 0,0 l/m 4,4 km/h (1 Bft) SW 223 0 min 0,000 mm 0,0 UV-I 0 W/m -4,3 C -2,3 C 6,4 km/h (2 Bft) 100,00 %
11.01.2019 00:50 -2,3 C 3,3 C -3,3 C 86 % 1022,9 hPa 0,0 l/m 3,5 km/h (1 Bft) SW 223 0 min 0,000 mm 0,0 UV-I 0 W/m -4,3 C -2,3 C 4,8 km/h (1 Bft) 95,74 %
11.01.2019 00:52 -2,4 C 3,3 C -3,3 C 87 % 1022,9 hPa 0,0 l/m 5,3 km/h (1 Bft) W-SW 240 0 min 0,000 mm 0,0 UV-I 0 W/m -4,3 C -2,4 C 9,7 km/h (2 Bft) 97,87 %
11.01.2019 00:54 -2,5 C 3,3 C -3,3 C 87 % 1023,0 hPa 0,0 l/m 4,2 km/h (1 Bft) SW 223 0 min 0,000 mm 0,0 UV-I 0 W/m -4,4 C -2,5 C 6,4 km/h (2 Bft) 96,00 %
11.01.2019 00:56 -2,5 C 3,3 C -3,3 C 87 % 1023,0 hPa 0,0 l/m 4,6 km/h (1 Bft) SW 225 0 min 0,000 mm 0,0 UV-I 0 W/m -4,4 C -2,5 C 6,4 km/h (2 Bft) 97,87 %
11.01.2019 00:58 -2,6 C 3,3 C -3,3 C 87 % 1023,0 hPa 0,0 l/m 4,4 km/h (1 Bft) SW 217 0 min 0,000 mm 0,0 UV-I 0 W/m -4,5 C -2,6 C 8,0 km/h (2 Bft) 97,87 %
11.01.2019 01:00 -2,5 C 3,3 C -3,3 C 87 % 1023,0 hPa 0,0 l/m 4,9 km/h (1 Bft) W-SW 240 0 min 0,000 mm 0,0 UV-I 0 W/m -4,4 C -2,5 C 8,0 km/h (2 Bft) 97,92 %
11.01.2019 01:02 -2,5 C 3,3 C -3,3 C 87 % 1023,0 hPa 0,0 l/m 6,1 km/h (2 Bft) W-SW 242 0 min 0,000 mm 0,0 UV-I 0 W/m -4,4 C -2,5 C 8,0 km/h (2 Bft) 97,87 %
11.01.2019 01:04 -2,5 C 3,3 C -3,3 C 87 % 1023,0 hPa 0,0 l/m 4,7 km/h (1 Bft) W-SW 244 0 min 0,000 mm 0,0 UV-I 0 W/m -4,4 C -2,5 C 6,4 km/h (2 Bft) 95,74 %
11.01.2019 01:06 -2,5 C 3,3 C -3,3 C 87 % 1023,0 hPa 0,0 l/m 5,6 km/h (1 Bft) W 261 0 min 0,000 mm 0,0 UV-I 0 W/m -4,4 C -2,5 C 9,7 km/h (2 Bft) 97,87 %
11.01.2019 01:08 -2,4 C 3,3 C -3,3 C 87 % 1022,9 hPa 0,0 l/m 5,5 km/h (1 Bft) W-SW 241 0 min 0,000 mm 0,0 UV-I 0 W/m -4,3 C -2,4 C 8,0 km/h (2 Bft) 93,62 %
11.01.2019 01:10 -2,4 C 3,3 C -3,3 C 87 % 1022,9 hPa 0,0 l/m 4,5 km/h (1 Bft) W-SW 243 0 min 0,000 mm 0,0 UV-I 0 W/m -4,3 C -2,4 C 6,4 km/h (2 Bft) 95,74 %
11.01.2019 01:12 -2,3 C 3,3 C -3,3 C 87 % 1023,0 hPa 0,0 l/m 4,8 km/h (1 Bft) SW 226 0 min 0,000 mm 0,0 UV-I 0 W/m -4,2 C -2,3 C 8,0 km/h (2 Bft) 97,87 %
11.01.2019 01:14 -2,3 C 3,3 C -3,3 C 86 % 1023,0 hPa 0,0 l/m 5,8 km/h (2 Bft) SW 232 0 min 0,000 mm 0,0 UV-I 0 W/m -4,3 C -2,3 C 9,7 km/h (2 Bft) 97,87 %
11.01.2019 01:16 -2,3 C 3,3 C -3,3 C 86 % 1023,0 hPa 0,0 l/m 6,0 km/h (2 Bft) SW 225 0 min 0,000 mm 0,0 UV-I 0 W/m -4,3 C -2,3 C 9,7 km/h (2 Bft) 93,62 %
11.01.2019 01:18 -2,3 C 3,3 C -3,3 C 86 % 1023,0 hPa 0,0 l/m 7,1 km/h (2 Bft) SW 233 0 min 0,000 mm 0,0 UV-I 0 W/m -4,3 C -3,1 C 12,9 km/h (3 Bft) 95,74 %
11.01.2019 01:20 -2,3 C 3,3 C -3,3 C 86 % 1022,9 hPa 0,0 l/m 7,7 km/h (2 Bft) SW 236 0 min 0,000 mm 0,0 UV-I 0 W/m -4,3 C -3,7 C 11,3 km/h (2 Bft) 95,74 %
11.01.2019 01:22 -2,3 C 3,3 C -3,3 C 86 % 1023,0 hPa 0,0 l/m 7,7 km/h (2 Bft) W-SW 246 0 min 0,000 mm 0,0 UV-I 0 W/m -4,3 C -3,7 C 9,7 km/h (2 Bft) 98,00 %
11.01.2019 01:24 -2,3 C 3,3 C -3,3 C 86 % 1022,9 hPa 0,0 l/m 8,0 km/h (2 Bft) W-SW 246 0 min 0,000 mm 0,0 UV-I 0 W/m -4,3 C -4,1 C 12,9 km/h (3 Bft) 97,87 %
11.01.2019 01:26 -2,3 C 3,3 C -3,3 C 86 % 1022,9 hPa 0,0 l/m 6,8 km/h (2 Bft) SW 234 0 min 0,000 mm 0,0 UV-I 0 W/m -4,3 C -2,7 C 11,3 km/h (2 Bft) 100,00 %
11.01.2019 01:28 -2,3 C 3,3 C -3,3 C 86 % 1022,9 hPa 0,0 l/m 6,3 km/h (2 Bft) W-SW 251 0 min 0,000 mm 0,0 UV-I 0 W/m -4,3 C -2,3 C 11,3 km/h (2 Bft) 93,62 %
11.01.2019 01:30 -2,3 C 3,3 C -3,3 C 86 % 1022,9 hPa 0,0 l/m 6,0 km/h (2 Bft) W-SW 237 0 min 0,000 mm 0,0 UV-I 0 W/m -4,3 C -2,3 C 8,0 km/h (2 Bft) 97,37 %
11.01.2019 01:32 -2,3 C 3,3 C -3,3 C 86 % 1022,9 hPa 0,0 l/m 5,3 km/h (1 Bft) W-SW 245 0 min 0,000 mm 0,0 UV-I 0 W/m -4,3 C -2,3 C 8,0 km/h (2 Bft) 95,74 %
11.01.2019 01:34 -2,3 C 3,3 C -3,3 C 86 % 1022,9 hPa 0,0 l/m 6,4 km/h (2 Bft) W-SW 251 0 min 0,000 mm 0,0 UV-I 0 W/m -4,3 C -2,3 C 9,7 km/h (2 Bft) 95,83 %
11.01.2019 01:36 -2,3 C 3,3 C -3,3 C 87 % 1022,9 hPa 0,0 l/m 7,8 km/h (2 Bft) W-SW 258 0 min 0,000 mm 0,0 UV-I 0 W/m -4,2 C -3,8 C 12,9 km/h (3 Bft) 100,00 %
11.01.2019 01:38 -2,3 C 3,3 C -3,3 C 87 % 1022,9 hPa 0,0 l/m 7,1 km/h (2 Bft) W 270 0 min 0,000 mm 0,0 UV-I 0 W/m -4,2 C -3,1 C 11,3 km/h (2 Bft) 100,00 %
11.01.2019 01:40 -2,3 C 3,3 C -3,3 C 87 % 1022,9 hPa 0,0 l/m 8,5 km/h (2 Bft) W 259 0 min 0,000 mm 0,0 UV-I 0 W/m -4,2 C -4,6 C 12,9 km/h (3 Bft) 100,00 %
11.01.2019 01:42 -2,2 C 3,3 C -3,3 C 87 % 1022,9 hPa 0,0 l/m 7,5 km/h (2 Bft) W-SW 250 0 min 0,000 mm 0,0 UV-I 0 W/m -4,1 C -3,4 C 12,9 km/h (3 Bft) 97,87 %
11.01.2019 01:44 -2,2 C 3,3 C -3,3 C 87 % 1023,0 hPa 0,0 l/m 7,4 km/h (2 Bft) W 259 0 min 0,000 mm 0,0 UV-I 0 W/m -4,1 C -3,3 C 9,7 km/h (2 Bft) 100,00 %
11.01.2019 01:46 -2,2 C 3,3 C -3,3 C 87 % 1023,0 hPa 0,0 l/m 7,6 km/h (2 Bft) W 274 0 min 0,000 mm 0,0 UV-I 0 W/m -4,1 C -3,5 C 11,3 km/h (2 Bft) 97,87 %
11.01.2019 01:48 -2,2 C 3,3 C -3,3 C 87 % 1022,9 hPa 0,0 l/m 5,9 km/h (2 Bft) W 263 0 min 0,000 mm 0,0 UV-I 0 W/m -4,1 C -2,2 C 9,7 km/h (2 Bft) 98,00 %
11.01.2019 01:50 -2,2 C 3,3 C -3,3 C 87 % 1023,0 hPa 0,0 l/m 6,7 km/h (2 Bft) W 263 0 min 0,000 mm 0,0 UV-I 0 W/m -4,1 C -2,5 C 9,7 km/h (2 Bft) 100,00 %
11.01.2019 01:52 -2,2 C 3,3 C -3,3 C 87 % 1023,0 hPa 0,0 l/m 6,7 km/h (2 Bft) W 265 0 min 0,000 mm 0,0 UV-I 0 W/m -4,1 C -2,5 C 9,7 km/h (2 Bft) 98,00 %
11.01.2019 01:54 -2,2 C 3,3 C -3,3 C 87 % 1023,1 hPa 0,0 l/m 7,4 km/h (2 Bft) W 267 0 min 0,000 mm 0,0 UV-I 0 W/m -4,1 C -3,3 C 11,3 km/h (2 Bft) 100,00 %
11.01.2019 01:56 -2,2 C 3,3 C -3,3 C 88 % 1023,1 hPa 0,0 l/m 5,7 km/h (1 Bft) W 267 0 min 0,000 mm 0,0 UV-I 0 W/m -3,9 C -2,2 C 9,7 km/h (2 Bft) 96,00 %
11.01.2019 01:58 -2,3 C 3,3 C -3,3 C 88 % 1023,1 hPa 0,0 l/m 6,7 km/h (2 Bft) W 263 0 min 0,000 mm 0,0 UV-I 0 W/m -4,0 C -2,6 C 11,3 km/h (2 Bft) 98,00 %
11.01.2019 02:00 -2,3 C 3,3 C -3,3 C 88 % 1023,1 hPa 0,0 l/m 6,8 km/h (2 Bft) W-SW 248 0 min 0,000 mm 0,0 UV-I 0 W/m -4,0 C -2,7 C 11,3 km/h (2 Bft) 95,74 %
11.01.2019 02:02 -2,3 C 3,3 C -3,3 C 88 % 1023,1 hPa 0,0 l/m 7,3 km/h (2 Bft) W 268 0 min 0,000 mm 0,0 UV-I 0 W/m -4,0 C -3,3 C 11,3 km/h (2 Bft) 97,87 %
11.01.2019 02:04 -2,3 C 3,3 C -3,3 C 88 % 1023,1 hPa 0,0 l/m 6,3 km/h (2 Bft) W-SW 258 0 min 0,000 mm 0,0 UV-I 0 W/m -4,0 C -2,3 C 9,7 km/h (2 Bft) 97,14 %
11.01.2019 02:06 -2,3 C 3,3 C -3,3 C 88 % 1023,2 hPa 0,0 l/m 5,2 km/h (1 Bft) W-SW 253 0 min 0,000 mm 0,0 UV-I 0 W/m -4,0 C -2,3 C 6,4 km/h (2 Bft) 96,00 %
11.01.2019 02:08 -2,3 C 3,3 C -3,3 C 88 % 1023,3 hPa 0,0 l/m 6,1 km/h (2 Bft) W 266 0 min 0,000 mm 0,0 UV-I 0 W/m -4,0 C -2,3 C 9,7 km/h (2 Bft) 97,87 %
11.01.2019 02:10 -2,3 C 3,3 C -3,3 C 88 % 1023,3 hPa 0,0 l/m 6,9 km/h (2 Bft) W-SW 238 0 min 0,000 mm 0,0 UV-I 0 W/m -4,0 C -2,8 C 9,7 km/h (2 Bft) 100,00 %
11.01.2019 02:12 -2,3 C 3,3 C -3,3 C 88 % 1023,3 hPa 0,0 l/m 6,3 km/h (2 Bft) W-SW 246 0 min 0,000 mm 0,0 UV-I 0 W/m -4,0 C -2,3 C 11,3 km/h (2 Bft) 100,00 %
11.01.2019 02:14 -2,3 C 3,3 C -3,3 C 88 % 1023,3 hPa 0,0 l/m 5,9 km/h (2 Bft) W-SW 250 0 min 0,000 mm 0,0 UV-I 0 W/m -4,0 C -2,3 C 9,7 km/h (2 Bft) 100,00 %
11.01.2019 02:16 -2,3 C 3,3 C -3,3 C 88 % 1023,3 hPa 0,0 l/m 6,0 km/h (2 Bft) W-SW 253 0 min 0,000 mm 0,0 UV-I 0 W/m -4,0 C -2,3 C 9,7 km/h (2 Bft) 93,62 %
11.01.2019 02:18 -2,3 C 3,3 C -3,3 C 88 % 1023,3 hPa 0,0 l/m 7,5 km/h (2 Bft) W-SW 244 0 min 0,000 mm 0,0 UV-I 0 W/m -4,0 C -3,5 C 12,9 km/h (3 Bft) 94,87 %
11.01.2019 02:20 -2,3 C 3,3 C -3,3 C 88 % 1023,4 hPa 0,0 l/m 6,7 km/h (2 Bft) W 260 0 min 0,000 mm 0,0 UV-I 0 W/m -4,0 C -2,6 C 9,7 km/h (2 Bft) 95,74 %
11.01.2019 02:22 -2,3 C 3,3 C -3,3 C 88 % 1023,4 hPa 0,0 l/m 6,7 km/h (2 Bft) W-SW 254 0 min 0,000 mm 0,0 UV-I 0 W/m -4,0 C -2,6 C 11,3 km/h (2 Bft) 96,00 %
11.01.2019 02:24 -2,3 C 3,3 C -3,3 C 88 % 1023,4 hPa 0,0 l/m 5,4 km/h (1 Bft) W 263 0 min 0,000 mm 0,0 UV-I 0 W/m -4,0 C -2,3 C 6,4 km/h (2 Bft) 97,87 %
11.01.2019 02:26 -2,3 C 3,3 C -3,3 C 88 % 1023,4 hPa 0,0 l/m 4,6 km/h (1 Bft) W-SW 242 0 min 0,000 mm 0,0 UV-I 0 W/m -4,0 C -2,3 C 9,7 km/h (2 Bft) 93,62 %
11.01.2019 02:28 -2,3 C 3,3 C -3,3 C 88 % 1023,4 hPa 0,0 l/m 5,8 km/h (2 Bft) W-SW 241 0 min 0,000 mm 0,0 UV-I 0 W/m -4,0 C -2,3 C 9,7 km/h (2 Bft) 97,87 %
11.01.2019 02:30 -2,3 C 3,3 C -3,3 C 89 % 1023,5 hPa 0,0 l/m 6,7 km/h (2 Bft) W-SW 241 0 min 0,000 mm 0,0 UV-I 0 W/m -3,9 C -2,6 C 12,9 km/h (3 Bft) 97,87 %
11.01.2019 02:32 -2,3 C 3,3 C -3,3 C 89 % 1023,5 hPa 0,0 l/m 5,4 km/h (1 Bft) W-SW 242 0 min 0,000 mm 0,0 UV-I 0 W/m -3,9 C -2,3 C 9,7 km/h (2 Bft) 98,00 %
11.01.2019 02:34 -2,3 C 3,3 C -3,3 C 89 % 1023,5 hPa 0,0 l/m 7,0 km/h (2 Bft) W-SW 242 0 min 0,000 mm 0,0 UV-I 0 W/m -3,9 C -3,0 C 9,7 km/h (2 Bft) 95,74 %
11.01.2019 02:36 -2,3 C 3,3 C -3,3 C 89 % 1023,5 hPa 0,0 l/m 9,6 km/h (2 Bft) W-SW 248 0 min 0,000 mm 0,0 UV-I 0 W/m -3,9 C -5,6 C 14,5 km/h (3 Bft) 100,00 %
11.01.2019 02:38 -2,3 C 3,3 C -3,3 C 89 % 1023,5 hPa 0,0 l/m 7,7 km/h (2 Bft) W-SW 258 0 min 0,000 mm 0,0 UV-I 0 W/m -3,9 C -3,7 C 12,9 km/h (3 Bft) 91,49 %
11.01.2019 02:40 -2,4 C 3,3 C -3,3 C 89 % 1023,5 hPa 0,0 l/m 6,5 km/h (2 Bft) W-SW 258 0 min 0,000 mm 0,0 UV-I 0 W/m -4,0 C -2,5 C 9,7 km/h (2 Bft) 98,00 %
11.01.2019 02:42 -2,4 C 3,3 C -3,3 C 89 % 1023,6 hPa 0,0 l/m 6,0 km/h (2 Bft) W-SW 245 0 min 0,000 mm 0,0 UV-I 0 W/m -4,0 C -2,4 C 9,7 km/h (2 Bft) 98,00 %
11.01.2019 02:44 -2,4 C 3,3 C -3,3 C 89 % 1023,6 hPa 0,0 l/m 7,6 km/h (2 Bft) W-SW 244 0 min 0,000 mm 0,0 UV-I 0 W/m -4,0 C -3,7 C 12,9 km/h (3 Bft) 97,87 %
11.01.2019 02:46 -2,4 C 3,3 C -3,3 C 90 % 1023,6 hPa 0,0 l/m 6,7 km/h (2 Bft) W-SW 247 0 min 0,000 mm 0,0 UV-I 0 W/m -3,8 C -2,7 C 11,3 km/h (2 Bft) 100,00 %
11.01.2019 02:48 -2,4 C 3,3 C -3,3 C 90 % 1023,6 hPa 0,0 l/m 6,0 km/h (2 Bft) W 277 0 min 0,000 mm 0,0 UV-I 0 W/m -3,8 C -2,4 C 11,3 km/h (2 Bft) 100,00 %
11.01.2019 02:50 -2,4 C 3,3 C -3,3 C 90 % 1023,6 hPa 0,0 l/m 5,8 km/h (2 Bft) W 263 0 min 0,000 mm 0,0 UV-I 0 W/m -3,8 C -2,4 C 8,0 km/h (2 Bft) 97,87 %
11.01.2019 02:52 -2,4 C 3,3 C -3,3 C 90 % 1023,6 hPa 0,0 l/m 7,1 km/h (2 Bft) W-SW 251 0 min 0,000 mm 0,0 UV-I 0 W/m -3,8 C -3,2 C 9,7 km/h (2 Bft) 95,74 %
11.01.2019 02:54 -2,4 C 3,3 C -3,3 C 90 % 1023,6 hPa 0,0 l/m 6,5 km/h (2 Bft) W-SW 250 0 min 0,000 mm 0,0 UV-I 0 W/m -3,8 C -2,5 C 11,3 km/h (2 Bft) 95,74 %
11.01.2019 02:56 -2,4 C 3,3 C -3,3 C 90 % 1023,6 hPa 0,0 l/m 4,4 km/h (1 Bft) W-SW 238 0 min 0,000 mm 0,0 UV-I 0 W/m -3,8 C -2,4 C 6,4 km/h (2 Bft) 93,62 %
11.01.2019 02:58 -2,4 C 3,3 C -3,3 C 90 % 1023,6 hPa 0,0 l/m 4,8 km/h (1 Bft) W 269 0 min 0,000 mm 0,0 UV-I 0 W/m -3,8 C -2,4 C 11,3 km/h (2 Bft) 89,58 %
11.01.2019 03:00 -2,4 C 3,3 C -3,3 C 91 % 1023,5 hPa 0,0 l/m 6,9 km/h (2 Bft) W-SW 258 0 min 0,000 mm 0,0 UV-I 0 W/m -3,7 C -2,9 C 9,7 km/h (2 Bft) 91,49 %
11.01.2019 03:02 -2,4 C 3,3 C -3,3 C 91 % 1023,6 hPa 0,0 l/m 5,5 km/h (1 Bft) W-SW 247 0 min 0,000 mm 0,0 UV-I 0 W/m -3,7 C -2,4 C 9,7 km/h (2 Bft) 95,74 %
11.01.2019 03:04 -2,4 C 3,3 C -3,3 C 91 % 1023,6 hPa 0,0 l/m 6,3 km/h (2 Bft) W-SW 256 0 min 0,000 mm 0,0 UV-I 0 W/m -3,7 C -2,4 C 11,3 km/h (2 Bft) 95,74 %
11.01.2019 03:06 -2,4 C 3,3 C -3,3 C 91 % 1023,6 hPa 0,0 l/m 7,6 km/h (2 Bft) W 264 0 min 0,000 mm 0,0 UV-I 0 W/m -3,7 C -3,7 C 11,3 km/h (2 Bft) 91,49 %
11.01.2019 03:08 -2,4 C 3,3 C -3,3 C 91 % 1023,6 hPa 0,0 l/m 5,6 km/h (1 Bft) W-NW 288 0 min 0,000 mm 0,0 UV-I 0 W/m -3,7 C -2,4 C 9,7 km/h (2 Bft) 92,11 %
11.01.2019 03:10 -2,4 C 3,3 C -3,3 C 92 % 1023,6 hPa 0,0 l/m 5,0 km/h (1 Bft) W 261 0 min 0,000 mm 0,0 UV-I 0 W/m -3,5 C -2,4 C 8,0 km/h (2 Bft) 95,74 %
11.01.2019 03:12 -2,4 C 3,3 C -3,3 C 91 % 1023,6 hPa 0,0 l/m 5,8 km/h (2 Bft) W 273 0 min 0,000 mm 0,0 UV-I 0 W/m -3,7 C -2,4 C 9,7 km/h (2 Bft) 95,74 %
11.01.2019 03:14 -2,4 C 3,3 C -3,3 C 92 % 1023,6 hPa 0,0 l/m 6,7 km/h (2 Bft) W 277 0 min 0,000 mm 0,0 UV-I 0 W/m -3,5 C -2,7 C 11,3 km/h (2 Bft) 92,45 %
11.01.2019 03:16 -2,4 C 3,3 C -3,3 C 92 % 1023,5 hPa 0,0 l/m 5,4 km/h (1 Bft) W 267 0 min 0,000 mm 0,0 UV-I 0 W/m -3,5 C -2,4 C 9,7 km/h (2 Bft) 95,74 %
11.01.2019 03:18 -2,4 C 3,3 C -3,3 C 92 % 1023,5 hPa 0,0 l/m 5,7 km/h (1 Bft) W 264 0 min 0,000 mm 0,0 UV-I 0 W/m -3,5 C -2,4 C 9,7 km/h (2 Bft) 95,74 %
11.01.2019 03:20 -2,4 C 3,3 C -3,3 C 92 % 1023,5 hPa 0,0 l/m 7,9 km/h (2 Bft) W 268 0 min 0,000 mm 0,0 UV-I 0 W/m -3,5 C -4,1 C 11,3 km/h (2 Bft) 92,11 %
11.01.2019 03:22 -2,4 C 3,3 C -3,3 C 92 % 1023,5 hPa 0,0 l/m 4,7 km/h (1 Bft) W 266 0 min 0,000 mm 0,0 UV-I 0 W/m -3,5 C -2,4 C 6,4 km/h (2 Bft) 95,74 %
11.01.2019 03:24 -2,4 C 3,3 C -3,3 C 92 % 1023,5 hPa 0,0 l/m 4,3 km/h (1 Bft) W 262 0 min 0,000 mm 0,0 UV-I 0 W/m -3,5 C -2,4 C 9,7 km/h (2 Bft) 91,49 %
11.01.2019 03:26 -2,4 C 3,3 C -3,3 C 92 % 1023,5 hPa 0,0 l/m 5,1 km/h (1 Bft) W 277 0 min 0,000 mm 0,0 UV-I 0 W/m -3,5 C -2,4 C 6,4 km/h (2 Bft) 89,36 %
11.01.2019 03:28 -2,4 C 3,3 C -3,3 C 92 % 1023,5 hPa 0,0 l/m 5,7 km/h (1 Bft) W 276 0 min 0,000 mm 0,0 UV-I 0 W/m -3,5 C -2,4 C 11,3 km/h (2 Bft) 93,62 %
11.01.2019 03:30 -2,4 C 3,3 C -3,3 C 92 % 1023,6 hPa 0,0 l/m 6,6 km/h (2 Bft) W-NW 283 0 min 0,000 mm 0,0 UV-I 0 W/m -3,5 C -2,6 C 11,3 km/h (2 Bft) 90,00 %
11.01.2019 03:32 -2,4 C 3,3 C -3,3 C 92 % 1023,5 hPa 0,0 l/m 5,4 km/h (1 Bft) W 264 0 min 0,000 mm 0,0 UV-I 0 W/m -3,5 C -2,4 C 6,4 km/h (2 Bft) 92,31 %
11.01.2019 03:34 -2,4 C 3,3 C -3,3 C 92 % 1023,5 hPa 0,0 l/m 6,6 km/h (2 Bft) W-SW 250 0 min 0,000 mm 0,0 UV-I 0 W/m -3,5 C -2,6 C 9,7 km/h (2 Bft) 95,74 %
11.01.2019 03:36 -2,4 C 3,3 C -3,3 C 92 % 1023,5 hPa 0,0 l/m 7,6 km/h (2 Bft) W 273 0 min 0,000 mm 0,0 UV-I 0 W/m -3,5 C -3,7 C 11,3 km/h (2 Bft) 95,74 %
11.01.2019 03:38 -2,4 C 3,3 C -3,3 C 92 % 1023,5 hPa 0,0 l/m 7,5 km/h (2 Bft) W-SW 257 0 min 0,000 mm 0,0 UV-I 0 W/m -3,5 C -3,6 C 11,3 km/h (2 Bft) 92,31 %
11.01.2019 03:40 -2,4 C 3,3 C -3,3 C 92 % 1023,5 hPa 0,0 l/m 5,8 km/h (2 Bft) W 263 0 min 0,000 mm 0,0 UV-I 0 W/m -3,5 C -2,4 C 11,3 km/h (2 Bft) 91,49 %
11.01.2019 03:42 -2,4 C 3,3 C -3,3 C 92 % 1023,6 hPa 0,0 l/m 6,3 km/h (2 Bft) W 269 0 min 0,000 mm 0,0 UV-I 0 W/m -3,5 C -2,4 C 9,7 km/h (2 Bft) 93,88 %
11.01.2019 03:44 -2,4 C 3,3 C -3,3 C 92 % 1023,6 hPa 0,0 l/m 4,5 km/h (1 Bft) W 275 0 min 0,000 mm 0,0 UV-I 0 W/m -3,5 C -2,4 C 6,4 km/h (2 Bft) 93,62 %
11.01.2019 03:46 -2,4 C 3,3 C -3,3 C 92 % 1023,5 hPa 0,0 l/m 4,6 km/h (1 Bft) W 273 0 min 0,000 mm 0,0 UV-I 0 W/m -3,5 C -2,4 C 6,4 km/h (2 Bft) 89,36 %
11.01.2019 03:48 -2,4 C 3,3 C -3,3 C 91 % 1023,6 hPa 0,0 l/m 5,4 km/h (1 Bft) W 259 0 min 0,000 mm 0,0 UV-I 0 W/m -3,7 C -2,4 C 6,4 km/h (2 Bft) 95,74 %
11.01.2019 03:50 -2,4 C 3,3 C -3,3 C 91 % 1023,5 hPa 0,0 l/m 5,5 km/h (1 Bft) W 262 0 min 0,000 mm 0,0 UV-I 0 W/m -3,7 C -2,4 C 9,7 km/h (2 Bft) 98,00 %
11.01.2019 03:52 -2,4 C 3,3 C -3,3 C 91 % 1023,6 hPa 0,0 l/m 4,7 km/h (1 Bft) W-SW 242 0 min 0,000 mm 0,0 UV-I 0 W/m -3,7 C -2,4 C 6,4 km/h (2 Bft) 100,00 %
11.01.2019 03:54 -2,5 C 3,3 C -3,3 C 91 % 1023,5 hPa 0,0 l/m 5,5 km/h (1 Bft) W-SW 255 0 min 0,000 mm 0,0 UV-I 0 W/m -3,8 C -2,5 C 8,0 km/h (2 Bft) 100,00 %
11.01.2019 03:56 -2,5 C 3,3 C -3,3 C 91 % 1023,5 hPa 0,0 l/m 4,9 km/h (1 Bft) W-SW 250 0 min 0,000 mm 0,0 UV-I 0 W/m -3,8 C -2,5 C 8,0 km/h (2 Bft) 95,74 %
11.01.2019 03:58 -2,5 C 3,3 C -3,3 C 92 % 1023,5 hPa 0,0 l/m 4,9 km/h (1 Bft) W 263 0 min 0,000 mm 0,0 UV-I 0 W/m -3,6 C -2,5 C 8,0 km/h (2 Bft) 97,37 %
11.01.2019 04:00 -2,5 C 3,3 C -3,3 C 91 % 1023,5 hPa 0,0 l/m 3,6 km/h (1 Bft) W 264 0 min 0,000 mm 0,0 UV-I 0 W/m -3,8 C -2,5 C 4,8 km/h (1 Bft) 100,00 %
11.01.2019 04:02 -2,5 C 3,3 C -3,3 C 91 % 1023,6 hPa 0,0 l/m 4,5 km/h (1 Bft) W 261 0 min 0,000 mm 0,0 UV-I 0 W/m -3,8 C -2,5 C 6,4 km/h (2 Bft) 96,55 %
11.01.2019 04:04 -2,5 C 3,3 C -3,9 C 91 % 1023,5 hPa 0,0 l/m 5,7 km/h (1 Bft) W-SW 257 0 min 0,000 mm 0,0 UV-I 0 W/m -3,8 C -2,5 C 11,3 km/h (2 Bft) 97,87 %
11.01.2019 04:06 -2,6 C 3,3 C -3,9 C 91 % 1023,5 hPa 0,0 l/m 6,7 km/h (2 Bft) W 263 0 min 0,000 mm 0,0 UV-I 0 W/m -3,9 C -2,9 C 9,7 km/h (2 Bft) 97,87 %
11.01.2019 04:08 -2,6 C 3,3 C -3,9 C 91 % 1023,5 hPa 0,0 l/m 6,2 km/h (2 Bft) W 269 0 min 0,000 mm 0,0 UV-I 0 W/m -3,9 C -2,6 C 9,7 km/h (2 Bft) 100,00 %
11.01.2019 04:10 -2,6 C 3,3 C -3,9 C 91 % 1023,5 hPa 0,0 l/m 5,2 km/h (1 Bft) W 262 0 min 0,000 mm 0,0 UV-I 0 W/m -3,9 C -2,6 C 6,4 km/h (2 Bft) 100,00 %
11.01.2019 04:12 -2,6 C 3,3 C -3,9 C 91 % 1023,5 hPa 0,0 l/m 7,0 km/h (2 Bft) W 265 0 min 0,000 mm 0,0 UV-I 0 W/m -3,9 C -3,3 C 14,5 km/h (3 Bft) 97,92 %
11.01.2019 04:14 -2,6 C 3,3 C -3,9 C 91 % 1023,5 hPa 0,0 l/m 5,2 km/h (1 Bft) W 265 0 min 0,000 mm 0,0 UV-I 0 W/m -3,9 C -2,6 C 11,3 km/h (2 Bft) 97,87 %
11.01.2019 04:16 -2,6 C 3,3 C -3,9 C 91 % 1023,5 hPa 0,0 l/m 6,2 km/h (2 Bft) W-NW 286 0 min 0,000 mm 0,0 UV-I 0 W/m -3,9 C -2,6 C 9,7 km/h (2 Bft) 100,00 %
11.01.2019 04:18 -2,6 C 3,3 C -3,9 C 90 % 1023,5 hPa 0,0 l/m 4,5 km/h (1 Bft) W 267 0 min 0,000 mm 0,0 UV-I 0 W/m -4,0 C -2,6 C 9,7 km/h (2 Bft) 100,00 %
11.01.2019 04:20 -2,6 C 3,3 C -4,4 C 90 % 1023,5 hPa 0,0 l/m 4,7 km/h (1 Bft) W 273 0 min 0,000 mm 0,0 UV-I 0 W/m -4,0 C -2,6 C 8,0 km/h (2 Bft) 100,00 %
11.01.2019 04:22 -2,6 C 3,3 C -4,4 C 90 % 1023,6 hPa 0,0 l/m 4,0 km/h (1 Bft) W 274 0 min 0,000 mm 0,0 UV-I 0 W/m -4,0 C -2,6 C 6,4 km/h (2 Bft) 100,00 %
11.01.2019 04:24 -2,7 C 3,3 C -4,4 C 90 % 1023,6 hPa 0,0 l/m 3,6 km/h (1 Bft) W-SW 251 0 min 0,000 mm 0,0 UV-I 0 W/m -4,1 C -2,7 C 4,8 km/h (1 Bft) 100,00 %
11.01.2019 04:26 -2,6 C 3,3 C -3,9 C 90 % 1023,6 hPa 0,0 l/m 3,7 km/h (1 Bft) W-NW 292 0 min 0,000 mm 0,0 UV-I 0 W/m -4,0 C -2,6 C 9,7 km/h (2 Bft) 100,00 %
11.01.2019 04:28 -2,7 C 3,3 C -3,9 C 91 % 1023,5 hPa 0,0 l/m 5,5 km/h (1 Bft) W 264 0 min 0,000 mm 0,0 UV-I 0 W/m -4,0 C -2,7 C 11,3 km/h (2 Bft) 97,87 %
11.01.2019 04:30 -2,6 C 3,3 C -3,9 C 91 % 1023,6 hPa 0,0 l/m 5,1 km/h (1 Bft) W 269 0 min 0,000 mm 0,0 UV-I 0 W/m -3,9 C -2,6 C 9,7 km/h (2 Bft) 100,00 %
11.01.2019 04:32 -2,6 C 3,3 C -3,9 C 91 % 1023,6 hPa 0,0 l/m 4,2 km/h (1 Bft) W 259 0 min 0,000 mm 0,0 UV-I 0 W/m -3,9 C -2,6 C 4,8 km/h (1 Bft) 98,00 %
11.01.2019 04:34 -2,6 C 3,3 C -3,9 C 91 % 1023,6 hPa 0,0 l/m 4,1 km/h (1 Bft) W 264 0 min 0,000 mm 0,0 UV-I 0 W/m -3,9 C -2,6 C 6,4 km/h (2 Bft) 98,00 %
11.01.2019 04:36 -2,6 C 3,3 C -3,9 C 91 % 1023,6 hPa 0,0 l/m 4,2 km/h (1 Bft) W 272 0 min 0,000 mm 0,0 UV-I 0 W/m -3,9 C -2,6 C 6,4 km/h (2 Bft) 100,00 %
11.01.2019 04:38 -2,6 C 3,3 C -3,9 C 91 % 1023,5 hPa 0,0 l/m 3,7 km/h (1 Bft) W 271 0 min 0,000 mm 0,0 UV-I 0 W/m -3,9 C -2,6 C 9,7 km/h (2 Bft) 100,00 %
11.01.2019 04:40 -2,6 C 3,3 C -3,9 C 91 % 1023,5 hPa 0,0 l/m 5,1 km/h (1 Bft) W 265 0 min 0,000 mm 0,0 UV-I 0 W/m -3,9 C -2,6 C 9,7 km/h (2 Bft) 95,74 %
11.01.2019 04:42 -2,6 C 3,3 C -3,3 C 91 % 1023,5 hPa 0,0 l/m 6,9 km/h (2 Bft) W-SW 249 0 min 0,000 mm 0,0 UV-I 0 W/m -3,9 C -3,2 C 11,3 km/h (2 Bft) 97,87 %
11.01.2019 04:44 -2,5 C 3,3 C -3,3 C 92 % 1023,5 hPa 0,0 l/m 5,8 km/h (2 Bft) W 279 0 min 0,000 mm 0,0 UV-I 0 W/m -3,6 C -2,5 C 11,3 km/h (2 Bft) 97,87 %
11.01.2019 04:46 -2,5 C 3,3 C -3,3 C 91 % 1023,5 hPa 0,0 l/m 4,4 km/h (1 Bft) W-SW 251 0 min 0,000 mm 0,0 UV-I 0 W/m -3,8 C -2,5 C 6,4 km/h (2 Bft) 97,87 %
11.01.2019 04:48 -2,5 C 3,3 C -3,3 C 92 % 1023,5 hPa 0,0 l/m 4,9 km/h (1 Bft) W 259 0 min 0,000 mm 0,0 UV-I 0 W/m -3,6 C -2,5 C 6,4 km/h (2 Bft) 95,74 %
11.01.2019 04:50 -2,4 C 3,3 C -3,3 C 92 % 1023,5 hPa 0,0 l/m 5,9 km/h (2 Bft) W 269 0 min 0,000 mm 0,0 UV-I 0 W/m -3,5 C -2,4 C 9,7 km/h (2 Bft) 95,74 %
11.01.2019 04:52 -2,4 C 3,3 C -3,3 C 92 % 1023,5 hPa 0,0 l/m 6,5 km/h (2 Bft) W 271 0 min 0,000 mm 0,0 UV-I 0 W/m -3,5 C -2,5 C 9,7 km/h (2 Bft) 97,92 %
11.01.2019 04:54 -2,4 C 3,3 C -3,3 C 92 % 1023,5 hPa 0,0 l/m 5,3 km/h (1 Bft) W-SW 256 0 min 0,000 mm 0,0 UV-I 0 W/m -3,5 C -2,4 C 9,7 km/h (2 Bft) 97,87 %
11.01.2019 04:56 -2,4 C 3,3 C -3,3 C 92 % 1023,5 hPa 0,0 l/m 4,6 km/h (1 Bft) W-SW 242 0 min 0,000 mm 0,0 UV-I 0 W/m -3,5 C -2,4 C 6,4 km/h (2 Bft) 97,87 %
11.01.2019 04:58 -2,4 C 3,3 C -3,3 C 92 % 1023,5 hPa 0,0 l/m 5,7 km/h (1 Bft) SW 227 0 min 0,000 mm 0,0 UV-I 0 W/m -3,5 C -2,4 C 8,0 km/h (2 Bft) 100,00 %
11.01.2019 05:00 -2,5 C 3,3 C -2,8 C 92 % 1023,5 hPa 0,0 l/m 6,1 km/h (2 Bft) W-SW 241 0 min 0,000 mm 0,0 UV-I 0 W/m -3,6 C -2,5 C 8,0 km/h (2 Bft) 100,00 %
11.01.2019 05:02 -2,5 C 3,3 C -2,8 C 92 % 1023,5 hPa 0,0 l/m 4,8 km/h (1 Bft) W-SW 238 0 min 0,000 mm 0,0 UV-I 0 W/m -3,6 C -2,5 C 8,0 km/h (2 Bft) 97,87 %
11.01.2019 05:04 -2,5 C 3,3 C -2,8 C 92 % 1023,5 hPa 0,0 l/m 6,4 km/h (2 Bft) W-SW 244 0 min 0,000 mm 0,0 UV-I 0 W/m -3,6 C -2,5 C 11,3 km/h (2 Bft) 100,00 %
11.01.2019 05:07 -2,5 C 3,3 C -2,8 C 92 % 1023,5 hPa 0,0 l/m 6,6 km/h (2 Bft) W-SW 255 0 min 0,000 mm 0,0 UV-I 0 W/m -3,6 C -2,7 C 11,3 km/h (2 Bft) 98,78 %
11.01.2019 05:08 -2,5 C 3,3 C -2,8 C 92 % 1023,5 hPa 0,0 l/m 4,8 km/h (1 Bft) W-SW 239 0 min 0,000 mm 0,0 UV-I 0 W/m -3,6 C -2,5 C 8,0 km/h (2 Bft) 100,00 %
11.01.2019 05:10 -2,4 C 3,3 C -2,8 C 92 % 1023,6 hPa 0,0 l/m 6,6 km/h (2 Bft) W 265 0 min 0,000 mm 0,0 UV-I 0 W/m -3,5 C -2,6 C 11,3 km/h (2 Bft) 98,00 %
11.01.2019 05:12 -2,4 C 3,3 C -2,8 C 92 % 1023,5 hPa 0,0 l/m 4,9 km/h (1 Bft) W 266 0 min 0,000 mm 0,0 UV-I 0 W/m -3,5 C -2,4 C 9,7 km/h (2 Bft) 95,74 %
11.01.2019 05:15 -2,4 C 3,3 C -2,8 C 92 % 1023,5 hPa 0,0 l/m 4,6 km/h (1 Bft) W-SW 257 0 min 0,000 mm 0,0 UV-I 0 W/m -3,5 C -2,4 C 8,0 km/h (2 Bft) 97,30 %
11.01.2019 05:16 -2,4 C 3,3 C -2,8 C 92 % 1023,6 hPa 0,0 l/m 4,9 km/h (1 Bft) W-SW 242 0 min 0,000 mm 0,0 UV-I 0 W/m -3,5 C -2,4 C 6,4 km/h (2 Bft) 95,65 %
11.01.2019 05:18 -2,4 C 3,3 C -2,8 C 92 % 1023,6 hPa 0,0 l/m 7,0 km/h (2 Bft) W-SW 240 0 min 0,000 mm 0,0 UV-I 0 W/m -3,5 C -3,1 C 9,7 km/h (2 Bft) 97,87 %
11.01.2019 05:20 -2,4 C 3,3 C -2,8 C 93 % 1023,6 hPa 0,0 l/m 7,8 km/h (2 Bft) W 261 0 min 0,000 mm 0,0 UV-I 0 W/m -3,4 C -4,0 C 11,3 km/h (2 Bft) 95,74 %
11.01.2019 05:22 -2,4 C 3,3 C -2,8 C 93 % 1023,6 hPa 0,0 l/m 7,3 km/h (2 Bft) SW 235 0 min 0,000 mm 0,0 UV-I 0 W/m -3,4 C -3,4 C 11,3 km/h (2 Bft) 93,62 %
11.01.2019 05:25 -2,4 C 3,3 C -2,8 C 93 % 1023,7 hPa 0,0 l/m 5,1 km/h (1 Bft) W-SW 246 0 min 0,000 mm 0,0 UV-I 0 W/m -3,4 C -2,4 C 9,7 km/h (2 Bft) 97,30 %
11.01.2019 05:26 -2,4 C 3,3 C -2,8 C 93 % 1023,7 hPa 0,0 l/m 6,4 km/h (2 Bft) W-SW 243 0 min 0,000 mm 0,0 UV-I 0 W/m -3,4 C -2,4 C 8,0 km/h (2 Bft) 100,00 %
11.01.2019 05:28 -2,4 C 3,3 C -2,8 C 93 % 1023,6 hPa 0,0 l/m 5,1 km/h (1 Bft) W-SW 252 0 min 0,000 mm 0,0 UV-I 0 W/m -3,4 C -2,4 C 8,0 km/h (2 Bft) 97,87 %
11.01.2019 05:30 -2,4 C 3,3 C -2,8 C 93 % 1023,7 hPa 0,0 l/m 6,8 km/h (2 Bft) W 264 0 min 0,000 mm 0,0 UV-I 0 W/m -3,4 C -2,8 C 9,7 km/h (2 Bft) 97,87 %
11.01.2019 05:32 -2,4 C 3,3 C -2,8 C 93 % 1023,7 hPa 0,0 l/m 6,0 km/h (2 Bft) W 263 0 min 0,000 mm 0,0 UV-I 0 W/m -3,4 C -2,4 C 11,3 km/h (2 Bft) 95,74 %
11.01.2019 05:34 -2,4 C 3,3 C -2,8 C 93 % 1023,7 hPa 0,0 l/m 8,5 km/h (2 Bft) W 278 0 min 0,000 mm 0,0 UV-I 0 W/m -3,4 C -4,7 C 14,5 km/h (3 Bft) 91,49 %
11.01.2019 05:36 -2,4 C 3,3 C -2,8 C 93 % 1023,7 hPa 0,0 l/m 9,1 km/h (2 Bft) W-SW 250 0 min 0,000 mm 0,0 UV-I 0 W/m -3,4 C -5,3 C 14,5 km/h (3 Bft) 96,00 %
11.01.2019 05:38 -2,4 C 3,3 C -2,8 C 93 % 1023,7 hPa 0,0 l/m 6,2 km/h (2 Bft) W 273 0 min 0,000 mm 0,0 UV-I 0 W/m -3,4 C -2,4 C 9,7 km/h (2 Bft) 96,00 %
11.01.2019 05:40 -2,4 C 3,3 C -2,8 C 93 % 1023,8 hPa 0,0 l/m 6,8 km/h (2 Bft) W-NW 287 0 min 0,000 mm 0,0 UV-I 0 W/m -3,4 C -2,8 C 14,5 km/h (3 Bft) 93,62 %
11.01.2019 05:42 -2,4 C 3,3 C -2,8 C 93 % 1023,7 hPa 0,0 l/m 8,9 km/h (2 Bft) W 271 0 min 0,000 mm 0,0 UV-I 0 W/m -3,4 C -5,1 C 14,5 km/h (3 Bft) 97,87 %
11.01.2019 05:44 -2,4 C 3,3 C -2,8 C 93 % 1023,8 hPa 0,0 l/m 11,5 km/h (2 Bft) W 265 0 min 0,000 mm 0,0 UV-I 0 W/m -3,4 C -7,4 C 16,1 km/h (3 Bft) 97,87 %
11.01.2019 05:46 -2,4 C 3,3 C -2,8 C 93 % 1023,8 hPa 0,0 l/m 7,6 km/h (2 Bft) W 267 0 min 0,000 mm 0,0 UV-I 0 W/m -3,4 C -3,7 C 12,9 km/h (3 Bft) 93,62 %
11.01.2019 05:48 -2,4 C 3,3 C -2,8 C 93 % 1023,7 hPa 0,0 l/m 11,7 km/h (2 Bft) W 276 0 min 0,000 mm 0,0 UV-I 0 W/m -3,4 C -7,5 C 19,3 km/h (3 Bft) 95,74 %
11.01.2019 05:50 -2,4 C 3,3 C -2,8 C 94 % 1023,8 hPa 0,0 l/m 8,8 km/h (2 Bft) W 269 0 min 0,000 mm 0,0 UV-I 0 W/m -3,2 C -5,0 C 12,9 km/h (3 Bft) 93,62 %
11.01.2019 05:52 -2,4 C 3,3 C -2,8 C 94 % 1023,9 hPa 0,0 l/m 8,8 km/h (2 Bft) W 268 0 min 0,000 mm 0,0 UV-I 0 W/m -3,2 C -5,0 C 14,5 km/h (3 Bft) 95,74 %
11.01.2019 05:54 -2,4 C 3,3 C -2,8 C 94 % 1023,9 hPa 0,0 l/m 7,6 km/h (2 Bft) W 261 0 min 0,000 mm 0,0 UV-I 0 W/m -3,2 C -3,7 C 11,3 km/h (2 Bft) 97,87 %
11.01.2019 05:56 -2,4 C 3,3 C -2,8 C 94 % 1023,9 hPa 0,0 l/m 8,2 km/h (2 Bft) W 269 0 min 0,000 mm 0,0 UV-I 0 W/m -3,2 C -4,4 C 12,9 km/h (3 Bft) 97,87 %
11.01.2019 05:58 -2,4 C 3,3 C -2,8 C 94 % 1023,9 hPa 0,0 l/m 6,2 km/h (2 Bft) W 263 0 min 0,000 mm 0,0 UV-I 0 W/m -3,2 C -2,4 C 9,7 km/h (2 Bft) 97,87 %
11.01.2019 06:00 -2,4 C 3,3 C -2,8 C 94 % 1023,9 hPa 0,0 l/m 11,5 km/h (2 Bft) W 281 0 min 0,000 mm 0,0 UV-I 0 W/m -3,2 C -7,4 C 17,7 km/h (3 Bft) 97,87 %
11.01.2019 06:02 -2,4 C 3,3 C -2,8 C 94 % 1023,9 hPa 0,0 l/m 7,5 km/h (2 Bft) W-NW 282 0 min 0,000 mm 0,0 UV-I 0 W/m -3,2 C -3,6 C 12,9 km/h (3 Bft) 97,87 %
11.01.2019 06:04 -2,4 C 3,3 C -2,8 C 94 % 1023,9 hPa 0,0 l/m 9,4 km/h (2 Bft) W-NW 294 0 min 0,000 mm 0,0 UV-I 0 W/m -3,2 C -5,6 C 12,9 km/h (3 Bft) 93,62 %
11.01.2019 06:06 -2,5 C 3,3 C -2,8 C 94 % 1023,9 hPa 0,0 l/m 6,7 km/h (2 Bft) W-SW 257 0 min 0,000 mm 0,0 UV-I 0 W/m -3,3 C -2,8 C 12,9 km/h (3 Bft) 97,87 %
11.01.2019 06:08 -2,5 C 3,3 C -2,8 C 94 % 1023,9 hPa 0,0 l/m 8,7 km/h (2 Bft) W 269 0 min 0,000 mm 0,0 UV-I 0 W/m -3,3 C -5,0 C 12,9 km/h (3 Bft) 97,62 %
11.01.2019 06:10 -2,5 C 3,3 C -2,8 C 94 % 1023,9 hPa 0,0 l/m 8,3 km/h (2 Bft) W 278 0 min 0,000 mm 0,0 UV-I 0 W/m -3,3 C -4,6 C 14,5 km/h (3 Bft) 95,74 %
11.01.2019 06:12 -2,6 C 3,3 C -2,8 C 94 % 1023,9 hPa 0,0 l/m 9,4 km/h (2 Bft) W 259 0 min 0,000 mm 0,0 UV-I 0 W/m -3,4 C -5,8 C 14,5 km/h (3 Bft) 95,74 %
11.01.2019 06:14 -2,6 C 3,3 C -2,8 C 94 % 1023,9 hPa 0,0 l/m 8,8 km/h (2 Bft) W-SW 255 0 min 0,000 mm 0,0 UV-I 0 W/m -3,4 C -5,2 C 12,9 km/h (3 Bft) 97,87 %
11.01.2019 06:16 -2,6 C 3,3 C -2,8 C 94 % 1023,9 hPa 0,0 l/m 12,5 km/h (3 Bft) W 278 0 min 0,000 mm 0,0 UV-I 0 W/m -3,4 C -8,4 C 14,5 km/h (3 Bft) 100,00 %
11.01.2019 06:18 -2,6 C 3,3 C -2,8 C 94 % 1023,9 hPa 0,0 l/m 10,1 km/h (2 Bft) W 273 0 min 0,000 mm 0,0 UV-I 0 W/m -3,4 C -6,4 C 16,1 km/h (3 Bft) 95,74 %
11.01.2019 06:20 -2,6 C 3,3 C -2,8 C 94 % 1024,0 hPa 0,0 l/m 9,1 km/h (2 Bft) W 271 0 min 0,000 mm 0,0 UV-I 0 W/m -3,4 C -5,5 C 14,5 km/h (3 Bft) 100,00 %
11.01.2019 06:22 -2,6 C 3,3 C -2,8 C 94 % 1023,9 hPa 0,0 l/m 9,6 km/h (2 Bft) W-NW 286 0 min 0,000 mm 0,0 UV-I 0 W/m -3,4 C -6,0 C 14,5 km/h (3 Bft) 100,00 %
11.01.2019 06:24 -2,6 C 3,3 C -2,8 C 94 % 1024,0 hPa 0,0 l/m 8,9 km/h (2 Bft) W-SW 255 0 min 0,000 mm 0,0 UV-I 0 W/m -3,4 C -5,3 C 14,5 km/h (3 Bft) 100,00 %
11.01.2019 06:26 -2,6 C 3,3 C -2,8 C 94 % 1024,0 hPa 0,0 l/m 10,2 km/h (2 Bft) W 267 0 min 0,000 mm 0,0 UV-I 0 W/m -3,4 C -6,5 C 14,5 km/h (3 Bft) 97,87 %
11.01.2019 06:28 -2,6 C 3,3 C -3,3 C 94 % 1024,0 hPa 0,0 l/m 11,2 km/h (2 Bft) W 263 0 min 0,000 mm 0,0 UV-I 0 W/m -3,4 C -7,4 C 14,5 km/h (3 Bft) 100,00 %
11.01.2019 06:30 -2,6 C 3,3 C -3,3 C 94 % 1024,0 hPa 0,0 l/m 9,8 km/h (2 Bft) W 270 0 min 0,000 mm 0,0 UV-I 0 W/m -3,4 C -6,1 C 17,7 km/h (3 Bft) 98,00 %
11.01.2019 06:32 -2,6 C 3,3 C -3,3 C 94 % 1024,0 hPa 0,0 l/m 11,3 km/h (2 Bft) W 273 0 min 0,000 mm 0,0 UV-I 0 W/m -3,4 C -7,4 C 17,7 km/h (3 Bft) 98,00 %
11.01.2019 06:34 -2,6 C 3,3 C -3,3 C 94 % 1024,0 hPa 0,0 l/m 9,0 km/h (2 Bft) W 279 0 min 0,000 mm 0,0 UV-I 0 W/m -3,4 C -5,4 C 14,5 km/h (3 Bft) 95,74 %
11.01.2019 06:36 -2,6 C 3,3 C -3,3 C 94 % 1024,0 hPa 0,0 l/m 9,1 km/h (2 Bft) W 265 0 min 0,000 mm 0,0 UV-I 0 W/m -3,4 C -5,5 C 16,1 km/h (3 Bft) 95,74 %
11.01.2019 06:38 -2,6 C 3,3 C -3,3 C 94 % 1024,0 hPa 0,0 l/m 11,2 km/h (2 Bft) W 270 0 min 0,000 mm 0,0 UV-I 0 W/m -3,4 C -7,4 C 16,1 km/h (3 Bft) 97,87 %
11.01.2019 06:40 -2,7 C 3,3 C -3,3 C 93 % 1024,0 hPa 0,0 l/m 10,0 km/h (2 Bft) W-NW 287 0 min 0,000 mm 0,0 UV-I 0 W/m -3,7 C -6,4 C 14,5 km/h (3 Bft) 95,74 %
11.01.2019 06:42 -2,7 C 3,3 C -3,3 C 93 % 1024,0 hPa 0,0 l/m 12,2 km/h (2 Bft) W 262 0 min 0,000 mm 0,0 UV-I 0 W/m -3,7 C -8,3 C 17,7 km/h (3 Bft) 96,00 %
11.01.2019 06:44 -2,7 C 3,3 C -3,3 C 93 % 1024,1 hPa 0,0 l/m 8,2 km/h (2 Bft) W 261 0 min 0,000 mm 0,0 UV-I 0 W/m -3,7 C -4,7 C 12,9 km/h (3 Bft) 97,56 %
11.01.2019 06:46 -2,7 C 3,3 C -3,3 C 93 % 1024,1 hPa 0,0 l/m 12,4 km/h (3 Bft) W-NW 284 0 min 0,000 mm 0,0 UV-I 0 W/m -3,7 C -8,4 C 17,7 km/h (3 Bft) 95,83 %
11.01.2019 06:48 -2,7 C 3,3 C -3,3 C 93 % 1024,1 hPa 0,0 l/m 11,9 km/h (2 Bft) W-NW 298 0 min 0,000 mm 0,0 UV-I 0 W/m -3,7 C -8,0 C 19,3 km/h (3 Bft) 95,74 %
11.01.2019 06:50 -2,7 C 3,3 C -3,3 C 93 % 1024,2 hPa 0,0 l/m 13,0 km/h (3 Bft) W 277 0 min 0,000 mm 0,0 UV-I 0 W/m -3,7 C -8,9 C 19,3 km/h (3 Bft) 97,87 %
11.01.2019 06:52 -2,7 C 3,3 C -3,3 C 93 % 1024,2 hPa 0,0 l/m 12,4 km/h (3 Bft) W 272 0 min 0,000 mm 0,0 UV-I 0 W/m -3,7 C -8,4 C 19,3 km/h (3 Bft) 92,00 %
11.01.2019 06:54 -2,7 C 3,3 C -3,3 C 93 % 1024,2 hPa 0,0 l/m 13,6 km/h (3 Bft) W-NW 288 0 min 0,000 mm 0,0 UV-I 0 W/m -3,7 C -9,3 C 19,3 km/h (3 Bft) 93,62 %
11.01.2019 06:56 -2,7 C 3,3 C -3,3 C 93 % 1024,2 hPa 0,0 l/m 11,1 km/h (2 Bft) W 270 0 min 0,000 mm 0,0 UV-I 0 W/m -3,7 C -7,4 C 17,7 km/h (3 Bft) 97,37 %
11.01.2019 06:58 -2,7 C 3,3 C -3,3 C 93 % 1024,2 hPa 0,0 l/m 12,1 km/h (2 Bft) W-NW 302 0 min 0,000 mm 0,0 UV-I 0 W/m -3,7 C -8,2 C 19,3 km/h (3 Bft) 94,00 %
11.01.2019 07:00 -2,7 C 3,3 C -3,3 C 93 % 1024,2 hPa 0,0 l/m 12,2 km/h (2 Bft) W-NW 298 0 min 0,000 mm 0,0 UV-I 0 W/m -3,7 C -8,3 C 17,7 km/h (3 Bft) 97,87 %
11.01.2019 07:02 -2,7 C 3,3 C -3,3 C 92 % 1024,2 hPa 0,0 l/m 14,0 km/h (3 Bft) W-SW 248 0 min 0,000 mm 0,0 UV-I 0 W/m -3,8 C -9,6 C 22,5 km/h (4 Bft) 95,74 %
11.01.2019 07:04 -2,7 C 3,3 C -3,3 C 92 % 1024,3 hPa 0,0 l/m 10,2 km/h (2 Bft) W 276 0 min 0,000 mm 0,0 UV-I 0 W/m -3,8 C -6,6 C 14,5 km/h (3 Bft) 95,74 %
11.01.2019 07:06 -2,8 C 3,3 C -3,3 C 92 % 1024,2 hPa 0,0 l/m 11,8 km/h (2 Bft) W-SW 250 0 min 0,000 mm 0,0 UV-I 0 W/m -3,9 C -8,1 C 19,3 km/h (3 Bft) 95,74 %
11.01.2019 07:08 -2,8 C 3,3 C -3,3 C 92 % 1024,2 hPa 0,0 l/m 10,8 km/h (2 Bft) W-NW 289 0 min 0,000 mm 0,0 UV-I 0 W/m -3,9 C -7,2 C 17,7 km/h (3 Bft) 93,62 %
11.01.2019 07:10 -2,8 C 3,3 C -3,3 C 92 % 1024,2 hPa 0,0 l/m 8,8 km/h (2 Bft) W 279 0 min 0,000 mm 0,0 UV-I 0 W/m -3,9 C -5,4 C 12,9 km/h (3 Bft) 93,62 %
11.01.2019 07:12 -2,8 C 3,3 C -3,9 C 92 % 1024,2 hPa 0,0 l/m 6,7 km/h (2 Bft) W 275 0 min 0,000 mm 0,0 UV-I 0 W/m -3,9 C -3,1 C 12,9 km/h (3 Bft) 95,74 %
11.01.2019 07:14 -2,8 C 3,3 C -3,9 C 92 % 1024,2 hPa 0,0 l/m 8,1 km/h (2 Bft) W 277 0 min 0,000 mm 0,0 UV-I 0 W/m -3,9 C -4,7 C 11,3 km/h (2 Bft) 95,74 %
11.01.2019 07:16 -2,8 C 3,3 C -3,9 C 92 % 1024,2 hPa 0,0 l/m 8,4 km/h (2 Bft) W 269 0 min 0,000 mm 0,0 UV-I 0 W/m -3,9 C -5,0 C 14,5 km/h (3 Bft) 95,74 %
11.01.2019 07:18 -2,8 C 3,3 C -3,9 C 92 % 1024,3 hPa 0,0 l/m 9,1 km/h (2 Bft) W 260 0 min 0,000 mm 0,0 UV-I 0 W/m -3,9 C -5,7 C 14,5 km/h (3 Bft) 93,62 %
11.01.2019 07:20 -2,9 C 3,3 C -3,9 C 92 % 1024,3 hPa 0,0 l/m 9,5 km/h (2 Bft) W-NW 288 0 min 0,000 mm 0,0 UV-I 0 W/m -4,0 C -6,2 C 16,1 km/h (3 Bft) 96,00 %
11.01.2019 07:22 -2,9 C 3,3 C -3,9 C 92 % 1024,3 hPa 0,0 l/m 12,8 km/h (3 Bft) W 271 0 min 0,000 mm 0,0 UV-I 0 W/m -4,0 C -9,0 C 19,3 km/h (3 Bft) 93,62 %
11.01.2019 07:24 -2,9 C 3,3 C -3,9 C 91 % 1024,3 hPa 0,0 l/m 8,5 km/h (2 Bft) W 279 0 min 0,000 mm 0,0 UV-I 0 W/m -4,2 C -5,2 C 14,5 km/h (3 Bft) 95,74 %
11.01.2019 07:26 -2,9 C 3,3 C -3,9 C 91 % 1024,3 hPa 0,0 l/m 9,8 km/h (2 Bft) W-NW 293 0 min 0,000 mm 0,0 UV-I 0 W/m -4,2 C -6,5 C 17,7 km/h (3 Bft) 97,44 %
11.01.2019 07:28 -2,9 C 3,3 C -3,9 C 91 % 1024,3 hPa 0,0 l/m 9,1 km/h (2 Bft) W-SW 254 0 min 0,000 mm 0,0 UV-I 0 W/m -4,2 C -5,8 C 17,7 km/h (3 Bft) 95,74 %
11.01.2019 07:30 -2,9 C 3,3 C -3,9 C 91 % 1024,3 hPa 0,0 l/m 12,3 km/h (3 Bft) W 267 0 min 0,000 mm 0,0 UV-I 0 W/m -4,2 C -8,6 C 17,7 km/h (3 Bft) 93,62 %
11.01.2019 07:32 -2,9 C 3,3 C -3,9 C 91 % 1024,3 hPa 0,0 l/m 7,3 km/h (2 Bft) NW 313 0 min 0,000 mm 0,0 UV-I 0 W/m -4,2 C -3,9 C 12,9 km/h (3 Bft) 96,00 %
11.01.2019 07:34 -2,9 C 3,3 C -3,9 C 92 % 1024,3 hPa 0,0 l/m 10,8 km/h (2 Bft) W-NW 303 0 min 0,000 mm 0,0 UV-I 0 W/m -4,0 C -7,4 C 17,7 km/h (3 Bft) 95,74 %
11.01.2019 07:36 -2,9 C 3,3 C -3,9 C 91 % 1024,3 hPa 0,0 l/m 9,7 km/h (2 Bft) W 273 0 min 0,000 mm 0,0 UV-I 0 W/m -4,2 C -6,4 C 14,5 km/h (3 Bft) 97,87 %
11.01.2019 07:38 -2,9 C 3,3 C -3,3 C 91 % 1024,2 hPa 0,0 l/m 9,1 km/h (2 Bft) W 261 0 min 0,000 mm 0,0 UV-I 0 W/m -4,2 C -5,8 C 14,5 km/h (3 Bft) 96,00 %
11.01.2019 07:40 -2,9 C 3,3 C -3,3 C 91 % 1024,3 hPa 0,0 l/m 10,8 km/h (2 Bft) W-NW 286 0 min 0,000 mm 0,0 UV-I 0 W/m -4,2 C -7,4 C 16,1 km/h (3 Bft) 95,74 %
11.01.2019 07:42 -2,9 C 3,3 C -3,3 C 91 % 1024,2 hPa 0,0 l/m 12,0 km/h (2 Bft) W-SW 244 0 min 0,000 mm 0,0 UV-I 4 W/m -4,2 C -8,3 C 16,1 km/h (3 Bft) 95,74 %
11.01.2019 07:44 -2,9 C 3,3 C -3,3 C 91 % 1024,3 hPa 0,0 l/m 11,0 km/h (2 Bft) W 265 0 min 0,000 mm 0,0 UV-I 5 W/m -4,2 C -7,5 C 16,1 km/h (3 Bft) 97,87 %
11.01.2019 07:46 -2,9 C 3,3 C -3,3 C 91 % 1024,3 hPa 0,0 l/m 10,6 km/h (2 Bft) W 271 0 min 0,000 mm 0,0 UV-I 5 W/m -4,2 C -7,2 C 14,5 km/h (3 Bft) 97,87 %
11.01.2019 07:48 -2,9 C 3,3 C -3,3 C 91 % 1024,4 hPa 0,0 l/m 10,0 km/h (2 Bft) SW 219 0 min 0,000 mm 0,0 UV-I 5 W/m -4,2 C -6,7 C 16,1 km/h (3 Bft) 93,62 %
11.01.2019 07:50 -2,9 C 3,3 C -3,3 C 91 % 1024,5 hPa 0,0 l/m 8,1 km/h (2 Bft) W 268 0 min 0,000 mm 0,0 UV-I 5 W/m -4,2 C -4,8 C 12,9 km/h (3 Bft) 97,87 %
11.01.2019 07:52 -2,9 C 3,3 C -3,3 C 91 % 1024,4 hPa 0,0 l/m 12,4 km/h (3 Bft) W-SW 250 0 min 0,000 mm 0,0 UV-I 5 W/m -4,2 C -8,7 C 19,3 km/h (3 Bft) 93,62 %
11.01.2019 07:54 -2,9 C 3,3 C -3,3 C 90 % 1024,4 hPa 0,0 l/m 10,5 km/h (2 Bft) W-SW 252 0 min 0,000 mm 0,0 UV-I 5 W/m -4,3 C -7,1 C 16,1 km/h (3 Bft) 95,74 %
11.01.2019 07:56 -2,8 C 3,3 C -3,3 C 90 % 1024,4 hPa 0,0 l/m 10,7 km/h (2 Bft) W-NW 290 0 min 0,000 mm 0,0 UV-I 5 W/m -4,2 C -7,2 C 14,5 km/h (3 Bft) 95,74 %
11.01.2019 07:58 -2,8 C 3,3 C -3,3 C 90 % 1024,5 hPa 0,0 l/m 10,0 km/h (2 Bft) W 266 0 min 0,000 mm 0,0 UV-I 6 W/m -4,2 C -6,5 C 16,1 km/h (3 Bft) 97,37 %
11.01.2019 08:00 -2,8 C 3,3 C -3,3 C 90 % 1024,5 hPa 0,0 l/m 9,2 km/h (2 Bft) W 278 0 min 0,000 mm 0,0 UV-I 7 W/m -4,2 C -5,8 C 16,1 km/h (3 Bft) 97,87 %
11.01.2019 08:02 -2,8 C 3,3 C -3,3 C 90 % 1024,5 hPa 0,0 l/m 11,1 km/h (2 Bft) W 270 0 min 0,000 mm 0,0 UV-I 7 W/m -4,2 C -7,5 C 16,1 km/h (3 Bft) 97,92 %
11.01.2019 08:04 -2,8 C 3,3 C -3,3 C 90 % 1024,6 hPa 0,0 l/m 14,1 km/h (3 Bft) W 263 2 min 0,000 mm 0,0 UV-I 9 W/m -4,2 C -9,8 C 17,7 km/h (3 Bft) 95,74 %
11.01.2019 08:06 -2,8 C 3,3 C -3,3 C 90 % 1024,6 hPa 0,0 l/m 9,7 km/h (2 Bft) W 262 0 min 0,000 mm 0,0 UV-I 10 W/m -4,2 C -6,3 C 14,5 km/h (3 Bft) 100,00 %
11.01.2019 08:08 -2,8 C 3,3 C -3,3 C 90 % 1024,6 hPa 0,0 l/m 8,8 km/h (2 Bft) W 265 0 min 0,000 mm 0,0 UV-I 11 W/m -4,2 C -5,4 C 12,9 km/h (3 Bft) 100,00 %
11.01.2019 08:10 -2,8 C 3,3 C -3,3 C 90 % 1024,6 hPa 0,0 l/m 12,7 km/h (3 Bft) W-SW 258 0 min 0,000 mm 0,0 UV-I 12 W/m -4,2 C -8,8 C 17,7 km/h (3 Bft) 96,15 %
11.01.2019 08:12 -2,8 C 3,3 C -3,3 C 90 % 1024,7 hPa 0,0 l/m 9,0 km/h (2 Bft) W-SW 256 0 min 0,000 mm 0,0 UV-I 13 W/m -4,2 C -5,6 C 16,1 km/h (3 Bft) 100,00 %
11.01.2019 08:14 -2,8 C 3,3 C -3,3 C 90 % 1024,7 hPa 0,0 l/m 11,3 km/h (2 Bft) W 275 0 min 0,000 mm 0,0 UV-I 14 W/m -4,2 C -7,7 C 16,1 km/h (3 Bft) 95,74 %
11.01.2019 08:16 -2,8 C 3,3 C -3,3 C 90 % 1024,7 hPa 0,0 l/m 8,6 km/h (2 Bft) W 261 0 min 0,000 mm 0,0 UV-I 16 W/m -4,2 C -5,2 C 14,5 km/h (3 Bft) 98,00 %
11.01.2019 08:18 -2,9 C 3,3 C -3,3 C 90 % 1024,7 hPa 0,0 l/m 8,3 km/h (2 Bft) W 276 0 min 0,000 mm 0,0 UV-I 18 W/m -4,3 C -5,0 C 12,9 km/h (3 Bft) 97,37 %
11.01.2019 08:20 -2,9 C 3,3 C -3,3 C 90 % 1024,7 hPa 0,0 l/m 8,7 km/h (2 Bft) W-SW 238 0 min 0,000 mm 0,0 UV-I 19 W/m -4,3 C -5,4 C 12,9 km/h (3 Bft) 95,92 %
11.01.2019 08:22 -2,9 C 3,3 C -3,3 C 90 % 1024,7 hPa 0,0 l/m 12,1 km/h (2 Bft) W 265 0 min 0,000 mm 0,0 UV-I 21 W/m -4,3 C -8,4 C 16,1 km/h (3 Bft) 93,62 %
11.01.2019 08:24 -2,9 C 3,3 C -3,3 C 90 % 1024,7 hPa 0,0 l/m 10,5 km/h (2 Bft) W 259 0 min 0,000 mm 0,0 UV-I 23 W/m -4,3 C -7,1 C 12,9 km/h (3 Bft) 95,74 %
11.01.2019 08:26 -2,9 C 3,3 C -3,3 C 90 % 1024,8 hPa 0,0 l/m 7,8 km/h (2 Bft) W 269 0 min 0,000 mm 0,0 UV-I 25 W/m -4,3 C -4,5 C 12,9 km/h (3 Bft) 97,87 %
11.01.2019 08:28 -2,9 C 3,3 C -3,3 C 90 % 1024,7 hPa 0,0 l/m 14,3 km/h (3 Bft) W 270 0 min 0,000 mm 0,0 UV-I 26 W/m -4,3 C -10,0 C 20,9 km/h (4 Bft) 96,00 %
11.01.2019 08:30 -2,9 C 3,3 C -3,3 C 90 % 1024,7 hPa 0,0 l/m 9,9 km/h (2 Bft) W-SW 257 0 min 0,000 mm 0,0 UV-I 27 W/m -4,3 C -6,6 C 12,9 km/h (3 Bft) 97,50 %
11.01.2019 08:32 -2,9 C 3,3 C -3,3 C 90 % 1024,8 hPa 0,0 l/m 9,9 km/h (2 Bft) W 267 0 min 0,000 mm 0,0 UV-I 29 W/m -4,3 C -6,6 C 17,7 km/h (3 Bft) 95,74 %
11.01.2019 08:34 -2,9 C 3,3 C -3,3 C 90 % 1024,8 hPa 0,0 l/m 7,7 km/h (2 Bft) W-SW 253 0 min 0,000 mm 0,0 UV-I 32 W/m -4,3 C -4,4 C 12,9 km/h (3 Bft) 95,74 %
11.01.2019 08:36 -2,9 C 3,3 C -3,3 C 90 % 1024,8 hPa 0,0 l/m 9,7 km/h (2 Bft) W-NW 292 0 min 0,000 mm 0,0 UV-I 33 W/m -4,3 C -6,4 C 12,9 km/h (3 Bft) 100,00 %
11.01.2019 08:38 -2,9 C 3,3 C -3,3 C 90 % 1024,8 hPa 0,0 l/m 7,9 km/h (2 Bft) W-SW 254 0 min 0,000 mm 0,0 UV-I 36 W/m -4,3 C -4,6 C 14,5 km/h (3 Bft) 97,73 %
11.01.2019 08:40 -2,9 C 3,3 C -3,3 C 90 % 1024,8 hPa 0,0 l/m 8,9 km/h (2 Bft) W-NW 286 0 min 0,000 mm 0,0 UV-I 36 W/m -4,3 C -5,6 C 12,9 km/h (3 Bft) 94,00 %
11.01.2019 08:42 -2,9 C 3,3 C -3,3 C 89 % 1024,9 hPa 0,0 l/m 10,5 km/h (2 Bft) W 271 0 min 0,000 mm 0,0 UV-I 37 W/m -4,5 C -7,1 C 20,9 km/h (4 Bft) 100,00 %
11.01.2019 08:44 -2,8 C 3,3 C -3,3 C 89 % 1024,8 hPa 0,0 l/m 8,6 km/h (2 Bft) W-SW 256 0 min 0,000 mm 0,0 UV-I 39 W/m -4,4 C -5,2 C 14,5 km/h (3 Bft) 98,36 %
11.01.2019 08:46 -2,8 C 3,3 C -3,3 C 89 % 1024,8 hPa 0,0 l/m 12,3 km/h (3 Bft) W 277 0 min 0,000 mm 0,0 UV-I 39 W/m -4,4 C -8,5 C 19,3 km/h (3 Bft) 100,00 %
11.01.2019 08:48 -2,9 C 3,3 C -2,8 C 89 % 1024,9 hPa 0,0 l/m 12,0 km/h (2 Bft) W-SW 254 0 min 0,000 mm 0,0 UV-I 38 W/m -4,5 C -8,3 C 16,1 km/h (3 Bft) 100,00 %
11.01.2019 08:50 -2,9 C 3,3 C -2,8 C 89 % 1024,9 hPa 0,0 l/m 12,6 km/h (3 Bft) W-NW 284 0 min 0,000 mm 0,0 UV-I 35 W/m -4,5 C -8,8 C 17,7 km/h (3 Bft) 95,74 %
11.01.2019 08:52 -2,9 C 3,3 C -2,8 C 90 % 1024,8 hPa 0,0 l/m 9,6 km/h (2 Bft) W 263 0 min 0,000 mm 0,0 UV-I 33 W/m -4,3 C -6,3 C 16,1 km/h (3 Bft) 100,00 %
11.01.2019 08:54 -2,9 C 3,3 C -2,8 C 89 % 1024,8 hPa 0,0 l/m 14,6 km/h (3 Bft) W 274 0 min 0,000 mm 0,0 UV-I 35 W/m -4,5 C -10,2 C 17,7 km/h (3 Bft) 98,00 %
11.01.2019 08:56 -2,9 C 3,3 C -2,8 C 90 % 1024,8 hPa 0,0 l/m 12,7 km/h (3 Bft) W 271 0 min 0,000 mm 0,0 UV-I 42 W/m -4,3 C -8,9 C 17,7 km/h (3 Bft) 97,87 %
11.01.2019 08:58 -2,9 C 3,3 C -2,8 C 90 % 1024,8 hPa 0,0 l/m 9,3 km/h (2 Bft) W 263 0 min 0,000 mm 0,0 UV-I 46 W/m -4,3 C -6,0 C 16,1 km/h (3 Bft) 100,00 %
11.01.2019 09:00 -3,0 C 3,3 C -3,3 C 90 % 1024,8 hPa 0,0 l/m 12,9 km/h (3 Bft) W 259 0 min 0,025 mm 0,0 UV-I 51 W/m -4,4 C -9,1 C 19,3 km/h (3 Bft) 100,00 %
11.01.2019 09:02 -3,0 C 3,3 C -3,3 C 90 % 1024,9 hPa 0,0 l/m 13,0 km/h (3 Bft) W 270 0 min 0,000 mm 0,0 UV-I 57 W/m -4,4 C -9,2 C 17,7 km/h (3 Bft) 97,14 %
11.01.2019 09:04 -3,1 C 3,3 C -3,3 C 90 % 1024,9 hPa 0,0 l/m 13,3 km/h (3 Bft) W 259 0 min 0,000 mm 0,0 UV-I 62 W/m -4,5 C -9,6 C 16,1 km/h (3 Bft) 100,00 %
11.01.2019 09:06 -3,1 C 3,3 C -3,3 C 91 % 1024,9 hPa 0,0 l/m 9,8 km/h (2 Bft) W 271 0 min 0,000 mm 0,0 UV-I 65 W/m -4,4 C -6,7 C 14,5 km/h (3 Bft) 97,87 %
11.01.2019 09:08 -3,1 C 3,3 C -3,3 C 91 % 1024,8 hPa 0,0 l/m 11,9 km/h (2 Bft) W 262 0 min 0,000 mm 0,0 UV-I 65 W/m -4,4 C -8,5 C 16,1 km/h (3 Bft) 95,74 %
11.01.2019 09:10 -3,2 C 3,3 C -3,3 C 91 % 1024,8 hPa 0,0 l/m 11,9 km/h (2 Bft) W 271 0 min 0,000 mm 0,0 UV-I 67 W/m -4,5 C -8,6 C 19,3 km/h (3 Bft) 100,00 %
11.01.2019 09:12 -3,2 C 3,3 C -3,3 C 91 % 1024,8 hPa 0,0 l/m 10,5 km/h (2 Bft) W-SW 250 0 min 0,000 mm 0,0 UV-I 74 W/m -4,5 C -7,4 C 14,5 km/h (3 Bft) 97,87 %
11.01.2019 09:14 -3,2 C 3,3 C -3,3 C 91 % 1024,8 hPa 0,0 l/m 10,7 km/h (2 Bft) SW 226 0 min 0,000 mm 0,0 UV-I 80 W/m -4,5 C -7,6 C 14,5 km/h (3 Bft) 100,00 %
11.01.2019 09:16 -3,1 C 3,3 C -2,8 C 91 % 1024,9 hPa 0,0 l/m 10,0 km/h (2 Bft) W-SW 244 0 min 0,000 mm 0,0 UV-I 76 W/m -4,4 C -6,9 C 17,7 km/h (3 Bft) 100,00 %
11.01.2019 09:18 -3,1 C 3,3 C -2,8 C 91 % 1024,9 hPa 0,0 l/m 13,5 km/h (3 Bft) W-SW 246 0 min 0,000 mm 0,0 UV-I 73 W/m -4,4 C -9,7 C 19,3 km/h (3 Bft) 100,00 %
11.01.2019 09:20 -3,1 C 3,3 C -2,8 C 91 % 1024,9 hPa 0,0 l/m 9,0 km/h (2 Bft) S-SW 213 0 min 0,000 mm 0,0 UV-I 76 W/m -4,4 C -5,9 C 12,9 km/h (3 Bft) 100,00 %
11.01.2019 09:22 -3,1 C 3,3 C -2,8 C 91 % 1024,9 hPa 0,0 l/m 11,7 km/h (2 Bft) W 263 0 min 0,000 mm 0,0 UV-I 81 W/m -4,4 C -8,3 C 19,3 km/h (3 Bft) 100,00 %
11.01.2019 09:24 -3,0 C 3,3 C -2,8 C 91 % 1024,9 hPa 0,0 l/m 11,5 km/h (2 Bft) W-SW 240 0 min 0,000 mm 0,0 UV-I 91 W/m -4,3 C -8,1 C 17,7 km/h (3 Bft) 100,00 %
11.01.2019 09:26 -3,0 C 3,3 C -2,2 C 91 % 1024,9 hPa 0,0 l/m 9,5 km/h (2 Bft) W 273 0 min 0,000 mm 0,0 UV-I 98 W/m -4,3 C -6,3 C 16,1 km/h (3 Bft) 97,87 %
11.01.2019 09:28 -2,9 C 3,3 C -2,2 C 91 % 1024,9 hPa 0,0 l/m 12,0 km/h (2 Bft) W-SW 242 0 min 0,000 mm 0,0 UV-I 106 W/m -4,2 C -8,3 C 14,5 km/h (3 Bft) 96,00 %
11.01.2019 09:30 -2,9 C 3,3 C -2,2 C 90 % 1024,9 hPa 0,0 l/m 13,5 km/h (3 Bft) W 271 0 min 0,000 mm 0,0 UV-I 106 W/m -4,3 C -9,5 C 20,9 km/h (4 Bft) 94,74 %
11.01.2019 09:32 -2,9 C 3,3 C -2,2 C 90 % 1024,9 hPa 0,0 l/m 10,7 km/h (2 Bft) W-SW 257 0 min 0,000 mm 0,0 UV-I 109 W/m -4,3 C -7,3 C 20,9 km/h (4 Bft) 92,45 %
11.01.2019 09:34 -2,8 C 3,3 C -2,2 C 90 % 1024,9 hPa 0,0 l/m 10,6 km/h (2 Bft) W-SW 257 0 min 0,000 mm 0,0 UV-I 113 W/m -4,2 C -7,1 C 22,5 km/h (4 Bft) 97,87 %
11.01.2019 09:36 -2,8 C 3,3 C -2,2 C 90 % 1025,0 hPa 0,0 l/m 13,3 km/h (3 Bft) W 267 2 min 0,000 mm 0,0 UV-I 127 W/m -4,2 C -9,2 C 22,5 km/h (4 Bft) 97,87 %
11.01.2019 09:38 -2,8 C 3,3 C -2,2 C 89 % 1025,0 hPa 0,0 l/m 10,0 km/h (2 Bft) SW 234 2 min 0,000 mm 0,0 UV-I 143 W/m -4,4 C -6,5 C 19,3 km/h (3 Bft) 95,74 %
11.01.2019 09:40 -2,8 C 3,3 C -2,2 C 89 % 1025,0 hPa 0,0 l/m 13,4 km/h (3 Bft) W-SW 258 2 min 0,000 mm 0,0 UV-I 131 W/m -4,4 C -9,3 C 20,9 km/h (4 Bft) 91,43 %
11.01.2019 09:42 -2,7 C 3,3 C -2,2 C 89 % 1025,0 hPa 0,0 l/m 15,4 km/h (3 Bft) W-NW 284 2 min 0,000 mm 0,0 UV-I 139 W/m -4,3 C -10,5 C 22,5 km/h (4 Bft) 94,34 %
11.01.2019 09:44 -2,7 C 3,3 C -2,2 C 89 % 1024,9 hPa 0,0 l/m 12,3 km/h (3 Bft) W 274 2 min 0,000 mm 0,0 UV-I 141 W/m -4,3 C -8,3 C 16,1 km/h (3 Bft) 96,00 %
11.01.2019 09:46 -2,7 C 3,3 C -2,2 C 89 % 1024,9 hPa 0,0 l/m 14,7 km/h (3 Bft) W-NW 289 2 min 0,000 mm 0,0 UV-I 154 W/m -4,3 C -10,1 C 22,5 km/h (4 Bft) 95,74 %
11.01.2019 09:48 -2,7 C 3,3 C -1,7 C 88 % 1025,0 hPa 0,0 l/m 14,0 km/h (3 Bft) W 272 2 min 0,000 mm 0,0 UV-I 190 W/m -4,4 C -9,6 C 22,5 km/h (4 Bft) 96,00 %
11.01.2019 09:50 -2,6 C 3,3 C -1,7 C 88 % 1025,0 hPa 0,0 l/m 16,2 km/h (3 Bft) W 269 2 min 0,000 mm 0,0 UV-I 186 W/m -4,3 C -10,9 C 22,5 km/h (4 Bft) 96,00 %
11.01.2019 09:52 -2,6 C 3,3 C -1,7 C 88 % 1025,0 hPa 0,0 l/m 14,9 km/h (3 Bft) W 260 2 min 0,000 mm 0,0 UV-I 199 W/m -4,3 C -10,1 C 19,3 km/h (3 Bft) 97,87 %
11.01.2019 09:54 -2,6 C 3,3 C -1,7 C 88 % 1025,0 hPa 0,0 l/m 15,4 km/h (3 Bft) SW 229 2 min 0,000 mm 0,0 UV-I 181 W/m -4,3 C -10,4 C 24,1 km/h (4 Bft) 97,37 %
11.01.2019 09:56 -2,5 C 3,3 C -1,7 C 88 % 1025,0 hPa 0,0 l/m 12,6 km/h (3 Bft) W 277 2 min 0,000 mm 0,0 UV-I 167 W/m -4,2 C -8,3 C 19,3 km/h (3 Bft) 97,87 %
11.01.2019 09:58 -2,5 C 3,3 C -1,7 C 88 % 1025,0 hPa 0,0 l/m 12,3 km/h (3 Bft) W 264 2 min 0,000 mm 0,0 UV-I 165 W/m -4,2 C -8,1 C 22,5 km/h (4 Bft) 98,11 %
11.01.2019 10:00 -2,5 C 3,3 C -1,7 C 87 % 1025,1 hPa 0,0 l/m 15,3 km/h (3 Bft) W-SW 254 2 min 0,051 mm 0,0 UV-I 160 W/m -4,4 C -10,2 C 20,9 km/h (4 Bft) 97,87 %
11.01.2019 10:02 -2,5 C 3,3 C -1,7 C 87 % 1025,1 hPa 0,0 l/m 13,4 km/h (3 Bft) W 278 2 min 0,000 mm 0,0 UV-I 155 W/m -4,4 C -8,9 C 19,3 km/h (3 Bft) 94,44 %
11.01.2019 10:04 -2,5 C 3,3 C -1,7 C 87 % 1025,0 hPa 0,0 l/m 16,7 km/h (3 Bft) W 259 2 min 0,000 mm 0,0 UV-I 142 W/m -4,4 C -11,1 C 24,1 km/h (4 Bft) 98,00 %
11.01.2019 10:06 -2,5 C 3,3 C -1,7 C 87 % 1025,0 hPa 0,0 l/m 16,0 km/h (3 Bft) W-SW 249 0 min 0,000 mm 0,0 UV-I 142 W/m -4,4 C -10,6 C 22,5 km/h (4 Bft) 96,00 %
11.01.2019 10:08 -2,5 C 3,3 C -1,7 C 87 % 1025,1 hPa 0,0 l/m 15,7 km/h (3 Bft) W 259 0 min 0,000 mm 0,0 UV-I 143 W/m -4,4 C -10,5 C 20,9 km/h (4 Bft) 95,74 %
11.01.2019 10:10 -2,5 C 3,3 C -1,7 C 87 % 1025,1 hPa 0,0 l/m 15,5 km/h (3 Bft) W-SW 242 0 min 0,000 mm 0,0 UV-I 136 W/m -4,4 C -10,3 C 20,9 km/h (4 Bft) 96,00 %
11.01.2019 10:12 -2,6 C 3,3 C -1,7 C 87 % 1025,0 hPa 0,0 l/m 16,0 km/h (3 Bft) SW 214 0 min 0,000 mm 0,0 UV-I 136 W/m -4,5 C -10,8 C 22,5 km/h (4 Bft) 100,00 %
11.01.2019 10:14 -2,6 C 3,3 C -1,7 C 87 % 1025,1 hPa 0,0 l/m 13,0 km/h (3 Bft) W 280 0 min 0,000 mm 0,0 UV-I 141 W/m -4,5 C -8,8 C 20,9 km/h (4 Bft) 95,74 %
11.01.2019 10:16 -2,5 C 3,3 C -1,7 C 87 % 1025,1 hPa 0,0 l/m 15,9 km/h (3 Bft) SW 215 2 min 0,000 mm 0,0 UV-I 151 W/m -4,4 C -10,6 C 25,7 km/h (4 Bft) 100,00 %
11.01.2019 10:18 -2,6 C 3,3 C -1,7 C 87 % 1025,1 hPa 0,0 l/m 16,8 km/h (3 Bft) W 281 2 min 0,000 mm 0,0 UV-I 161 W/m -4,5 C -11,2 C 25,7 km/h (4 Bft) 100,00 %
11.01.2019 10:20 -2,5 C 3,3 C -1,7 C 87 % 1025,1 hPa 0,0 l/m 11,9 km/h (2 Bft) W-NW 282 2 min 0,000 mm 0,0 UV-I 166 W/m -4,4 C -7,8 C 19,3 km/h (3 Bft) 100,00 %
11.01.2019 10:22 -2,4 C 3,3 C -1,7 C 87 % 1025,1 hPa 0,0 l/m 12,5 km/h (3 Bft) W 259 2 min 0,000 mm 0,0 UV-I 166 W/m -4,3 C -8,1 C 22,5 km/h (4 Bft) 97,37 %
11.01.2019 10:24 -2,4 C 3,3 C -1,7 C 87 % 1025,1 hPa 0,0 l/m 13,8 km/h (3 Bft) W 269 2 min 0,000 mm 0,0 UV-I 170 W/m -4,3 C -9,1 C 20,9 km/h (4 Bft) 100,00 %
11.01.2019 10:26 -2,4 C 3,3 C -1,7 C 87 % 1025,1 hPa 0,0 l/m 18,2 km/h (3 Bft) W 265 2 min 0,000 mm 0,0 UV-I 184 W/m -4,3 C -11,8 C 25,7 km/h (4 Bft) 100,00 %
11.01.2019 10:28 -2,4 C 3,3 C -1,7 C 87 % 1025,1 hPa 0,0 l/m 15,6 km/h (3 Bft) W 270 2 min 0,000 mm 0,0 UV-I 188 W/m -4,3 C -10,3 C 25,7 km/h (4 Bft) 100,00 %
11.01.2019 10:30 -2,4 C 3,3 C -1,7 C 87 % 1025,1 hPa 0,0 l/m 16,6 km/h (3 Bft) W-SW 248 2 min 0,000 mm 0,0 UV-I 235 W/m -4,3 C -10,9 C 24,1 km/h (4 Bft) 100,00 %
11.01.2019 10:32 -2,3 C 3,9 C -1,1 C 86 % 1025,1 hPa 0,0 l/m 13,7 km/h (3 Bft) W 279 2 min 0,000 mm 0,0 UV-I 346 W/m -4,3 C -8,9 C 22,5 km/h (4 Bft) 97,87 %
11.01.2019 10:34 -2,3 C 3,9 C -1,1 C 86 % 1025,1 hPa 0,0 l/m 13,6 km/h (3 Bft) W 262 2 min 0,000 mm 0,0 UV-I 284 W/m -4,3 C -8,8 C 20,9 km/h (4 Bft) 100,00 %
11.01.2019 10:36 -2,2 C 3,9 C -1,1 C 86 % 1025,1 hPa 0,0 l/m 12,9 km/h (3 Bft) W 276 2 min 0,000 mm 0,0 UV-I 231 W/m -4,2 C -8,2 C 20,9 km/h (4 Bft) 100,00 %
11.01.2019 10:38 -2,2 C 3,9 C -1,7 C 86 % 1025,1 hPa 0,0 l/m 11,7 km/h (2 Bft) W-SW 250 2 min 0,000 mm 0,0 UV-I 292 W/m -4,2 C -7,3 C 17,7 km/h (3 Bft) 100,00 %
11.01.2019 10:40 -2,1 C 3,3 C -1,7 C 86 % 1025,1 hPa 0,0 l/m 12,7 km/h (3 Bft) W 266 2 min 0,000 mm 0,0 UV-I 325 W/m -4,1 C -7,9 C 19,3 km/h (3 Bft) 95,83 %
11.01.2019 10:42 -2,0 C 3,3 C -1,7 C 85 % 1025,1 hPa 0,0 l/m 16,5 km/h (3 Bft) W-SW 256 2 min 0,000 mm 0,0 UV-I 309 W/m -4,2 C -10,3 C 22,5 km/h (4 Bft) 95,92 %
11.01.2019 10:44 -1,9 C 3,9 C -1,1 C 85 % 1025,1 hPa 0,0 l/m 15,5 km/h (3 Bft) W-SW 244 2 min 0,000 mm 0,0 UV-I 342 W/m -4,1 C -9,6 C 20,9 km/h (4 Bft) 95,83 %
11.01.2019 10:46 -1,9 C 3,9 C -1,1 C 84 % 1025,1 hPa 0,0 l/m 15,0 km/h (3 Bft) W-SW 240 2 min 0,000 mm 0,5 UV-I 336 W/m -4,2 C -9,3 C 20,9 km/h (4 Bft) 97,87 %
11.01.2019 10:48 -1,8 C 3,9 C -1,1 C 84 % 1025,1 hPa 0,0 l/m 14,3 km/h (3 Bft) W 276 2 min 0,000 mm 0,2 UV-I 321 W/m -4,1 C -8,7 C 20,9 km/h (4 Bft) 93,62 %
11.01.2019 10:50 -1,8 C 3,9 C -1,1 C 83 % 1025,1 hPa 0,0 l/m 13,1 km/h (3 Bft) W-NW 284 2 min 0,000 mm 0,4 UV-I 293 W/m -4,3 C -7,9 C 17,7 km/h (3 Bft) 97,37 %
11.01.2019 10:52 -1,8 C 3,9 C -1,1 C 83 % 1025,1 hPa 0,0 l/m 17,1 km/h (3 Bft) W 273 2 min 0,000 mm 0,5 UV-I 276 W/m -4,3 C -10,4 C 22,5 km/h (4 Bft) 97,87 %
11.01.2019 10:54 -1,8 C 3,9 C -1,1 C 82 % 1025,0 hPa 0,0 l/m 12,2 km/h (2 Bft) W 263 2 min 0,000 mm 0,3 UV-I 264 W/m -4,5 C -7,2 C 19,3 km/h (3 Bft) 97,87 %
11.01.2019 10:56 -1,8 C 3,9 C -1,1 C 82 % 1025,0 hPa 0,0 l/m 16,7 km/h (3 Bft) W 275 2 min 0,000 mm 0,3 UV-I 286 W/m -4,5 C -10,2 C 25,7 km/h (4 Bft) 97,87 %
11.01.2019 10:58 -1,8 C 3,3 C -1,1 C 82 % 1025,0 hPa 0,0 l/m 15,5 km/h (3 Bft) W 267 2 min 0,000 mm 0,5 UV-I 219 W/m -4,5 C -9,5 C 22,5 km/h (4 Bft) 97,87 %
11.01.2019 11:00 -1,8 C 3,3 C -1,1 C 81 % 1025,0 hPa 0,0 l/m 14,3 km/h (3 Bft) W 263 2 min 0,076 mm 0,1 UV-I 193 W/m -4,6 C -8,7 C 20,9 km/h (4 Bft) 97,87 %
11.01.2019 11:02 -1,9 C 3,3 C -1,1 C 81 % 1025,0 hPa 0,0 l/m 12,4 km/h (3 Bft) W-SW 238 2 min 0,000 mm 0,4 UV-I 195 W/m -4,7 C -7,5 C 17,7 km/h (3 Bft) 100,00 %
11.01.2019 11:04 -1,9 C 3,3 C -1,1 C 82 % 1025,0 hPa 0,0 l/m 11,8 km/h (2 Bft) W 267 2 min 0,000 mm 0,4 UV-I 231 W/m -4,6 C -7,0 C 17,7 km/h (3 Bft) 100,00 %
11.01.2019 11:06 -1,9 C 3,9 C -1,1 C 81 % 1025,0 hPa 0,0 l/m 15,2 km/h (3 Bft) W 265 2 min 0,000 mm 0,4 UV-I 215 W/m -4,7 C -9,4 C 24,1 km/h (4 Bft) 100,00 %
11.01.2019 11:08 -1,9 C 3,3 C -1,1 C 80 % 1025,0 hPa 0,0 l/m 15,2 km/h (3 Bft) S-SW 213 2 min 0,000 mm 0,3 UV-I 198 W/m -4,9 C -9,4 C 19,3 km/h (3 Bft) 97,87 %
11.01.2019 11:10 -1,9 C 3,9 C -1,1 C 80 % 1025,0 hPa 0,0 l/m 13,1 km/h (3 Bft) W 278 2 min 0,000 mm 0,2 UV-I 203 W/m -4,9 C -8,0 C 20,9 km/h (4 Bft) 97,87 %
11.01.2019 11:12 -1,9 C 3,9 C -1,1 C 80 % 1024,9 hPa 0,0 l/m 14,7 km/h (3 Bft) W-SW 240 2 min 0,000 mm 0,0 UV-I 218 W/m -4,9 C -9,1 C 22,5 km/h (4 Bft) 100,00 %
11.01.2019 11:14 -1,9 C 3,9 C -1,1 C 79 % 1025,0 hPa 0,0 l/m 19,3 km/h (3 Bft) W 267 2 min 0,000 mm 0,0 UV-I 225 W/m -5,0 C -11,7 C 29,0 km/h (5 Bft) 97,87 %
11.01.2019 11:16 -1,9 C 3,9 C -1,1 C 79 % 1025,0 hPa 0,0 l/m 14,9 km/h (3 Bft) W 274 2 min 0,000 mm 0,0 UV-I 205 W/m -5,0 C -9,2 C 25,7 km/h (4 Bft) 97,87 %
11.01.2019 11:18 -1,9 C 3,9 C -1,1 C 79 % 1025,0 hPa 0,0 l/m 20,6 km/h (4 Bft) W-SW 250 2 min 0,000 mm 0,0 UV-I 218 W/m -5,0 C -12,4 C 30,6 km/h (5 Bft) 93,62 %
11.01.2019 11:20 -1,9 C 3,3 C -1,1 C 79 % 1025,0 hPa 0,0 l/m 16,1 km/h (3 Bft) W-SW 257 2 min 0,000 mm 0,0 UV-I 216 W/m -5,0 C -10,0 C 33,8 km/h (5 Bft) 95,74 %
11.01.2019 11:22 -1,9 C 3,3 C -1,1 C 79 % 1025,0 hPa 0,0 l/m 16,8 km/h (3 Bft) W 275 2 min 0,000 mm 0,0 UV-I 190 W/m -5,0 C -10,4 C 25,7 km/h (4 Bft) 93,75 %
11.01.2019 11:24 -2,0 C 3,3 C -1,1 C 79 % 1024,9 hPa 0,0 l/m 16,6 km/h (3 Bft) W-SW 253 2 min 0,000 mm 0,2 UV-I 199 W/m -5,1 C -10,4 C 29,0 km/h (5 Bft) 97,87 %
11.01.2019 11:26 -2,0 C 3,3 C -1,1 C 78 % 1025,0 hPa 0,0 l/m 14,8 km/h (3 Bft) NW 306 2 min 0,000 mm 0,5 UV-I 222 W/m -5,3 C -9,3 C 24,1 km/h (4 Bft) 97,87 %
11.01.2019 11:28 -2,0 C 3,3 C -1,1 C 78 % 1024,9 hPa 0,0 l/m 19,1 km/h (3 Bft) W-SW 242 2 min 0,000 mm 0,5 UV-I 230 W/m -5,3 C -11,8 C 33,8 km/h (5 Bft) 93,62 %
11.01.2019 11:30 -2,0 C 3,9 C -1,1 C 78 % 1025,0 hPa 0,0 l/m 18,3 km/h (3 Bft) W-SW 253 2 min 0,000 mm 0,5 UV-I 215 W/m -5,3 C -11,3 C 27,4 km/h (4 Bft) 97,56 %
11.01.2019 11:32 -2,0 C 3,9 C -1,1 C 78 % 1024,9 hPa 0,0 l/m 16,1 km/h (3 Bft) W 270 2 min 0,000 mm 0,5 UV-I 206 W/m -5,3 C -10,1 C 22,5 km/h (4 Bft) 100,00 %
11.01.2019 11:34 -2,0 C 3,9 C -1,1 C 78 % 1024,9 hPa 0,0 l/m 16,4 km/h (3 Bft) W-NW 286 2 min 0,000 mm 0,5 UV-I 196 W/m -5,3 C -10,3 C 22,5 km/h (4 Bft) 97,87 %
11.01.2019 11:36 -2,1 C 3,9 C -1,1 C 78 % 1024,9 hPa 0,0 l/m 14,2 km/h (3 Bft) SW 235 2 min 0,000 mm 0,5 UV-I 192 W/m -5,4 C -9,0 C 22,5 km/h (4 Bft) 94,00 %
11.01.2019 11:38 -2,0 C 3,9 C -1,1 C 78 % 1024,9 hPa 0,0 l/m 11,0 km/h (2 Bft) W 269 2 min 0,000 mm 0,5 UV-I 190 W/m -5,3 C -6,5 C 16,1 km/h (3 Bft) 96,00 %
11.01.2019 11:40 -2,0 C 3,9 C -1,1 C 79 % 1024,9 hPa 0,0 l/m 13,2 km/h (3 Bft) W 267 2 min 0,000 mm 0,5 UV-I 197 W/m -5,1 C -8,2 C 20,9 km/h (4 Bft) 92,11 %
11.01.2019 11:42 -2,0 C 3,9 C -1,1 C 78 % 1024,9 hPa 0,0 l/m 15,3 km/h (3 Bft) W-NW 294 2 min 0,000 mm 0,5 UV-I 216 W/m -5,3 C -9,6 C 22,5 km/h (4 Bft) 95,74 %
11.01.2019 11:44 -1,9 C 3,9 C -0,6 C 79 % 1024,8 hPa 0,0 l/m 10,9 km/h (2 Bft) W-SW 248 2 min 0,000 mm 0,5 UV-I 225 W/m -5,0 C -6,3 C 19,3 km/h (3 Bft) 93,62 %
11.01.2019 11:46 -1,9 C 3,9 C -0,6 C 78 % 1024,8 hPa 0,0 l/m 14,5 km/h (3 Bft) NW 316 2 min 0,000 mm 0,5 UV-I 240 W/m -5,2 C -9,0 C 24,1 km/h (4 Bft) 96,00 %
11.01.2019 11:48 -1,8 C 3,9 C -0,6 C 79 % 1024,8 hPa 0,0 l/m 11,4 km/h (2 Bft) W 275 2 min 0,000 mm 0,5 UV-I 242 W/m -4,9 C -6,6 C 16,1 km/h (3 Bft) 96,00 %
11.01.2019 11:50 -1,7 C 3,9 C 0,0 C 79 % 1024,8 hPa 0,0 l/m 13,9 km/h (3 Bft) W-NW 286 2 min 0,000 mm 0,6 UV-I 441 W/m -4,8 C -8,3 C 25,7 km/h (4 Bft) 91,67 %
11.01.2019 11:52 -1,7 C 3,9 C 0,0 C 77 % 1024,8 hPa 0,0 l/m 14,3 km/h (3 Bft) W 266 2 min 0,000 mm 0,5 UV-I 296 W/m -5,2 C -8,6 C 24,1 km/h (4 Bft) 95,16 %
11.01.2019 11:54 -1,7 C 3,9 C 0,0 C 78 % 1024,8 hPa 0,0 l/m 12,4 km/h (3 Bft) W-SW 242 2 min 0,000 mm 0,6 UV-I 261 W/m -5,0 C -7,3 C 20,9 km/h (4 Bft) 89,36 %
11.01.2019 11:56 -1,7 C 3,9 C -0,6 C 77 % 1024,8 hPa 0,0 l/m 13,2 km/h (3 Bft) W 263 2 min 0,000 mm 0,5 UV-I 213 W/m -5,2 C -7,8 C 24,1 km/h (4 Bft) 93,62 %
11.01.2019 11:58 -1,7 C 3,9 C -0,6 C 77 % 1024,8 hPa 0,0 l/m 15,4 km/h (3 Bft) W-NW 285 2 min 0,000 mm 0,5 UV-I 245 W/m -5,2 C -9,3 C 24,1 km/h (4 Bft) 93,62 %
11.01.2019 12:00 -1,7 C 3,9 C 0,0 C 78 % 1024,7 hPa 0,0 l/m 14,1 km/h (3 Bft) W 281 2 min 0,102 mm 0,5 UV-I 288 W/m -5,0 C -8,5 C 20,9 km/h (4 Bft) 93,62 %
11.01.2019 12:02 -1,5 C 3,9 C 0,6 C 78 % 1024,7 hPa 0,0 l/m 11,3 km/h (2 Bft) W-SW 248 2 min 0,000 mm 0,5 UV-I 278 W/m -4,8 C -6,2 C 14,5 km/h (3 Bft) 87,23 %
11.01.2019 12:04 -1,3 C 3,9 C 1,1 C 78 % 1024,6 hPa 0,0 l/m 10,7 km/h (2 Bft) W-NW 286 2 min 0,000 mm 0,6 UV-I 494 W/m -4,6 C -5,5 C 20,9 km/h (4 Bft) 93,62 %
11.01.2019 12:06 -1,1 C 3,9 C 1,1 C 78 % 1024,6 hPa 0,0 l/m 9,6 km/h (2 Bft) W-NW 288 2 min 0,000 mm 0,6 UV-I 359 W/m -4,4 C -4,3 C 16,1 km/h (3 Bft) 92,00 %
11.01.2019 12:08 -0,9 C 3,9 C 1,1 C 77 % 1024,6 hPa 0,0 l/m 9,4 km/h (2 Bft) W 268 2 min 0,000 mm 0,6 UV-I 472 W/m -4,4 C -3,9 C 16,1 km/h (3 Bft) 91,49 %
11.01.2019 12:10 -0,8 C 3,9 C 1,1 C 78 % 1024,5 hPa 0,0 l/m 10,0 km/h (2 Bft) W-SW 255 2 min 0,000 mm 0,6 UV-I 297 W/m -4,1 C -4,3 C 14,5 km/h (3 Bft) 97,87 %
11.01.2019 12:12 -0,7 C 3,9 C 1,1 C 77 % 1024,5 hPa 0,0 l/m 14,4 km/h (3 Bft) SW 221 2 min 0,000 mm 0,6 UV-I 443 W/m -4,2 C -7,5 C 24,1 km/h (4 Bft) 97,87 %
11.01.2019 12:14 -0,8 C 3,9 C 0,6 C 76 % 1024,5 hPa 0,0 l/m 13,6 km/h (3 Bft) W-SW 256 2 min 0,000 mm 0,6 UV-I 303 W/m -4,5 C -7,0 C 19,3 km/h (3 Bft) 97,87 %
11.01.2019 12:16 -1,0 C 3,9 C 1,1 C 77 % 1024,4 hPa 0,0 l/m 13,4 km/h (3 Bft) W-NW 286 2 min 0,000 mm 0,6 UV-I 428 W/m -4,5 C -7,2 C 19,3 km/h (3 Bft) 95,74 %
11.01.2019 12:18 -1,1 C 3,9 C 1,1 C 77 % 1024,3 hPa 0,0 l/m 13,2 km/h (3 Bft) W 279 2 min 0,000 mm 0,6 UV-I 454 W/m -4,6 C -7,1 C 22,5 km/h (4 Bft) 95,74 %
11.01.2019 12:20 -0,9 C 3,9 C 1,1 C 77 % 1024,4 hPa 0,0 l/m 10,9 km/h (2 Bft) W 275 2 min 0,000 mm 0,6 UV-I 476 W/m -4,4 C -5,2 C 16,1 km/h (3 Bft) 97,87 %
11.01.2019 12:22 -0,9 C 3,9 C 1,1 C 77 % 1024,3 hPa 0,0 l/m 11,5 km/h (2 Bft) W 269 2 min 0,000 mm 0,6 UV-I 420 W/m -4,4 C -5,7 C 19,3 km/h (3 Bft) 95,74 %
11.01.2019 12:24 -1,0 C 3,9 C 1,1 C 77 % 1024,3 hPa 0,0 l/m 13,1 km/h (3 Bft) W-SW 238 2 min 0,000 mm 0,6 UV-I 417 W/m -4,5 C -6,9 C 17,7 km/h (3 Bft) 97,87 %
11.01.2019 12:26 -1,1 C 3,9 C 1,1 C 77 % 1024,3 hPa 0,0 l/m 13,1 km/h (3 Bft) SW 226 2 min 0,000 mm 0,6 UV-I 456 W/m -4,6 C -7,1 C 17,7 km/h (3 Bft) 95,74 %
11.01.2019 12:28 -1,1 C 3,9 C 1,1 C 77 % 1024,3 hPa 0,0 l/m 11,9 km/h (2 Bft) SW 233 2 min 0,000 mm 0,6 UV-I 404 W/m -4,6 C -6,2 C 16,1 km/h (3 Bft) 100,00 %
11.01.2019 12:30 -1,1 C 3,9 C 1,1 C 78 % 1024,3 hPa 0,0 l/m 11,4 km/h (2 Bft) W-SW 251 2 min 0,000 mm 0,6 UV-I 403 W/m -4,4 C -5,8 C 17,7 km/h (3 Bft) 96,88 %
11.01.2019 12:32 -1,1 C 3,9 C 1,1 C 78 % 1024,3 hPa 0,0 l/m 10,7 km/h (2 Bft) W-SW 245 2 min 0,000 mm 0,6 UV-I 417 W/m -4,4 C -5,3 C 17,7 km/h (3 Bft) 97,87 %
11.01.2019 12:34 -1,1 C 3,9 C 1,1 C 77 % 1024,3 hPa 0,0 l/m 13,3 km/h (3 Bft) SW 218 2 min 0,000 mm 0,6 UV-I 445 W/m -4,6 C -7,2 C 22,5 km/h (4 Bft) 98,00 %
11.01.2019 12:36 -1,1 C 3,9 C 1,1 C 78 % 1024,3 hPa 0,0 l/m 15,5 km/h (3 Bft) S-SW 213 2 min 0,000 mm 0,6 UV-I 432 W/m -4,4 C -8,6 C 22,5 km/h (4 Bft) 97,87 %
11.01.2019 12:38 -1,2 C 3,9 C 0,6 C 77 % 1024,3 hPa 0,0 l/m 15,1 km/h (3 Bft) W 260 2 min 0,000 mm 0,6 UV-I 423 W/m -4,7 C -8,5 C 24,1 km/h (4 Bft) 97,44 %
11.01.2019 12:40 -1,3 C 3,9 C 0,6 C 78 % 1024,2 hPa 0,0 l/m 16,2 km/h (3 Bft) SW 234 2 min 0,000 mm 0,6 UV-I 381 W/m -4,6 C -9,3 C 24,1 km/h (4 Bft) 95,74 %
11.01.2019 12:42 -1,5 C 3,9 C 0,6 C 78 % 1024,3 hPa 0,0 l/m 15,3 km/h (3 Bft) W-SW 244 2 min 0,000 mm 0,5 UV-I 221 W/m -4,8 C -9,0 C 24,1 km/h (4 Bft) 97,87 %
11.01.2019 12:44 -1,7 C 3,9 C 0,0 C 78 % 1024,2 hPa 0,0 l/m 13,5 km/h (3 Bft) S-SW 206 2 min 0,000 mm 0,5 UV-I 209 W/m -5,0 C -8,0 C 24,1 km/h (4 Bft) 97,87 %
11.01.2019 12:46 -1,7 C 3,9 C 0,0 C 79 % 1024,2 hPa 0,0 l/m 15,5 km/h (3 Bft) SW 225 2 min 0,000 mm 0,5 UV-I 231 W/m -4,8 C -9,4 C 22,5 km/h (4 Bft) 93,62 %
11.01.2019 12:48 -1,8 C 3,9 C 0,0 C 79 % 1024,2 hPa 0,0 l/m 19,4 km/h (3 Bft) S 189 2 min 0,000 mm 0,5 UV-I 219 W/m -4,9 C -11,7 C 32,2 km/h (5 Bft) 95,74 %
11.01.2019 12:50 -1,8 C 3,9 C 0,0 C 79 % 1024,2 hPa 0,0 l/m 17,3 km/h (3 Bft) SW 228 2 min 0,000 mm 0,5 UV-I 197 W/m -4,9 C -10,5 C 25,7 km/h (4 Bft) 98,00 %
11.01.2019 12:52 -1,9 C 3,9 C 0,0 C 79 % 1024,2 hPa 0,0 l/m 16,9 km/h (3 Bft) W-SW 248 2 min 0,000 mm 0,5 UV-I 196 W/m -5,0 C -10,4 C 24,1 km/h (4 Bft) 95,74 %
11.01.2019 12:54 -1,9 C 3,9 C 0,0 C 80 % 1024,1 hPa 0,0 l/m 14,8 km/h (3 Bft) SW 219 2 min 0,000 mm 0,5 UV-I 212 W/m -4,9 C -9,2 C 22,5 km/h (4 Bft) 97,87 %
11.01.2019 12:56 -1,9 C 3,9 C 0,0 C 80 % 1024,2 hPa 0,0 l/m 15,4 km/h (3 Bft) W-SW 242 2 min 0,000 mm 0,5 UV-I 225 W/m -4,9 C -9,5 C 22,5 km/h (4 Bft) 97,87 %
11.01.2019 12:58 -1,9 C 3,9 C 0,0 C 80 % 1024,2 hPa 0,0 l/m 14,9 km/h (3 Bft) SW 229 2 min 0,000 mm 0,5 UV-I 212 W/m -4,9 C -9,2 C 22,5 km/h (4 Bft) 95,74 %
11.01.2019 13:00 -1,9 C 3,9 C 0,0 C 81 % 1024,1 hPa 0,0 l/m 12,9 km/h (3 Bft) W-SW 247 2 min 0,127 mm 0,5 UV-I 210 W/m -4,7 C -7,9 C 20,9 km/h (4 Bft) 95,74 %
11.01.2019 13:02 -1,8 C 3,9 C 0,0 C 81 % 1024,2 hPa 0,0 l/m 12,1 km/h (2 Bft) W 259 2 min 0,000 mm 0,5 UV-I 204 W/m -4,6 C -7,2 C 22,5 km/h (4 Bft) 93,62 %
11.01.2019 13:04 -1,8 C 3,9 C 0,0 C 81 % 1024,1 hPa 0,0 l/m 12,3 km/h (3 Bft) W-SW 253 0 min 0,000 mm 0,5 UV-I 184 W/m -4,6 C -7,3 C 19,3 km/h (3 Bft) 92,00 %
11.01.2019 13:06 -1,8 C 3,9 C 0,0 C 81 % 1024,1 hPa 0,0 l/m 12,6 km/h (3 Bft) W-SW 242 0 min 0,000 mm 0,5 UV-I 180 W/m -4,6 C -7,5 C 20,9 km/h (4 Bft) 95,74 %
11.01.2019 13:08 -1,7 C 3,9 C 0,0 C 81 % 1024,0 hPa 0,0 l/m 13,4 km/h (3 Bft) W-SW 242 2 min 0,000 mm 0,5 UV-I 193 W/m -4,5 C -8,0 C 17,7 km/h (3 Bft) 95,74 %
11.01.2019 13:10 -1,7 C 3,9 C 0,0 C 80 % 1024,1 hPa 0,0 l/m 13,6 km/h (3 Bft) W-SW 257 2 min 0,000 mm 0,5 UV-I 190 W/m -4,7 C -8,1 C 19,3 km/h (3 Bft) 95,74 %
11.01.2019 13:12 -1,6 C 3,9 C 0,0 C 80 % 1024,1 hPa 0,0 l/m 12,9 km/h (3 Bft) W 267 0 min 0,000 mm 0,3 UV-I 178 W/m -4,6 C -7,5 C 20,9 km/h (4 Bft) 92,31 %
11.01.2019 13:14 -1,5 C 3,9 C -0,6 C 79 % 1024,1 hPa 0,0 l/m 15,5 km/h (3 Bft) W-SW 257 0 min 0,000 mm 0,0 UV-I 177 W/m -4,7 C -9,1 C 20,9 km/h (4 Bft) 95,74 %
11.01.2019 13:16 -1,5 C 3,9 C -0,6 C 78 % 1024,1 hPa 0,0 l/m 19,8 km/h (3 Bft) W 280 0 min 0,000 mm 0,0 UV-I 169 W/m -4,8 C -11,5 C 29,0 km/h (5 Bft) 93,62 %
11.01.2019 13:18 -1,5 C 3,9 C -1,1 C 78 % 1024,1 hPa 0,0 l/m 18,1 km/h (3 Bft) W 263 0 min 0,000 mm 0,0 UV-I 149 W/m -4,8 C -10,6 C 27,4 km/h (4 Bft) 93,62 %
11.01.2019 13:20 -1,5 C 3,9 C -1,1 C 77 % 1024,1 hPa 0,0 l/m 15,0 km/h (3 Bft) W-SW 248 0 min 0,000 mm 0,0 UV-I 156 W/m -5,0 C -8,8 C 20,9 km/h (4 Bft) 93,62 %
11.01.2019 13:22 -1,5 C 3,9 C -0,6 C 77 % 1024,1 hPa 0,0 l/m 18,4 km/h (3 Bft) W 267 2 min 0,000 mm 0,0 UV-I 181 W/m -5,0 C -10,8 C 22,5 km/h (4 Bft) 89,36 %
11.01.2019 13:24 -1,4 C 3,9 C -0,6 C 77 % 1024,1 hPa 0,0 l/m 17,1 km/h (3 Bft) W-NW 288 2 min 0,000 mm 0,0 UV-I 192 W/m -4,9 C -9,9 C 27,4 km/h (4 Bft) 95,74 %
11.01.2019 13:26 -1,4 C 3,9 C -0,6 C 77 % 1024,0 hPa 0,0 l/m 14,1 km/h (3 Bft) W-SW 252 2 min 0,000 mm 0,0 UV-I 178 W/m -4,9 C -8,1 C 22,5 km/h (4 Bft) 95,74 %
11.01.2019 13:28 -1,4 C 3,9 C -0,6 C 76 % 1024,0 hPa 0,0 l/m 19,8 km/h (3 Bft) W 265 0 min 0,000 mm 0,0 UV-I 173 W/m -5,1 C -11,3 C 29,0 km/h (5 Bft) 95,74 %
11.01.2019 13:30 -1,4 C 3,9 C -0,6 C 75 % 1024,0 hPa 0,0 l/m 18,9 km/h (3 Bft) W 271 2 min 0,000 mm 0,0 UV-I 175 W/m -5,2 C -10,9 C 30,6 km/h (5 Bft) 93,62 %
11.01.2019 13:32 -1,4 C 3,9 C -0,6 C 76 % 1024,0 hPa 0,0 l/m 14,3 km/h (3 Bft) W-SW 245 0 min 0,000 mm 0,0 UV-I 167 W/m -5,1 C -8,2 C 19,3 km/h (3 Bft) 93,62 %
11.01.2019 13:34 -1,4 C 3,9 C -0,6 C 76 % 1024,0 hPa 0,0 l/m 13,1 km/h (3 Bft) W-SW 256 0 min 0,000 mm 0,0 UV-I 163 W/m -5,1 C -7,4 C 19,3 km/h (3 Bft) 96,00 %
11.01.2019 13:36 -1,4 C 3,9 C -0,6 C 76 % 1024,0 hPa 0,0 l/m 16,2 km/h (3 Bft) W-SW 249 0 min 0,000 mm 0,0 UV-I 161 W/m -5,1 C -9,4 C 22,5 km/h (4 Bft) 93,62 %
11.01.2019 13:38 -1,3 C 3,9 C -0,6 C 76 % 1023,9 hPa 0,0 l/m 14,7 km/h (3 Bft) W-NW 284 0 min 0,000 mm 0,0 UV-I 168 W/m -5,0 C -8,4 C 19,3 km/h (3 Bft) 93,62 %
11.01.2019 13:40 -1,3 C 3,9 C -0,6 C 75 % 1023,9 hPa 0,0 l/m 13,5 km/h (3 Bft) W 269 2 min 0,000 mm 0,0 UV-I 169 W/m -5,1 C -7,6 C 22,5 km/h (4 Bft) 96,30 %
11.01.2019 13:42 -1,3 C 3,9 C -0,6 C 75 % 1023,8 hPa 0,0 l/m 16,6 km/h (3 Bft) W-SW 254 2 min 0,000 mm 0,0 UV-I 170 W/m -5,1 C -9,5 C 24,1 km/h (4 Bft) 95,08 %
11.01.2019 13:44 -1,3 C 3,9 C -0,6 C 74 % 1023,8 hPa 0,0 l/m 17,0 km/h (3 Bft) W 273 0 min 0,000 mm 0,0 UV-I 165 W/m -5,3 C -9,7 C 24,1 km/h (4 Bft) 96,00 %
11.01.2019 13:46 -1,3 C 3,9 C -0,6 C 75 % 1023,8 hPa 0,0 l/m 13,6 km/h (3 Bft) W-SW 241 0 min 0,000 mm 0,0 UV-I 157 W/m -5,1 C -7,6 C 22,5 km/h (4 Bft) 95,74 %
11.01.2019 13:48 -1,3 C 3,9 C -0,6 C 75 % 1023,8 hPa 0,0 l/m 16,8 km/h (3 Bft) W 269 0 min 0,000 mm 0,0 UV-I 154 W/m -5,1 C -9,6 C 24,1 km/h (4 Bft) 91,49 %
11.01.2019 13:50 -1,3 C 3,9 C -0,6 C 75 % 1023,8 hPa 0,0 l/m 13,9 km/h (3 Bft) W-SW 256 0 min 0,000 mm 0,0 UV-I 159 W/m -5,1 C -7,8 C 22,5 km/h (4 Bft) 95,74 %
11.01.2019 13:52 -1,3 C 3,9 C -0,6 C 75 % 1023,8 hPa 0,0 l/m 17,2 km/h (3 Bft) W-SW 255 2 min 0,000 mm 0,0 UV-I 161 W/m -5,1 C -9,9 C 24,1 km/h (4 Bft) 93,75 %
11.01.2019 13:54 -1,3 C 3,9 C -0,6 C 75 % 1023,8 hPa 0,0 l/m 14,2 km/h (3 Bft) W 273 0 min 0,000 mm 0,0 UV-I 157 W/m -5,1 C -8,0 C 20,9 km/h (4 Bft) 91,84 %
11.01.2019 13:56 -1,3 C 3,9 C -0,6 C 75 % 1023,8 hPa 0,0 l/m 16,3 km/h (3 Bft) W 276 0 min 0,000 mm 0,0 UV-I 149 W/m -5,1 C -9,3 C 25,7 km/h (4 Bft) 93,75 %
11.01.2019 13:58 -1,3 C 3,9 C -0,6 C 75 % 1023,7 hPa 0,0 l/m 15,6 km/h (3 Bft) W-SW 240 0 min 0,000 mm 0,0 UV-I 148 W/m -5,1 C -8,9 C 22,5 km/h (4 Bft) 91,49 %
11.01.2019 14:00 -1,3 C 3,9 C -0,6 C 75 % 1023,7 hPa 0,0 l/m 17,3 km/h (3 Bft) SW 220 0 min 0,076 mm 0,0 UV-I 147 W/m -5,1 C -9,9 C 24,1 km/h (4 Bft) 97,87 %
11.01.2019 14:02 -1,3 C 3,9 C -0,6 C 76 % 1023,8 hPa 0,0 l/m 12,9 km/h (3 Bft) W 281 0 min 0,000 mm 0,0 UV-I 148 W/m -5,0 C -7,2 C 19,3 km/h (3 Bft) 97,87 %
11.01.2019 14:04 -1,3 C 3,9 C -0,6 C 78 % 1023,7 hPa 0,0 l/m 16,8 km/h (3 Bft) SW 235 0 min 0,000 mm 0,0 UV-I 137 W/m -4,6 C -9,6 C 27,4 km/h (4 Bft) 97,87 %
11.01.2019 14:06 -1,4 C 3,9 C -0,6 C 79 % 1023,6 hPa 0,0 l/m 17,2 km/h (3 Bft) SW 218 0 min 0,000 mm 0,0 UV-I 138 W/m -4,6 C -10,0 C 25,7 km/h (4 Bft) 94,74 %
11.01.2019 14:08 -1,4 C 3,9 C -0,6 C 79 % 1023,6 hPa 0,0 l/m 14,2 km/h (3 Bft) SW 234 0 min 0,000 mm 0,0 UV-I 143 W/m -4,6 C -8,2 C 19,3 km/h (3 Bft) 95,74 %
11.01.2019 14:10 -1,4 C 3,9 C -0,6 C 79 % 1023,6 hPa 0,0 l/m 15,7 km/h (3 Bft) W-SW 252 2 min 0,000 mm 0,0 UV-I 148 W/m -4,6 C -9,1 C 22,5 km/h (4 Bft) 97,87 %
11.01.2019 14:12 -1,4 C 3,9 C -0,6 C 79 % 1023,6 hPa 0,0 l/m 17,5 km/h (3 Bft) W-SW 244 2 min 0,000 mm 0,0 UV-I 147 W/m -4,6 C -10,1 C 24,1 km/h (4 Bft) 95,74 %
11.01.2019 14:14 -1,4 C 3,9 C -0,6 C 79 % 1023,6 hPa 0,0 l/m 17,4 km/h (3 Bft) SW 229 0 min 0,000 mm 0,0 UV-I 143 W/m -4,6 C -10,1 C 24,1 km/h (4 Bft) 97,87 %
11.01.2019 14:16 -1,3 C 3,9 C -0,6 C 79 % 1023,6 hPa 0,0 l/m 15,2 km/h (3 Bft) SW 217 0 min 0,000 mm 0,0 UV-I 143 W/m -4,5 C -8,7 C 24,1 km/h (4 Bft) 93,62 %
11.01.2019 14:18 -1,3 C 3,9 C -0,6 C 79 % 1023,5 hPa 0,0 l/m 16,3 km/h (3 Bft) SW 221 2 min 0,000 mm 0,0 UV-I 142 W/m -4,5 C -9,3 C 24,1 km/h (4 Bft) 96,00 %
11.01.2019 14:20 -1,3 C 3,9 C -0,6 C 79 % 1023,5 hPa 0,0 l/m 14,9 km/h (3 Bft) SW 228 0 min 0,000 mm 0,0 UV-I 136 W/m -4,5 C -8,5 C 24,1 km/h (4 Bft) 94,00 %
11.01.2019 14:22 -1,3 C 3,9 C -0,6 C 79 % 1023,5 hPa 0,0 l/m 19,7 km/h (3 Bft) W 271 0 min 0,000 mm 0,0 UV-I 129 W/m -4,5 C -11,2 C 33,8 km/h (5 Bft) 95,12 %
11.01.2019 14:24 -1,3 C 3,9 C -1,1 C 78 % 1023,5 hPa 0,0 l/m 16,5 km/h (3 Bft) W 268 0 min 0,000 mm 0,0 UV-I 127 W/m -4,6 C -9,5 C 22,5 km/h (4 Bft) 93,62 %
11.01.2019 14:26 -1,3 C 3,9 C -1,1 C 79 % 1023,5 hPa 0,0 l/m 18,6 km/h (3 Bft) SW 227 0 min 0,000 mm 0,0 UV-I 126 W/m -4,5 C -10,6 C 25,7 km/h (4 Bft) 95,74 %
11.01.2019 14:28 -1,4 C 3,9 C -1,1 C 78 % 1023,5 hPa 0,0 l/m 20,9 km/h (4 Bft) SW 223 0 min 0,000 mm 0,0 UV-I 117 W/m -4,7 C -11,9 C 29,0 km/h (5 Bft) 95,83 %
11.01.2019 14:30 -1,4 C 3,9 C -1,1 C 78 % 1023,4 hPa 0,0 l/m 16,3 km/h (3 Bft) SW 223 0 min 0,000 mm 0,0 UV-I 108 W/m -4,7 C -9,5 C 25,7 km/h (4 Bft) 97,87 %
11.01.2019 14:32 -1,4 C 3,9 C -1,1 C 79 % 1023,5 hPa 0,0 l/m 15,3 km/h (3 Bft) W 263 0 min 0,000 mm 0,0 UV-I 106 W/m -4,6 C -8,9 C 24,1 km/h (4 Bft) 95,74 %
11.01.2019 14:34 -1,4 C 3,9 C -1,1 C 79 % 1023,4 hPa 0,0 l/m 16,3 km/h (3 Bft) W-SW 254 0 min 0,000 mm 0,0 UV-I 106 W/m -4,6 C -9,5 C 20,9 km/h (4 Bft) 97,87 %
11.01.2019 14:36 -1,4 C 3,9 C -1,1 C 79 % 1023,5 hPa 0,0 l/m 17,6 km/h (3 Bft) W-SW 244 0 min 0,000 mm 0,0 UV-I 103 W/m -4,6 C -10,2 C 27,4 km/h (4 Bft) 100,00 %
11.01.2019 14:38 -1,4 C 3,9 C -1,1 C 79 % 1023,5 hPa 0,0 l/m 22,5 km/h (4 Bft) SW 223 0 min 0,000 mm 0,0 UV-I 98 W/m -4,6 C -12,6 C 35,4 km/h (5 Bft) 95,74 %
11.01.2019 14:40 -1,4 C 3,9 C -1,1 C 79 % 1023,5 hPa 0,0 l/m 16,6 km/h (3 Bft) W 263 0 min 0,000 mm 0,0 UV-I 95 W/m -4,6 C -9,6 C 24,1 km/h (4 Bft) 100,00 %
11.01.2019 14:42 -1,4 C 3,9 C -1,1 C 79 % 1023,4 hPa 0,0 l/m 18,7 km/h (3 Bft) S-SW 206 0 min 0,000 mm 0,0 UV-I 91 W/m -4,6 C -10,8 C 25,7 km/h (4 Bft) 100,00 %
11.01.2019 14:44 -1,4 C 3,9 C -1,1 C 79 % 1023,5 hPa 0,0 l/m 16,1 km/h (3 Bft) W-SW 246 0 min 0,000 mm 0,0 UV-I 91 W/m -4,6 C -9,3 C 22,5 km/h (4 Bft) 98,00 %
11.01.2019 14:46 -1,4 C 3,9 C -1,1 C 79 % 1023,4 hPa 0,0 l/m 18,9 km/h (3 Bft) W-SW 246 0 min 0,000 mm 0,0 UV-I 92 W/m -4,6 C -10,9 C 27,4 km/h (4 Bft) 100,00 %
11.01.2019 14:48 -1,5 C 3,9 C -1,1 C 79 % 1023,5 hPa 0,0 l/m 18,6 km/h (3 Bft) W-SW 248 0 min 0,000 mm 0,0 UV-I 94 W/m -4,7 C -10,9 C 25,7 km/h (4 Bft) 97,87 %
11.01.2019 14:50 -1,5 C 3,9 C -1,7 C 79 % 1023,5 hPa 0,0 l/m 17,6 km/h (3 Bft) SW 220 0 min 0,000 mm 0,0 UV-I 93 W/m -4,7 C -10,3 C 27,4 km/h (4 Bft) 97,87 %
11.01.2019 14:52 -1,5 C 3,9 C -1,7 C 79 % 1023,5 hPa 0,0 l/m 20,1 km/h (4 Bft) SW 236 0 min 0,000 mm 0,0 UV-I 92 W/m -4,7 C -11,6 C 29,0 km/h (5 Bft) 100,00 %
11.01.2019 14:54 -1,5 C 3,9 C -1,7 C 79 % 1023,5 hPa 0,0 l/m 19,4 km/h (3 Bft) W-SW 239 0 min 0,000 mm 0,0 UV-I 90 W/m -4,7 C -11,3 C 27,4 km/h (4 Bft) 100,00 %
11.01.2019 14:56 -1,4 C 3,9 C -1,7 C 79 % 1023,4 hPa 0,0 l/m 17,2 km/h (3 Bft) SW 225 0 min 0,000 mm 0,0 UV-I 89 W/m -4,6 C -10,0 C 27,4 km/h (4 Bft) 97,14 %
11.01.2019 14:58 -1,4 C 3,9 C -1,7 C 79 % 1023,4 hPa 0,0 l/m 18,8 km/h (3 Bft) W-SW 242 0 min 0,000 mm 0,0 UV-I 87 W/m -4,6 C -10,8 C 33,8 km/h (5 Bft) 100,00 %
11.01.2019 15:00 -1,4 C 3,9 C -1,7 C 79 % 1023,4 hPa 0,0 l/m 16,2 km/h (3 Bft) SW 219 0 min 0,051 mm 0,0 UV-I 90 W/m -4,6 C -9,4 C 25,7 km/h (4 Bft) 97,87 %
11.01.2019 15:02 -1,4 C 3,9 C -1,7 C 79 % 1023,3 hPa 0,0 l/m 20,9 km/h (4 Bft) SW 230 0 min 0,000 mm 0,0 UV-I 80 W/m -4,6 C -11,9 C 29,0 km/h (5 Bft) 100,00 %
11.01.2019 15:04 -1,4 C 3,9 C -1,7 C 79 % 1023,3 hPa 0,0 l/m 19,9 km/h (4 Bft) SW 234 0 min 0,000 mm 0,0 UV-I 81 W/m -4,6 C -11,4 C 29,0 km/h (5 Bft) 97,87 %
11.01.2019 15:06 -1,4 C 3,9 C -1,7 C 79 % 1023,3 hPa 0,0 l/m 17,4 km/h (3 Bft) SW 214 0 min 0,000 mm 0,0 UV-I 80 W/m -4,6 C -10,1 C 27,4 km/h (4 Bft) 100,00 %
11.01.2019 15:08 -1,5 C 3,9 C -1,7 C 79 % 1023,4 hPa 0,0 l/m 16,4 km/h (3 Bft) SW 229 0 min 0,000 mm 0,0 UV-I 79 W/m -4,7 C -9,6 C 25,7 km/h (4 Bft) 100,00 %
11.01.2019 15:10 -1,5 C 3,9 C -1,7 C 79 % 1023,3 hPa 0,0 l/m 16,7 km/h (3 Bft) W-SW 256 0 min 0,000 mm 0,0 UV-I 78 W/m -4,7 C -9,8 C 22,5 km/h (4 Bft) 100,00 %
11.01.2019 15:12 -1,5 C 3,9 C -1,7 C 79 % 1023,4 hPa 0,0 l/m 12,8 km/h (3 Bft) W-SW 255 0 min 0,000 mm 0,0 UV-I 76 W/m -4,7 C -7,3 C 19,3 km/h (3 Bft) 100,00 %
11.01.2019 15:14 -1,6 C 3,9 C -1,7 C 79 % 1023,3 hPa 0,0 l/m 13,8 km/h (3 Bft) SW 228 0 min 0,000 mm 0,0 UV-I 74 W/m -4,8 C -8,1 C 22,5 km/h (4 Bft) 100,00 %
11.01.2019 15:16 -1,6 C 3,9 C -2,2 C 79 % 1023,3 hPa 0,0 l/m 14,8 km/h (3 Bft) W 269 0 min 0,000 mm 0,0 UV-I 71 W/m -4,8 C -8,8 C 20,9 km/h (4 Bft) 97,87 %
11.01.2019 15:18 -1,6 C 3,9 C -2,2 C 79 % 1023,2 hPa 0,0 l/m 15,3 km/h (3 Bft) W-SW 246 0 min 0,000 mm 0,0 UV-I 69 W/m -4,8 C -9,1 C 25,7 km/h (4 Bft) 97,87 %
11.01.2019 15:20 -1,7 C 3,9 C -2,2 C 79 % 1023,2 hPa 0,0 l/m 12,4 km/h (3 Bft) SW 226 0 min 0,000 mm 0,0 UV-I 65 W/m -4,8 C -7,3 C 16,1 km/h (3 Bft) 97,87 %
11.01.2019 15:22 -1,7 C 3,9 C -2,8 C 79 % 1023,2 hPa 0,0 l/m 15,2 km/h (3 Bft) SW 233 0 min 0,000 mm 0,0 UV-I 60 W/m -4,8 C -9,2 C 19,3 km/h (3 Bft) 97,87 %
11.01.2019 15:24 -1,7 C 3,9 C -2,8 C 79 % 1023,3 hPa 0,0 l/m 13,0 km/h (3 Bft) W-SW 251 0 min 0,000 mm 0,0 UV-I 56 W/m -4,8 C -7,7 C 20,9 km/h (4 Bft) 97,87 %
11.01.2019 15:26 -1,8 C 3,9 C -2,8 C 79 % 1023,2 hPa 0,0 l/m 15,7 km/h (3 Bft) W 270 0 min 0,000 mm 0,0 UV-I 63 W/m -4,9 C -9,6 C 25,7 km/h (4 Bft) 95,74 %
11.01.2019 15:28 -1,8 C 3,9 C -3,3 C 79 % 1023,3 hPa 0,0 l/m 17,4 km/h (3 Bft) W-NW 292 2 min 0,000 mm 0,0 UV-I 87 W/m -4,9 C -10,6 C 25,7 km/h (4 Bft) 89,36 %
11.01.2019 15:30 -1,8 C 3,9 C -3,3 C 79 % 1023,2 hPa 0,0 l/m 15,2 km/h (3 Bft) SW 236 2 min 0,000 mm 0,0 UV-I 87 W/m -4,9 C -9,3 C 24,1 km/h (4 Bft) 95,74 %
11.01.2019 15:32 -1,8 C 3,9 C -3,3 C 79 % 1023,3 hPa 0,0 l/m 12,5 km/h (3 Bft) W-SW 239 2 min 0,000 mm 0,0 UV-I 84 W/m -4,9 C -7,4 C 17,7 km/h (3 Bft) 91,49 %
11.01.2019 15:34 -1,9 C 3,9 C -3,3 C 79 % 1023,2 hPa 0,0 l/m 14,5 km/h (3 Bft) SW 225 2 min 0,000 mm 0,0 UV-I 87 W/m -5,0 C -9,0 C 20,9 km/h (4 Bft) 94,00 %
11.01.2019 15:36 -1,9 C 3,9 C -3,3 C 79 % 1023,2 hPa 0,0 l/m 14,3 km/h (3 Bft) W-SW 251 2 min 0,000 mm 0,0 UV-I 98 W/m -5,0 C -8,8 C 19,3 km/h (3 Bft) 91,49 %
11.01.2019 15:38 -1,9 C 3,9 C -3,3 C 79 % 1023,2 hPa 0,0 l/m 12,6 km/h (3 Bft) W-SW 251 2 min 0,000 mm 0,0 UV-I 84 W/m -5,0 C -7,6 C 22,5 km/h (4 Bft) 95,74 %
11.01.2019 15:40 -1,9 C 3,9 C -3,3 C 79 % 1023,2 hPa 0,0 l/m 14,2 km/h (3 Bft) W-SW 240 2 min 0,000 mm 0,0 UV-I 93 W/m -5,0 C -8,8 C 22,5 km/h (4 Bft) 93,62 %
11.01.2019 15:42 -1,9 C 3,9 C -3,3 C 79 % 1023,2 hPa 0,0 l/m 15,3 km/h (3 Bft) W 262 2 min 0,000 mm 0,0 UV-I 74 W/m -5,0 C -9,5 C 24,1 km/h (4 Bft) 94,44 %
11.01.2019 15:44 -1,9 C 3,9 C -3,3 C 79 % 1023,2 hPa 0,0 l/m 14,2 km/h (3 Bft) SW 234 2 min 0,000 mm 0,0 UV-I 66 W/m -5,0 C -8,8 C 24,1 km/h (4 Bft) 94,83 %
11.01.2019 15:46 -1,9 C 3,9 C -3,3 C 79 % 1023,1 hPa 0,0 l/m 15,2 km/h (3 Bft) W-SW 247 2 min 0,000 mm 0,0 UV-I 52 W/m -5,0 C -9,4 C 22,5 km/h (4 Bft) 94,87 %
11.01.2019 15:48 -1,9 C 3,9 C -2,8 C 79 % 1023,1 hPa 0,0 l/m 13,8 km/h (3 Bft) W-SW 240 0 min 0,000 mm 0,0 UV-I 43 W/m -5,0 C -8,5 C 22,5 km/h (4 Bft) 96,15 %
11.01.2019 15:50 -1,9 C 3,9 C -2,8 C 78 % 1023,1 hPa 0,0 l/m 12,8 km/h (3 Bft) W 277 0 min 0,000 mm 0,0 UV-I 40 W/m -5,2 C -7,8 C 20,9 km/h (4 Bft) 97,92 %
11.01.2019 15:52 -2,0 C 3,9 C -2,8 C 79 % 1023,1 hPa 0,0 l/m 11,8 km/h (2 Bft) W-SW 247 0 min 0,000 mm 0,0 UV-I 38 W/m -5,1 C -7,1 C 20,9 km/h (4 Bft) 97,87 %
11.01.2019 15:54 -2,0 C 3,9 C -2,8 C 79 % 1023,1 hPa 0,0 l/m 14,1 km/h (3 Bft) W-SW 242 0 min 0,000 mm 0,0 UV-I 35 W/m -5,1 C -8,8 C 22,5 km/h (4 Bft) 95,74 %
11.01.2019 15:56 -2,0 C 3,9 C -2,8 C 79 % 1023,1 hPa 0,0 l/m 12,9 km/h (3 Bft) W-SW 237 0 min 0,000 mm 0,0 UV-I 33 W/m -5,1 C -8,0 C 17,7 km/h (3 Bft) 97,87 %
11.01.2019 15:58 -2,0 C 3,9 C -2,8 C 79 % 1023,1 hPa 0,0 l/m 17,4 km/h (3 Bft) W-SW 240 0 min 0,000 mm 0,0 UV-I 30 W/m -5,1 C -10,8 C 22,5 km/h (4 Bft) 97,37 %
11.01.2019 16:00 -2,0 C 3,9 C -2,8 C 79 % 1023,1 hPa 0,0 l/m 14,6 km/h (3 Bft) W-SW 239 0 min 0,000 mm 0,0 UV-I 27 W/m -5,1 C -9,1 C 20,9 km/h (4 Bft) 95,74 %
11.01.2019 16:02 -2,0 C 3,9 C -2,8 C 79 % 1023,1 hPa 0,0 l/m 16,0 km/h (3 Bft) W-SW 250 0 min 0,051 mm 0,0 UV-I 25 W/m -5,1 C -10,0 C 20,9 km/h (4 Bft) 97,87 %
11.01.2019 16:04 -2,0 C 3,9 C -2,8 C 79 % 1023,0 hPa 0,0 l/m 14,2 km/h (3 Bft) W 271 0 min 0,000 mm 0,0 UV-I 21 W/m -5,1 C -8,9 C 19,3 km/h (3 Bft) 100,00 %
11.01.2019 16:06 -2,0 C 3,9 C -2,8 C 79 % 1023,0 hPa 0,0 l/m 12,5 km/h (3 Bft) W-SW 257 0 min 0,000 mm 0,0 UV-I 19 W/m -5,1 C -7,7 C 19,3 km/h (3 Bft) 100,00 %
11.01.2019 16:08 -2,0 C 3,9 C -2,8 C 79 % 1023,0 hPa 0,0 l/m 14,1 km/h (3 Bft) SW 227 0 min 0,000 mm 0,0 UV-I 18 W/m -5,1 C -8,8 C 20,9 km/h (4 Bft) 100,00 %
11.01.2019 16:10 -2,0 C 3,9 C -2,8 C 80 % 1023,0 hPa 0,0 l/m 12,2 km/h (2 Bft) W-SW 254 0 min 0,000 mm 0,0 UV-I 18 W/m -5,0 C -7,5 C 19,3 km/h (3 Bft) 100,00 %
11.01.2019 16:12 -2,0 C 3,9 C -2,8 C 80 % 1023,0 hPa 0,0 l/m 15,2 km/h (3 Bft) W 263 0 min 0,000 mm 0,0 UV-I 17 W/m -5,0 C -9,5 C 20,9 km/h (4 Bft) 100,00 %
11.01.2019 16:14 -2,0 C 3,9 C -2,8 C 80 % 1023,0 hPa 0,0 l/m 15,5 km/h (3 Bft) SW 236 0 min 0,000 mm 0,0 UV-I 15 W/m -5,0 C -9,7 C 22,5 km/h (4 Bft) 94,29 %
11.01.2019 16:16 -2,0 C 3,9 C -2,8 C 80 % 1023,0 hPa 0,0 l/m 13,9 km/h (3 Bft) SW 234 2 min 0,000 mm 0,0 UV-I 14 W/m -5,0 C -8,7 C 22,5 km/h (4 Bft) 98,00 %
11.01.2019 16:18 -1,9 C 3,9 C -2,8 C 80 % 1023,0 hPa 0,0 l/m 14,7 km/h (3 Bft) W-NW 296 2 min 0,000 mm 0,0 UV-I 13 W/m -4,9 C -9,1 C 22,5 km/h (4 Bft) 100,00 %
11.01.2019 16:20 -1,9 C 3,9 C -2,8 C 80 % 1023,0 hPa 0,0 l/m 14,3 km/h (3 Bft) SW 229 0 min 0,000 mm 0,0 UV-I 12 W/m -4,9 C -8,8 C 22,5 km/h (4 Bft) 95,74 %
11.01.2019 16:22 -1,9 C 3,9 C -2,8 C 80 % 1023,0 hPa 0,0 l/m 11,9 km/h (2 Bft) W-SW 257 0 min 0,000 mm 0,0 UV-I 11 W/m -4,9 C -7,1 C 19,3 km/h (3 Bft) 100,00 %
11.01.2019 16:24 -1,9 C 3,9 C -2,8 C 80 % 1022,9 hPa 0,0 l/m 16,3 km/h (3 Bft) S-SW 213 0 min 0,000 mm 0,0 UV-I 9 W/m -4,9 C -10,1 C 24,1 km/h (4 Bft) 98,08 %
11.01.2019 16:26 -1,9 C 3,9 C -2,8 C 80 % 1023,0 hPa 0,0 l/m 15,1 km/h (3 Bft) W-SW 247 0 min 0,000 mm 0,0 UV-I 8 W/m -4,9 C -9,3 C 22,5 km/h (4 Bft) 98,00 %
11.01.2019 16:28 -1,9 C 3,9 C -2,8 C 80 % 1023,0 hPa 0,0 l/m 13,2 km/h (3 Bft) W-SW 239 0 min 0,000 mm 0,0 UV-I 7 W/m -4,9 C -8,1 C 19,3 km/h (3 Bft) 100,00 %
11.01.2019 16:30 -1,8 C 3,9 C -2,8 C 80 % 1022,9 hPa 0,0 l/m 12,8 km/h (3 Bft) W-SW 244 0 min 0,000 mm 0,0 UV-I 6 W/m -4,8 C -7,7 C 20,9 km/h (4 Bft) 100,00 %
11.01.2019 16:32 -1,8 C 3,9 C -2,8 C 80 % 1022,9 hPa 0,0 l/m 12,8 km/h (3 Bft) W-SW 247 0 min 0,000 mm 0,0 UV-I 5 W/m -4,8 C -7,7 C 17,7 km/h (3 Bft) 100,00 %
11.01.2019 16:34 -1,8 C 3,9 C -2,8 C 80 % 1022,9 hPa 0,0 l/m 11,6 km/h (2 Bft) W-SW 243 0 min 0,000 mm 0,0 UV-I 5 W/m -4,8 C -6,8 C 19,3 km/h (3 Bft) 100,00 %
11.01.2019 16:36 -1,8 C 3,9 C -2,8 C 80 % 1022,9 hPa 0,0 l/m 16,0 km/h (3 Bft) W-SW 240 0 min 0,000 mm 0,0 UV-I 5 W/m -4,8 C -9,8 C 20,9 km/h (4 Bft) 100,00 %
11.01.2019 16:38 -1,8 C 3,9 C -2,2 C 80 % 1022,9 hPa 0,0 l/m 13,1 km/h (3 Bft) W-SW 248 0 min 0,000 mm 0,0 UV-I 0 W/m -4,8 C -7,9 C 17,7 km/h (3 Bft) 95,74 %
11.01.2019 16:40 -1,8 C 3,9 C -2,8 C 81 % 1022,9 hPa 0,0 l/m 10,6 km/h (2 Bft) W-SW 247 0 min 0,000 mm 0,0 UV-I 0 W/m -4,6 C -6,0 C 17,7 km/h (3 Bft) 98,00 %
11.01.2019 16:42 -1,8 C 3,9 C -2,8 C 81 % 1022,9 hPa 0,0 l/m 12,2 km/h (2 Bft) W 260 0 min 0,000 mm 0,0 UV-I 0 W/m -4,6 C -7,2 C 20,9 km/h (4 Bft) 97,37 %
11.01.2019 16:44 -1,8 C 3,9 C -2,8 C 81 % 1022,9 hPa 0,0 l/m 16,9 km/h (3 Bft) W-SW 251 0 min 0,000 mm 0,0 UV-I 0 W/m -4,6 C -10,3 C 24,1 km/h (4 Bft) 95,74 %
11.01.2019 16:46 -1,8 C 3,9 C -2,8 C 82 % 1022,9 hPa 0,0 l/m 12,8 km/h (3 Bft) W 263 0 min 0,000 mm 0,0 UV-I 0 W/m -4,5 C -7,7 C 19,3 km/h (3 Bft) 98,00 %
11.01.2019 16:48 -1,9 C 3,9 C -2,8 C 83 % 1023,0 hPa 0,0 l/m 15,3 km/h (3 Bft) W 279 0 min 0,000 mm 0,0 UV-I 0 W/m -4,4 C -9,5 C 29,0 km/h (5 Bft) 97,87 %
11.01.2019 16:50 -1,9 C 3,9 C -2,8 C 83 % 1023,0 hPa 0,0 l/m 15,9 km/h (3 Bft) W 273 0 min 0,000 mm 0,0 UV-I 0 W/m -4,4 C -9,8 C 20,9 km/h (4 Bft) 98,00 %
11.01.2019 16:52 -1,9 C 3,9 C -2,8 C 84 % 1023,0 hPa 0,0 l/m 14,1 km/h (3 Bft) W-SW 242 0 min 0,000 mm 0,0 UV-I 0 W/m -4,2 C -8,7 C 25,7 km/h (4 Bft) 97,87 %
11.01.2019 16:55 -2,1 C 3,9 C -2,8 C 85 % 1022,9 hPa 0,0 l/m 19,0 km/h (3 Bft) W-SW 242 0 min 0,000 mm 0,0 UV-I 0 W/m -4,3 C -11,8 C 27,4 km/h (4 Bft) 95,77 %
11.01.2019 16:56 -2,1 C 3,9 C -2,8 C 85 % 1022,9 hPa 0,0 l/m 16,6 km/h (3 Bft) W-SW 255 0 min 0,000 mm 0,0 UV-I 0 W/m -4,3 C -10,5 C 20,9 km/h (4 Bft) 100,00 %
11.01.2019 16:58 -2,2 C 3,9 C -2,8 C 86 % 1022,9 hPa 0,0 l/m 14,7 km/h (3 Bft) W 277 0 min 0,000 mm 0,0 UV-I 0 W/m -4,2 C -9,5 C 20,9 km/h (4 Bft) 97,56 %
11.01.2019 17:00 -2,2 C 3,9 C -2,8 C 87 % 1022,9 hPa 0,0 l/m 11,7 km/h (2 Bft) W 262 0 min 0,000 mm 0,0 UV-I 0 W/m -4,1 C -7,3 C 19,3 km/h (3 Bft) 100,00 %
11.01.2019 17:02 -2,2 C 3,9 C -2,8 C 87 % 1022,9 hPa 0,0 l/m 11,9 km/h (2 Bft) W 270 0 min 0,025 mm 0,0 UV-I 0 W/m -4,1 C -7,5 C 19,3 km/h (3 Bft) 97,87 %
11.01.2019 17:05 -2,3 C 3,9 C -2,8 C 88 % 1022,9 hPa 0,0 l/m 16,6 km/h (3 Bft) W-NW 290 0 min 0,000 mm 0,0 UV-I 0 W/m -4,0 C -10,8 C 29,0 km/h (5 Bft) 98,70 %
11.01.2019 17:06 -2,3 C 3,9 C -2,8 C 88 % 1022,9 hPa 0,0 l/m 13,6 km/h (3 Bft) SW 225 0 min 0,000 mm 0,0 UV-I 0 W/m -4,0 C -8,8 C 17,7 km/h (3 Bft) 100,00 %
11.01.2019 17:08 -2,3 C 3,9 C -2,8 C 89 % 1022,9 hPa 0,0 l/m 17,6 km/h (3 Bft) W-SW 246 0 min 0,000 mm 0,0 UV-I 0 W/m -3,9 C -11,3 C 27,4 km/h (4 Bft) 100,00 %
11.01.2019 17:10 -2,3 C 3,9 C -2,8 C 89 % 1022,9 hPa 0,0 l/m 13,6 km/h (3 Bft) W-SW 248 0 min 0,000 mm 0,0 UV-I 0 W/m -3,9 C -8,8 C 22,5 km/h (4 Bft) 97,87 %
11.01.2019 17:12 -2,3 C 3,9 C -2,8 C 89 % 1022,9 hPa 0,0 l/m 14,0 km/h (3 Bft) W 267 0 min 0,000 mm 0,0 UV-I 0 W/m -3,9 C -9,1 C 24,1 km/h (4 Bft) 100,00 %
11.01.2019 17:14 -2,3 C 3,9 C -2,8 C 90 % 1022,9 hPa 0,0 l/m 14,5 km/h (3 Bft) W-NW 295 0 min 0,000 mm 0,0 UV-I 0 W/m -3,7 C -9,4 C 22,5 km/h (4 Bft) 97,87 %
11.01.2019 17:16 -2,4 C 3,9 C -2,8 C 90 % 1022,9 hPa 0,0 l/m 14,5 km/h (3 Bft) W 276 0 min 0,000 mm 0,0 UV-I 0 W/m -3,8 C -9,6 C 22,5 km/h (4 Bft) 100,00 %
11.01.2019 17:18 -2,4 C 3,9 C -2,8 C 90 % 1022,9 hPa 0,0 l/m 13,7 km/h (3 Bft) W-SW 253 0 min 0,000 mm 0,0 UV-I 0 W/m -3,8 C -9,0 C 19,3 km/h (3 Bft) 100,00 %
11.01.2019 17:20 -2,4 C 3,9 C -2,2 C 91 % 1022,9 hPa 0,0 l/m 15,2 km/h (3 Bft) W-NW 286 0 min 0,000 mm 0,0 UV-I 0 W/m -3,7 C -10,0 C 22,5 km/h (4 Bft) 97,87 %
11.01.2019 17:22 -2,4 C 3,9 C -2,8 C 91 % 1022,8 hPa 0,0 l/m 14,6 km/h (3 Bft) SW 225 0 min 0,000 mm 0,0 UV-I 0 W/m -3,7 C -9,6 C 22,5 km/h (4 Bft) 100,00 %
11.01.2019 17:24 -2,4 C 3,9 C -2,8 C 91 % 1022,9 hPa 0,0 l/m 14,7 km/h (3 Bft) W-SW 257 0 min 0,000 mm 0,0 UV-I 0 W/m -3,7 C -9,7 C 20,9 km/h (4 Bft) 100,00 %
11.01.2019 17:26 -2,4 C 3,9 C -2,8 C 91 % 1022,8 hPa 0,0 l/m 15,6 km/h (3 Bft) W-NW 287 0 min 0,000 mm 0,0 UV-I 0 W/m -3,7 C -10,3 C 24,1 km/h (4 Bft) 98,00 %
11.01.2019 17:28 -2,4 C 3,9 C -2,8 C 91 % 1022,8 hPa 0,0 l/m 12,2 km/h (2 Bft) W-SW 254 0 min 0,000 mm 0,0 UV-I 0 W/m -3,7 C -7,9 C 19,3 km/h (3 Bft) 100,00 %
11.01.2019 17:30 -2,4 C 3,9 C -2,8 C 91 % 1022,8 hPa 0,0 l/m 14,8 km/h (3 Bft) W-SW 244 0 min 0,000 mm 0,0 UV-I 0 W/m -3,7 C -9,8 C 20,9 km/h (4 Bft) 100,00 %
11.01.2019 17:32 -2,4 C 3,9 C -2,8 C 92 % 1022,7 hPa 0,0 l/m 15,1 km/h (3 Bft) SW 230 0 min 0,000 mm 0,0 UV-I 0 W/m -3,5 C -10,0 C 22,5 km/h (4 Bft) 98,00 %
11.01.2019 17:34 -2,4 C 3,9 C -2,8 C 92 % 1022,6 hPa 0,0 l/m 13,5 km/h (3 Bft) SW 221 0 min 0,000 mm 0,0 UV-I 0 W/m -3,5 C -8,9 C 19,3 km/h (3 Bft) 100,00 %
11.01.2019 17:36 -2,3 C 3,9 C -2,8 C 92 % 1022,6 hPa 0,0 l/m 15,7 km/h (3 Bft) W-SW 255 0 min 0,000 mm 0,0 UV-I 0 W/m -3,4 C -10,2 C 22,5 km/h (4 Bft) 100,00 %
11.01.2019 17:38 -2,3 C 3,9 C -2,8 C 92 % 1022,6 hPa 0,0 l/m 18,3 km/h (3 Bft) W 266 0 min 0,000 mm 0,0 UV-I 0 W/m -3,4 C -11,7 C 30,6 km/h (5 Bft) 95,74 %
11.01.2019 17:40 -2,3 C 3,9 C -2,8 C 92 % 1022,6 hPa 0,0 l/m 16,3 km/h (3 Bft) W-SW 256 0 min 0,000 mm 0,0 UV-I 0 W/m -3,4 C -10,6 C 27,4 km/h (4 Bft) 97,87 %
11.01.2019 17:42 -2,3 C 3,9 C -2,8 C 91 % 1022,6 hPa 0,0 l/m 16,3 km/h (3 Bft) W 263 0 min 0,000 mm 0,0 UV-I 0 W/m -3,6 C -10,6 C 22,5 km/h (4 Bft) 93,62 %
11.01.2019 17:44 -2,3 C 3,9 C -2,8 C 91 % 1022,6 hPa 0,0 l/m 15,1 km/h (3 Bft) W-SW 255 0 min 0,000 mm 0,0 UV-I 0 W/m -3,6 C -9,8 C 22,5 km/h (4 Bft) 94,87 %
11.01.2019 17:46 -2,3 C 3,9 C -2,8 C 91 % 1022,7 hPa 0,0 l/m 18,0 km/h (3 Bft) W-SW 248 0 min 0,000 mm 0,0 UV-I 0 W/m -3,6 C -11,6 C 29,0 km/h (5 Bft) 95,74 %
11.01.2019 17:48 -2,3 C 3,9 C -2,8 C 91 % 1022,6 hPa 0,0 l/m 16,4 km/h (3 Bft) W 261 0 min 0,000 mm 0,0 UV-I 0 W/m -3,6 C -10,6 C 25,7 km/h (4 Bft) 95,74 %
11.01.2019 17:50 -2,3 C 3,9 C -2,8 C 92 % 1022,6 hPa 0,0 l/m 14,9 km/h (3 Bft) W 259 0 min 0,000 mm 0,0 UV-I 0 W/m -3,4 C -9,7 C 22,5 km/h (4 Bft) 91,49 %
11.01.2019 17:52 -2,3 C 3,9 C -2,8 C 92 % 1022,6 hPa 0,0 l/m 19,6 km/h (3 Bft) W-SW 250 0 min 0,000 mm 0,0 UV-I 0 W/m -3,4 C -12,4 C 29,0 km/h (5 Bft) 91,49 %
11.01.2019 17:54 -2,3 C 3,9 C -2,8 C 92 % 1022,6 hPa 0,0 l/m 18,7 km/h (3 Bft) W 259 0 min 0,000 mm 0,0 UV-I 0 W/m -3,4 C -11,9 C 27,4 km/h (4 Bft) 94,00 %
11.01.2019 17:56 -2,3 C 3,9 C -2,8 C 92 % 1022,5 hPa 0,0 l/m 13,9 km/h (3 Bft) W 275 0 min 0,000 mm 0,0 UV-I 0 W/m -3,4 C -9,0 C 27,4 km/h (4 Bft) 90,00 %
11.01.2019 17:58 -2,3 C 3,9 C -2,8 C 92 % 1022,6 hPa 0,0 l/m 17,3 km/h (3 Bft) W-SW 250 0 min 0,000 mm 0,0 UV-I 0 W/m -3,4 C -11,2 C 24,1 km/h (4 Bft) 93,62 %
11.01.2019 18:00 -2,3 C 3,9 C -2,8 C 92 % 1022,7 hPa 0,0 l/m 14,9 km/h (3 Bft) W-SW 254 0 min 0,000 mm 0,0 UV-I 0 W/m -3,4 C -9,7 C 20,9 km/h (4 Bft) 93,62 %
11.01.2019 18:02 -2,3 C 3,9 C -2,8 C 92 % 1022,6 hPa 0,0 l/m 17,0 km/h (3 Bft) W 263 0 min 0,000 mm 0,0 UV-I 0 W/m -3,4 C -11,0 C 24,1 km/h (4 Bft) 93,62 %
11.01.2019 18:04 -2,3 C 3,9 C -2,8 C 92 % 1022,5 hPa 0,0 l/m 13,8 km/h (3 Bft) W 261 0 min 0,000 mm 0,0 UV-I 0 W/m -3,4 C -9,0 C 20,9 km/h (4 Bft) 91,49 %
11.01.2019 18:06 -2,3 C 3,9 C -2,8 C 92 % 1022,5 hPa 0,0 l/m 15,8 km/h (3 Bft) W 280 0 min 0,000 mm 0,0 UV-I 0 W/m -3,4 C -10,3 C 24,1 km/h (4 Bft) 93,62 %
11.01.2019 18:08 -2,3 C 3,9 C -2,8 C 92 % 1022,6 hPa 0,0 l/m 18,4 km/h (3 Bft) W-NW 288 0 min 0,000 mm 0,0 UV-I 0 W/m -3,4 C -11,8 C 29,0 km/h (5 Bft) 89,36 %
11.01.2019 18:10 -2,3 C 3,9 C -2,8 C 92 % 1022,5 hPa 0,0 l/m 14,2 km/h (3 Bft) SW 234 0 min 0,000 mm 0,0 UV-I 0 W/m -3,4 C -9,2 C 22,5 km/h (4 Bft) 92,11 %
11.01.2019 18:12 -2,3 C 3,9 C -2,8 C 92 % 1022,5 hPa 0,0 l/m 16,5 km/h (3 Bft) W 261 0 min 0,000 mm 0,0 UV-I 0 W/m -3,4 C -10,7 C 24,1 km/h (4 Bft) 93,62 %
11.01.2019 18:14 -2,3 C 3,9 C -2,8 C 92 % 1022,4 hPa 0,0 l/m 17,5 km/h (3 Bft) W 267 0 min 0,000 mm 0,0 UV-I 0 W/m -3,4 C -11,3 C 25,7 km/h (4 Bft) 95,74 %
11.01.2019 18:16 -2,3 C 3,9 C -2,8 C 92 % 1022,5 hPa 0,0 l/m 13,3 km/h (3 Bft) W-SW 243 0 min 0,000 mm 0,0 UV-I 0 W/m -3,4 C -8,6 C 20,9 km/h (4 Bft) 98,00 %
11.01.2019 18:18 -2,3 C 3,9 C -2,8 C 92 % 1022,5 hPa 0,0 l/m 17,5 km/h (3 Bft) W 261 0 min 0,000 mm 0,0 UV-I 0 W/m -3,4 C -11,3 C 24,1 km/h (4 Bft) 98,00 %
11.01.2019 18:20 -2,3 C 3,9 C -2,8 C 92 % 1022,5 hPa 0,0 l/m 15,5 km/h (3 Bft) W-SW 253 0 min 0,000 mm 0,0 UV-I 0 W/m -3,4 C -10,1 C 24,1 km/h (4 Bft) 97,87 %
11.01.2019 18:22 -2,3 C 3,9 C -2,8 C 93 % 1022,4 hPa 0,0 l/m 13,6 km/h (3 Bft) SW 234 0 min 0,000 mm 0,0 UV-I 0 W/m -3,3 C -8,8 C 17,7 km/h (3 Bft) 97,87 %
11.01.2019 18:24 -2,3 C 3,9 C -2,8 C 93 % 1022,4 hPa 0,0 l/m 14,5 km/h (3 Bft) W-SW 249 0 min 0,000 mm 0,0 UV-I 0 W/m -3,3 C -9,4 C 20,9 km/h (4 Bft) 95,83 %
11.01.2019 18:26 -2,3 C 3,9 C -2,8 C 93 % 1022,4 hPa 0,0 l/m 14,0 km/h (3 Bft) W-SW 243 0 min 0,000 mm 0,0 UV-I 0 W/m -3,3 C -9,1 C 20,9 km/h (4 Bft) 95,74 %
11.01.2019 18:28 -2,3 C 3,9 C -2,8 C 93 % 1022,5 hPa 0,0 l/m 12,1 km/h (2 Bft) W 265 0 min 0,000 mm 0,0 UV-I 0 W/m -3,3 C -7,7 C 20,9 km/h (4 Bft) 95,74 %
11.01.2019 18:30 -2,3 C 3,9 C -2,8 C 93 % 1022,4 hPa 0,0 l/m 15,2 km/h (3 Bft) SW 224 0 min 0,000 mm 0,0 UV-I 0 W/m -3,3 C -9,9 C 22,5 km/h (4 Bft) 93,62 %
11.01.2019 18:32 -2,3 C 3,9 C -2,8 C 93 % 1022,4 hPa 0,0 l/m 16,7 km/h (3 Bft) SW 233 0 min 0,000 mm 0,0 UV-I 0 W/m -3,3 C -10,8 C 24,1 km/h (4 Bft) 97,87 %
11.01.2019 18:34 -2,3 C 3,9 C -2,8 C 93 % 1022,4 hPa 0,0 l/m 19,0 km/h (3 Bft) W 269 0 min 0,000 mm 0,0 UV-I 0 W/m -3,3 C -12,1 C 25,7 km/h (4 Bft) 95,74 %
11.01.2019 18:36 -2,3 C 3,9 C -2,2 C 93 % 1022,4 hPa 0,0 l/m 18,5 km/h (3 Bft) W-SW 243 0 min 0,000 mm 0,0 UV-I 0 W/m -3,3 C -11,8 C 24,1 km/h (4 Bft) 97,87 %
11.01.2019 18:38 -2,3 C 3,9 C -2,2 C 93 % 1022,4 hPa 0,0 l/m 14,0 km/h (3 Bft) W 279 0 min 0,000 mm 0,0 UV-I 0 W/m -3,3 C -9,1 C 25,7 km/h (4 Bft) 97,37 %
11.01.2019 18:40 -2,3 C 3,9 C -2,2 C 93 % 1022,3 hPa 0,0 l/m 17,5 km/h (3 Bft) W 275 0 min 0,000 mm 0,0 UV-I 0 W/m -3,3 C -11,3 C 25,7 km/h (4 Bft) 95,74 %
11.01.2019 18:42 -2,3 C 3,9 C -2,2 C 93 % 1022,3 hPa 0,0 l/m 17,0 km/h (3 Bft) SW 219 0 min 0,000 mm 0,0 UV-I 0 W/m -3,3 C -11,0 C 24,1 km/h (4 Bft) 98,00 %
11.01.2019 18:44 -2,3 C 3,9 C -2,2 C 93 % 1022,4 hPa 0,0 l/m 16,8 km/h (3 Bft) SW 215 0 min 0,000 mm 0,0 UV-I 0 W/m -3,3 C -10,9 C 24,1 km/h (4 Bft) 93,62 %
11.01.2019 18:46 -2,3 C 3,9 C -2,2 C 93 % 1022,3 hPa 0,0 l/m 16,5 km/h (3 Bft) W-SW 246 0 min 0,000 mm 0,0 UV-I 0 W/m -3,3 C -10,7 C 30,6 km/h (5 Bft) 96,00 %
11.01.2019 18:48 -2,3 C 3,9 C -2,2 C 93 % 1022,3 hPa 0,0 l/m 19,1 km/h (3 Bft) W-SW 253 0 min 0,000 mm 0,0 UV-I 0 W/m -3,3 C -12,1 C 27,4 km/h (4 Bft) 94,00 %
11.01.2019 18:50 -2,2 C 3,9 C -2,2 C 93 % 1022,3 hPa 0,0 l/m 19,6 km/h (3 Bft) SW 225 0 min 0,000 mm 0,0 UV-I 0 W/m -3,2 C -12,3 C 27,4 km/h (4 Bft) 97,14 %
11.01.2019 18:52 -2,2 C 3,9 C -2,2 C 93 % 1022,2 hPa 0,0 l/m 21,4 km/h (4 Bft) SW 229 0 min 0,000 mm 0,0 UV-I 0 W/m -3,2 C -13,1 C 29,0 km/h (5 Bft) 98,11 %
11.01.2019 18:54 -2,2 C 3,9 C -2,2 C 93 % 1022,2 hPa 0,0 l/m 19,1 km/h (3 Bft) SW 233 0 min 0,000 mm 0,0 UV-I 0 W/m -3,2 C -12,0 C 29,0 km/h (5 Bft) 95,74 %
11.01.2019 18:56 -2,2 C 3,9 C -2,2 C 93 % 1022,1 hPa 0,0 l/m 20,2 km/h (4 Bft) SW 220 0 min 0,000 mm 0,0 UV-I 0 W/m -3,2 C -12,6 C 29,0 km/h (5 Bft) 98,00 %
11.01.2019 18:58 -2,2 C 3,9 C -2,2 C 93 % 1022,2 hPa 0,0 l/m 18,2 km/h (3 Bft) W-SW 240 0 min 0,000 mm 0,0 UV-I 0 W/m -3,2 C -11,5 C 25,7 km/h (4 Bft) 97,87 %
11.01.2019 19:00 -2,2 C 3,9 C -2,2 C 93 % 1022,2 hPa 0,0 l/m 20,7 km/h (4 Bft) SW 217 0 min 0,000 mm 0,0 UV-I 0 W/m -3,2 C -12,8 C 30,6 km/h (5 Bft) 97,87 %
11.01.2019 19:02 -2,2 C 3,9 C -2,2 C 93 % 1022,1 hPa 0,0 l/m 16,3 km/h (3 Bft) W-SW 243 0 min 0,000 mm 0,0 UV-I 0 W/m -3,2 C -10,5 C 22,5 km/h (4 Bft) 100,00 %
11.01.2019 19:04 -2,2 C 3,9 C -2,2 C 93 % 1022,1 hPa 0,0 l/m 18,1 km/h (3 Bft) W-SW 247 0 min 0,000 mm 0,0 UV-I 0 W/m -3,2 C -11,5 C 25,7 km/h (4 Bft) 97,87 %
11.01.2019 19:06 -2,2 C 3,9 C -2,2 C 93 % 1022,1 hPa 0,0 l/m 19,8 km/h (3 Bft) W-SW 250 0 min 0,000 mm 0,0 UV-I 0 W/m -3,2 C -12,4 C 27,4 km/h (4 Bft) 98,00 %
11.01.2019 19:08 -2,2 C 3,9 C -2,2 C 93 % 1022,1 hPa 0,0 l/m 16,7 km/h (3 Bft) W-SW 243 0 min 0,000 mm 0,0 UV-I 0 W/m -3,2 C -10,7 C 22,5 km/h (4 Bft) 100,00 %
11.01.2019 19:10 -2,1 C 3,9 C -2,2 C 93 % 1022,1 hPa 0,0 l/m 20,1 km/h (4 Bft) W-SW 241 0 min 0,000 mm 0,0 UV-I 0 W/m -3,1 C -12,4 C 27,4 km/h (4 Bft) 97,87 %
11.01.2019 19:12 -2,1 C 3,9 C -2,2 C 93 % 1022,1 hPa 0,0 l/m 16,3 km/h (3 Bft) W 261 0 min 0,000 mm 0,0 UV-I 0 W/m -3,1 C -10,3 C 29,0 km/h (5 Bft) 97,87 %
11.01.2019 19:14 -2,1 C 3,9 C -2,2 C 93 % 1022,0 hPa 0,0 l/m 21,5 km/h (4 Bft) SW 232 0 min 0,000 mm 0,0 UV-I 0 W/m -3,1 C -13,1 C 32,2 km/h (5 Bft) 97,87 %
11.01.2019 19:16 -2,1 C 3,9 C -2,2 C 93 % 1022,0 hPa 0,0 l/m 20,2 km/h (4 Bft) SW 232 0 min 0,000 mm 0,0 UV-I 0 W/m -3,1 C -12,4 C 29,0 km/h (5 Bft) 97,87 %
11.01.2019 19:18 -2,1 C 3,9 C -2,2 C 93 % 1022,0 hPa 0,0 l/m 17,8 km/h (3 Bft) W-SW 257 0 min 0,000 mm 0,0 UV-I 0 W/m -3,1 C -11,2 C 25,7 km/h (4 Bft) 95,74 %
11.01.2019 19:20 -2,1 C 3,9 C -2,2 C 94 % 1022,0 hPa 0,0 l/m 16,5 km/h (3 Bft) W-SW 253 0 min 0,000 mm 0,0 UV-I 0 W/m -2,9 C -10,4 C 29,0 km/h (5 Bft) 97,87 %
11.01.2019 19:22 -2,1 C 3,9 C -2,2 C 94 % 1022,1 hPa 0,0 l/m 18,0 km/h (3 Bft) SW 232 0 min 0,000 mm 0,0 UV-I 0 W/m -2,9 C -11,3 C 27,4 km/h (4 Bft) 94,00 %
11.01.2019 19:24 -2,1 C 3,9 C -2,2 C 94 % 1022,1 hPa 0,0 l/m 17,7 km/h (3 Bft) W-SW 237 0 min 0,000 mm 0,0 UV-I 0 W/m -2,9 C -11,1 C 29,0 km/h (5 Bft) 100,00 %
11.01.2019 19:26 -2,1 C 3,9 C -2,2 C 94 % 1022,1 hPa 0,0 l/m 18,8 km/h (3 Bft) W-NW 284 0 min 0,000 mm 0,0 UV-I 0 W/m -2,9 C -11,7 C 32,2 km/h (5 Bft) 100,00 %
11.01.2019 19:29 -2,1 C 3,9 C -2,2 C 94 % 1022,1 hPa 0,0 l/m 15,7 km/h (3 Bft) W-SW 254 0 min 0,000 mm 0,0 UV-I 0 W/m -2,9 C -10,0 C 22,5 km/h (4 Bft) 97,50 %
11.01.2019 19:30 -2,1 C 3,9 C -2,2 C 94 % 1022,1 hPa 0,0 l/m 18,7 km/h (3 Bft) W-SW 239 0 min 0,000 mm 0,0 UV-I 0 W/m -2,9 C -11,7 C 24,1 km/h (4 Bft) 100,00 %
11.01.2019 19:32 -2,1 C 3,9 C -2,2 C 94 % 1022,1 hPa 0,0 l/m 19,2 km/h (3 Bft) SW 227 0 min 0,000 mm 0,0 UV-I 0 W/m -2,9 C -11,9 C 25,7 km/h (4 Bft) 100,00 %
11.01.2019 19:34 -2,1 C 3,9 C -2,2 C 94 % 1022,0 hPa 0,0 l/m 19,0 km/h (3 Bft) W-SW 238 0 min 0,000 mm 0,0 UV-I 0 W/m -2,9 C -11,8 C 27,4 km/h (4 Bft) 100,00 %
11.01.2019 19:36 -2,0 C 3,9 C -2,2 C 94 % 1022,0 hPa 0,0 l/m 19,4 km/h (3 Bft) W-SW 246 0 min 0,000 mm 0,0 UV-I 0 W/m -2,8 C -11,9 C 29,0 km/h (5 Bft) 100,00 %
11.01.2019 19:38 -2,0 C 3,9 C -2,2 C 94 % 1022,0 hPa 0,0 l/m 17,3 km/h (3 Bft) W-SW 244 0 min 0,000 mm 0,0 UV-I 0 W/m -2,8 C -10,8 C 27,4 km/h (4 Bft) 91,49 %
11.01.2019 19:40 -2,0 C 3,9 C -2,2 C 94 % 1022,0 hPa 0,0 l/m 16,6 km/h (3 Bft) W 262 0 min 0,000 mm 0,0 UV-I 0 W/m -2,8 C -10,4 C 20,9 km/h (4 Bft) 100,00 %
11.01.2019 19:42 -2,0 C 3,9 C -2,2 C 94 % 1022,0 hPa 0,0 l/m 18,0 km/h (3 Bft) W-SW 252 0 min 0,000 mm 0,0 UV-I 0 W/m -2,8 C -11,2 C 24,1 km/h (4 Bft) 100,00 %
11.01.2019 19:44 -2,0 C 3,9 C -2,2 C 94 % 1022,1 hPa 0,0 l/m 15,4 km/h (3 Bft) W-SW 244 0 min 0,000 mm 0,0 UV-I 0 W/m -2,8 C -9,7 C 25,7 km/h (4 Bft) 100,00 %
11.01.2019 19:46 -2,0 C 3,9 C -2,2 C 94 % 1022,1 hPa 0,0 l/m 15,3 km/h (3 Bft) W-SW 241 0 min 0,000 mm 0,0 UV-I 0 W/m -2,8 C -9,6 C 25,7 km/h (4 Bft) 93,62 %
11.01.2019 19:48 -2,0 C 3,9 C -2,2 C 94 % 1022,1 hPa 0,0 l/m 15,7 km/h (3 Bft) W-SW 246 0 min 0,000 mm 0,0 UV-I 0 W/m -2,8 C -9,8 C 25,7 km/h (4 Bft) 96,00 %
11.01.2019 19:50 -2,0 C 3,9 C -2,2 C 94 % 1022,1 hPa 0,0 l/m 13,4 km/h (3 Bft) W-SW 254 0 min 0,000 mm 0,0 UV-I 0 W/m -2,8 C -8,3 C 19,3 km/h (3 Bft) 95,74 %
11.01.2019 19:52 -2,0 C 3,9 C -2,2 C 94 % 1022,0 hPa 0,0 l/m 15,3 km/h (3 Bft) W-SW 250 0 min 0,000 mm 0,0 UV-I 0 W/m -2,8 C -9,6 C 22,5 km/h (4 Bft) 98,00 %
11.01.2019 19:54 -2,0 C 3,9 C -2,2 C 94 % 1022,0 hPa 0,0 l/m 18,4 km/h (3 Bft) W-SW 240 0 min 0,000 mm 0,0 UV-I 0 W/m -2,8 C -11,4 C 25,7 km/h (4 Bft) 97,87 %
11.01.2019 19:56 -2,0 C 3,9 C -2,2 C 94 % 1022,0 hPa 0,0 l/m 15,3 km/h (3 Bft) W-SW 245 0 min 0,000 mm 0,0 UV-I 0 W/m -2,8 C -9,6 C 22,5 km/h (4 Bft) 97,37 %
11.01.2019 19:58 -2,0 C 3,9 C -2,2 C 94 % 1022,0 hPa 0,0 l/m 15,1 km/h (3 Bft) W-SW 258 0 min 0,000 mm 0,0 UV-I 0 W/m -2,8 C -9,5 C 22,5 km/h (4 Bft) 96,00 %
11.01.2019 20:00 -2,0 C 3,9 C -2,2 C 94 % 1022,1 hPa 0,0 l/m 14,3 km/h (3 Bft) W 276 0 min 0,000 mm 0,0 UV-I 0 W/m -2,8 C -8,9 C 22,5 km/h (4 Bft) 95,74 %
11.01.2019 20:02 -2,0 C 3,9 C -2,2 C 94 % 1022,1 hPa 0,0 l/m 14,5 km/h (3 Bft) W-SW 251 0 min 0,000 mm 0,0 UV-I 0 W/m -2,8 C -9,1 C 20,9 km/h (4 Bft) 97,87 %
11.01.2019 20:04 -2,0 C 3,9 C -2,2 C 94 % 1022,1 hPa 0,0 l/m 15,0 km/h (3 Bft) W-SW 241 0 min 0,000 mm 0,0 UV-I 0 W/m -2,8 C -9,4 C 25,7 km/h (4 Bft) 95,74 %
11.01.2019 20:06 -2,0 C 3,9 C -2,2 C 94 % 1022,0 hPa 0,0 l/m 20,4 km/h (4 Bft) W-SW 256 0 min 0,000 mm 0,0 UV-I 0 W/m -2,8 C -12,4 C 29,0 km/h (5 Bft) 95,74 %
11.01.2019 20:08 -2,0 C 3,9 C -1,7 C 94 % 1022,0 hPa 0,0 l/m 17,4 km/h (3 Bft) W-SW 242 0 min 0,000 mm 0,0 UV-I 0 W/m -2,8 C -10,8 C 27,4 km/h (4 Bft) 97,87 %
11.01.2019 20:10 -2,0 C 3,9 C -1,7 C 94 % 1022,0 hPa 0,0 l/m 17,1 km/h (3 Bft) W-SW 246 0 min 0,000 mm 0,0 UV-I 0 W/m -2,8 C -10,7 C 27,4 km/h (4 Bft) 97,87 %
11.01.2019 20:12 -2,0 C 3,9 C -1,7 C 94 % 1022,0 hPa 0,0 l/m 17,9 km/h (3 Bft) W-SW 238 0 min 0,000 mm 0,0 UV-I 0 W/m -2,8 C -11,1 C 25,7 km/h (4 Bft) 97,87 %
11.01.2019 20:14 -2,0 C 3,9 C -1,7 C 94 % 1022,1 hPa 0,0 l/m 15,4 km/h (3 Bft) W 265 0 min 0,000 mm 0,0 UV-I 0 W/m -2,8 C -9,7 C 22,5 km/h (4 Bft) 97,87 %
11.01.2019 20:16 -2,0 C 3,9 C -1,7 C 94 % 1022,1 hPa 0,0 l/m 15,0 km/h (3 Bft) NW 304 0 min 0,000 mm 0,0 UV-I 0 W/m -2,8 C -9,4 C 22,5 km/h (4 Bft) 95,74 %
11.01.2019 20:18 -2,0 C 3,9 C -1,7 C 94 % 1022,1 hPa 0,0 l/m 17,6 km/h (3 Bft) W-SW 257 0 min 0,000 mm 0,0 UV-I 0 W/m -2,8 C -11,0 C 25,7 km/h (4 Bft) 95,83 %
11.01.2019 20:20 -2,0 C 3,9 C -1,7 C 94 % 1022,0 hPa 0,0 l/m 17,5 km/h (3 Bft) SW 214 0 min 0,000 mm 0,0 UV-I 0 W/m -2,8 C -10,9 C 27,4 km/h (4 Bft) 91,49 %
11.01.2019 20:22 -2,0 C 3,9 C -1,7 C 94 % 1022,1 hPa 0,0 l/m 18,0 km/h (3 Bft) W 265 0 min 0,000 mm 0,0 UV-I 0 W/m -2,8 C -11,2 C 25,7 km/h (4 Bft) 95,74 %
11.01.2019 20:24 -2,0 C 3,9 C -1,7 C 94 % 1022,1 hPa 0,0 l/m 16,9 km/h (3 Bft) W-SW 247 0 min 0,000 mm 0,0 UV-I 0 W/m -2,8 C -10,6 C 24,1 km/h (4 Bft) 95,74 %
11.01.2019 20:26 -2,0 C 3,9 C -1,7 C 94 % 1022,1 hPa 0,0 l/m 15,8 km/h (3 Bft) W 259 0 min 0,000 mm 0,0 UV-I 0 W/m -2,8 C -9,9 C 24,1 km/h (4 Bft) 95,74 %
11.01.2019 20:28 -2,0 C 3,9 C -1,7 C 94 % 1022,1 hPa 0,0 l/m 20,0 km/h (4 Bft) SW 223 0 min 0,000 mm 0,0 UV-I 0 W/m -2,8 C -12,2 C 29,0 km/h (5 Bft) 97,56 %
11.01.2019 20:30 -2,0 C 3,9 C -1,7 C 94 % 1022,0 hPa 0,0 l/m 14,6 km/h (3 Bft) SW 229 0 min 0,000 mm 0,0 UV-I 0 W/m -2,8 C -9,1 C 24,1 km/h (4 Bft) 98,00 %
11.01.2019 20:32 -2,0 C 3,9 C -1,7 C 94 % 1022,1 hPa 0,0 l/m 13,8 km/h (3 Bft) W 261 0 min 0,000 mm 0,0 UV-I 0 W/m -2,8 C -8,6 C 19,3 km/h (3 Bft) 97,87 %
11.01.2019 20:34 -2,0 C 3,9 C -1,7 C 94 % 1022,1 hPa 0,0 l/m 14,1 km/h (3 Bft) W 265 0 min 0,000 mm 0,0 UV-I 0 W/m -2,8 C -8,8 C 20,9 km/h (4 Bft) 95,74 %
11.01.2019 20:36 -2,0 C 3,9 C -1,7 C 94 % 1022,1 hPa 0,0 l/m 15,0 km/h (3 Bft) W 269 0 min 0,000 mm 0,0 UV-I 0 W/m -2,8 C -9,4 C 24,1 km/h (4 Bft) 97,87 %
11.01.2019 20:38 -2,0 C 3,9 C -1,7 C 94 % 1022,0 hPa 0,0 l/m 15,7 km/h (3 Bft) W-SW 252 0 min 0,000 mm 0,0 UV-I 0 W/m -2,8 C -9,8 C 22,5 km/h (4 Bft) 97,87 %
11.01.2019 20:40 -2,0 C 3,9 C -1,7 C 94 % 1022,1 hPa 0,0 l/m 13,5 km/h (3 Bft) W-SW 252 0 min 0,000 mm 0,0 UV-I 0 W/m -2,8 C -8,4 C 22,5 km/h (4 Bft) 100,00 %
11.01.2019 20:42 -2,0 C 3,9 C -1,7 C 94 % 1022,1 hPa 0,0 l/m 18,0 km/h (3 Bft) W-SW 248 0 min 0,000 mm 0,0 UV-I 0 W/m -2,8 C -11,2 C 25,7 km/h (4 Bft) 100,00 %
11.01.2019 20:44 -2,0 C 3,9 C -1,7 C 94 % 1022,0 hPa 0,0 l/m 17,8 km/h (3 Bft) W-SW 255 0 min 0,000 mm 0,0 UV-I 0 W/m -2,8 C -11,1 C 27,4 km/h (4 Bft) 98,00 %
11.01.2019 20:46 -2,0 C 3,9 C -1,7 C 94 % 1022,0 hPa 0,0 l/m 15,4 km/h (3 Bft) SW 217 0 min 0,000 mm 0,0 UV-I 0 W/m -2,8 C -9,7 C 25,7 km/h (4 Bft) 100,00 %
11.01.2019 20:48 -2,0 C 3,9 C -1,7 C 94 % 1022,0 hPa 0,0 l/m 16,5 km/h (3 Bft) W-SW 250 0 min 0,000 mm 0,0 UV-I 0 W/m -2,8 C -10,3 C 32,2 km/h (5 Bft) 97,87 %
11.01.2019 20:50 -2,0 C 3,9 C -1,7 C 94 % 1022,1 hPa 0,0 l/m 20,3 km/h (4 Bft) SW 235 0 min 0,000 mm 0,0 UV-I 0 W/m -2,8 C -12,4 C 25,7 km/h (4 Bft) 91,49 %
11.01.2019 20:52 -2,0 C 3,9 C -1,7 C 94 % 1022,0 hPa 0,0 l/m 20,2 km/h (4 Bft) W-SW 244 0 min 0,000 mm 0,0 UV-I 0 W/m -2,8 C -12,3 C 29,0 km/h (5 Bft) 100,00 %
11.01.2019 20:54 -2,0 C 3,9 C -1,7 C 94 % 1022,0 hPa 0,0 l/m 19,2 km/h (3 Bft) W-SW 241 0 min 0,000 mm 0,0 UV-I 0 W/m -2,8 C -11,8 C 27,4 km/h (4 Bft) 98,39 %
11.01.2019 20:56 -2,0 C 3,9 C -1,7 C 94 % 1022,0 hPa 0,0 l/m 18,2 km/h (3 Bft) W-SW 247 0 min 0,000 mm 0,0 UV-I 0 W/m -2,8 C -11,3 C 24,1 km/h (4 Bft) 100,00 %
11.01.2019 20:59 -2,0 C 3,9 C -1,7 C 94 % 1021,9 hPa 0,0 l/m 20,3 km/h (4 Bft) W-SW 245 0 min 0,000 mm 0,0 UV-I 0 W/m -2,8 C -12,4 C 30,6 km/h (5 Bft) 97,18 %
11.01.2019 21:00 -2,0 C 3,9 C -1,7 C 94 % 1021,9 hPa 0,0 l/m 17,0 km/h (3 Bft) SW 234 0 min 0,000 mm 0,0 UV-I 0 W/m -2,8 C -10,6 C 30,6 km/h (5 Bft) 100,00 %
11.01.2019 21:02 -2,0 C 3,9 C -1,7 C 94 % 1021,8 hPa 0,0 l/m 24,0 km/h (4 Bft) W-SW 257 0 min 0,000 mm 0,0 UV-I 0 W/m -2,8 C -14,0 C 35,4 km/h (5 Bft) 97,87 %
11.01.2019 21:04 -2,0 C 3,9 C -1,7 C 94 % 1021,8 hPa 0,0 l/m 23,1 km/h (4 Bft) W-SW 248 0 min 0,000 mm 0,0 UV-I 0 W/m -2,8 C -13,6 C 32,2 km/h (5 Bft) 100,00 %
11.01.2019 21:06 -2,1 C 3,9 C -1,7 C 94 % 1021,8 hPa 0,0 l/m 21,1 km/h (4 Bft) W-SW 251 0 min 0,000 mm 0,0 UV-I 0 W/m -2,9 C -12,9 C 32,2 km/h (5 Bft) 100,00 %
11.01.2019 21:09 -2,1 C 3,9 C -1,7 C 93 % 1021,8 hPa 0,0 l/m 20,9 km/h (4 Bft) W-SW 248 0 min 0,000 mm 0,0 UV-I 0 W/m -3,1 C -12,8 C 32,2 km/h (5 Bft) 100,00 %
11.01.2019 21:10 -2,1 C 3,9 C -1,7 C 93 % 1021,8 hPa 0,0 l/m 22,5 km/h (4 Bft) W-SW 252 0 min 0,000 mm 0,0 UV-I 0 W/m -3,1 C -13,5 C 29,0 km/h (5 Bft) 100,00 %
11.01.2019 21:12 -2,1 C 3,9 C -1,7 C 93 % 1021,9 hPa 0,0 l/m 23,2 km/h (4 Bft) SW 235 0 min 0,000 mm 0,0 UV-I 0 W/m -3,1 C -13,8 C 32,2 km/h (5 Bft) 94,74 %
11.01.2019 21:14 -2,1 C 3,9 C -1,7 C 93 % 1021,8 hPa 0,0 l/m 20,5 km/h (4 Bft) W-SW 237 0 min 0,000 mm 0,0 UV-I 0 W/m -3,1 C -12,6 C 32,2 km/h (5 Bft) 98,00 %
11.01.2019 21:16 -2,1 C 3,9 C -1,7 C 93 % 1021,8 hPa 0,0 l/m 16,5 km/h (3 Bft) SW 231 0 min 0,000 mm 0,0 UV-I 0 W/m -3,1 C -10,4 C 22,5 km/h (4 Bft) 100,00 %
11.01.2019 21:19 -2,1 C 3,9 C -1,7 C 94 % 1021,9 hPa 0,0 l/m 21,5 km/h (4 Bft) W-SW 249 0 min 0,000 mm 0,0 UV-I 0 W/m -2,9 C -13,1 C 35,4 km/h (5 Bft) 98,59 %
11.01.2019 21:20 -2,1 C 3,9 C -1,7 C 94 % 1021,9 hPa 0,0 l/m 20,9 km/h (4 Bft) W-SW 240 0 min 0,000 mm 0,0 UV-I 0 W/m -2,9 C -12,8 C 29,0 km/h (5 Bft) 100,00 %
11.01.2019 21:22 -2,1 C 3,9 C -1,7 C 94 % 1021,9 hPa 0,0 l/m 21,6 km/h (4 Bft) W-SW 244 0 min 0,000 mm 0,0 UV-I 0 W/m -2,9 C -13,1 C 32,2 km/h (5 Bft) 97,87 %
11.01.2019 21:24 -2,1 C 3,9 C -1,7 C 94 % 1021,9 hPa 0,0 l/m 22,4 km/h (4 Bft) SW 234 0 min 0,000 mm 0,0 UV-I 0 W/m -2,9 C -13,5 C 37,0 km/h (5 Bft) 100,00 %
11.01.2019 21:26 -2,1 C 3,9 C -1,7 C 94 % 1021,8 hPa 0,0 l/m 19,5 km/h (3 Bft) SW 224 0 min 0,000 mm 0,0 UV-I 0 W/m -2,9 C -12,1 C 27,4 km/h (4 Bft) 100,00 %
11.01.2019 21:29 -2,1 C 3,9 C -1,7 C 94 % 1021,8 hPa 0,0 l/m 20,3 km/h (4 Bft) SW 234 0 min 0,000 mm 0,0 UV-I 0 W/m -2,9 C -12,5 C 32,2 km/h (5 Bft) 100,00 %
11.01.2019 21:30 -2,1 C 3,9 C -1,7 C 94 % 1021,8 hPa 0,0 l/m 23,9 km/h (4 Bft) W 262 0 min 0,000 mm 0,0 UV-I 0 W/m -2,9 C -14,1 C 30,6 km/h (5 Bft) 100,00 %
11.01.2019 21:32 -2,1 C 3,9 C -1,7 C 94 % 1021,8 hPa 0,0 l/m 16,2 km/h (3 Bft) W-SW 254 0 min 0,000 mm 0,0 UV-I 0 W/m -2,9 C -10,3 C 24,1 km/h (4 Bft) 97,87 %
11.01.2019 21:34 -2,1 C 3,9 C -1,7 C 94 % 1021,9 hPa 0,0 l/m 17,7 km/h (3 Bft) SW 217 0 min 0,000 mm 0,0 UV-I 0 W/m -2,9 C -11,1 C 22,5 km/h (4 Bft) 95,74 %
11.01.2019 21:36 -2,1 C 3,9 C -1,7 C 94 % 1021,9 hPa 0,0 l/m 19,8 km/h (3 Bft) W 270 0 min 0,000 mm 0,0 UV-I 0 W/m -2,9 C -12,2 C 30,6 km/h (5 Bft) 95,74 %
11.01.2019 21:38 -2,1 C 3,9 C -1,7 C 94 % 1021,8 hPa 0,0 l/m 17,2 km/h (3 Bft) SW 219 0 min 0,000 mm 0,0 UV-I 0 W/m -2,9 C -10,9 C 25,7 km/h (4 Bft) 94,00 %
11.01.2019 21:40 -2,1 C 3,9 C -1,7 C 94 % 1021,8 hPa 0,0 l/m 17,4 km/h (3 Bft) W-SW 257 0 min 0,000 mm 0,0 UV-I 0 W/m -2,9 C -11,0 C 24,1 km/h (4 Bft) 95,74 %
11.01.2019 21:42 -2,1 C 3,9 C -1,7 C 94 % 1021,8 hPa 0,0 l/m 17,2 km/h (3 Bft) W-SW 241 0 min 0,000 mm 0,0 UV-I 0 W/m -2,9 C -10,9 C 24,1 km/h (4 Bft) 97,87 %
11.01.2019 21:44 -2,1 C 3,9 C -1,7 C 94 % 1021,8 hPa 0,0 l/m 16,8 km/h (3 Bft) W-SW 242 0 min 0,000 mm 0,0 UV-I 0 W/m -2,9 C -10,6 C 24,1 km/h (4 Bft) 95,74 %
11.01.2019 21:46 -2,1 C 3,9 C -1,7 C 94 % 1021,7 hPa 0,0 l/m 23,0 km/h (4 Bft) W 281 0 min 0,000 mm 0,0 UV-I 0 W/m -2,9 C -13,7 C 33,8 km/h (5 Bft) 96,00 %
11.01.2019 21:48 -2,1 C 3,9 C -1,7 C 94 % 1021,8 hPa 0,0 l/m 17,5 km/h (3 Bft) W-SW 239 0 min 0,000 mm 0,0 UV-I 0 W/m -2,9 C -11,0 C 25,7 km/h (4 Bft) 95,74 %
11.01.2019 21:50 -2,1 C 3,9 C -1,7 C 94 % 1021,8 hPa 0,0 l/m 14,9 km/h (3 Bft) SW 233 0 min 0,000 mm 0,0 UV-I 0 W/m -2,9 C -9,5 C 25,7 km/h (4 Bft) 97,87 %
11.01.2019 21:52 -2,1 C 3,9 C -1,7 C 94 % 1021,8 hPa 0,0 l/m 16,2 km/h (3 Bft) W 271 0 min 0,000 mm 0,0 UV-I 0 W/m -2,9 C -10,3 C 24,1 km/h (4 Bft) 97,87 %
11.01.2019 21:54 -2,1 C 3,9 C -1,1 C 94 % 1021,9 hPa 0,0 l/m 18,9 km/h (3 Bft) W-SW 258 0 min 0,000 mm 0,0 UV-I 0 W/m -2,9 C -11,8 C 27,4 km/h (4 Bft) 97,37 %
11.01.2019 21:56 -2,1 C 3,9 C -1,1 C 94 % 1021,8 hPa 0,0 l/m 15,9 km/h (3 Bft) SW 230 0 min 0,000 mm 0,0 UV-I 0 W/m -2,9 C -10,1 C 24,1 km/h (4 Bft) 98,00 %
11.01.2019 21:58 -2,1 C 3,9 C -1,1 C 94 % 1021,8 hPa 0,0 l/m 16,2 km/h (3 Bft) SW 232 0 min 0,000 mm 0,0 UV-I 0 W/m -2,9 C -10,3 C 24,1 km/h (4 Bft) 100,00 %
11.01.2019 22:00 -2,1 C 3,9 C -1,1 C 94 % 1021,7 hPa 0,0 l/m 16,2 km/h (3 Bft) SW 230 0 min 0,000 mm 0,0 UV-I 0 W/m -2,9 C -10,3 C 24,1 km/h (4 Bft) 93,62 %
11.01.2019 22:02 -2,1 C 3,9 C -1,7 C 94 % 1021,7 hPa 0,0 l/m 19,4 km/h (3 Bft) SW 235 0 min 0,000 mm 0,0 UV-I 0 W/m -2,9 C -12,0 C 24,1 km/h (4 Bft) 95,74 %
11.01.2019 22:04 -2,1 C 3,9 C -1,7 C 94 % 1021,7 hPa 0,0 l/m 18,1 km/h (3 Bft) W-NW 282 0 min 0,000 mm 0,0 UV-I 0 W/m -2,9 C -11,4 C 24,1 km/h (4 Bft) 95,74 %
11.01.2019 22:06 -2,0 C 3,9 C -1,7 C 94 % 1021,7 hPa 0,0 l/m 18,1 km/h (3 Bft) W-NW 292 0 min 0,000 mm 0,0 UV-I 0 W/m -2,8 C -11,2 C 29,0 km/h (5 Bft) 93,62 %
11.01.2019 22:09 -2,0 C 3,9 C -1,7 C 94 % 1021,6 hPa 0,2 l/m 16,7 km/h (3 Bft) SW 232 0 min 0,000 mm 0,0 UV-I 0 W/m -2,8 C -10,4 C 27,4 km/h (4 Bft) 95,77 %
11.01.2019 22:10 -2,0 C 3,9 C -1,7 C 94 % 1021,6 hPa 0,0 l/m 15,7 km/h (3 Bft) W 274 0 min 0,000 mm 0,0 UV-I 0 W/m -2,8 C -9,8 C 20,9 km/h (4 Bft) 95,83 %
11.01.2019 22:12 -2,0 C 3,9 C -1,7 C 94 % 1021,6 hPa 0,0 l/m 15,7 km/h (3 Bft) W 265 0 min 0,000 mm 0,0 UV-I 0 W/m -2,8 C -9,8 C 22,5 km/h (4 Bft) 95,74 %
11.01.2019 22:14 -2,0 C 3,9 C -1,7 C 94 % 1021,7 hPa 0,0 l/m 19,2 km/h (3 Bft) W 263 0 min 0,000 mm 0,0 UV-I 0 W/m -2,8 C -11,8 C 27,4 km/h (4 Bft) 93,62 %
11.01.2019 22:16 -2,0 C 3,9 C -1,1 C 94 % 1021,7 hPa 0,2 l/m 14,1 km/h (3 Bft) W 274 0 min 0,000 mm 0,0 UV-I 0 W/m -2,8 C -8,8 C 22,5 km/h (4 Bft) 91,49 %
11.01.2019 22:19 -2,0 C 3,9 C -1,1 C 94 % 1021,6 hPa 0,0 l/m 17,5 km/h (3 Bft) S-SW 202 0 min 0,000 mm 0,0 UV-I 0 W/m -2,8 C -10,9 C 24,1 km/h (4 Bft) 95,71 %
11.01.2019 22:20 -2,0 C 3,9 C -1,1 C 94 % 1021,6 hPa 0,0 l/m 19,3 km/h (3 Bft) W 270 0 min 0,000 mm 0,0 UV-I 0 W/m -2,8 C -11,9 C 24,1 km/h (4 Bft) 87,50 %
11.01.2019 22:22 -2,0 C 3,9 C -1,1 C 94 % 1021,5 hPa 0,0 l/m 20,1 km/h (4 Bft) W-SW 257 0 min 0,000 mm 0,0 UV-I 0 W/m -2,8 C -12,3 C 30,6 km/h (5 Bft) 96,00 %
11.01.2019 22:24 -2,0 C 3,9 C -1,1 C 94 % 1021,5 hPa 0,0 l/m 19,5 km/h (3 Bft) W 278 0 min 0,000 mm 0,0 UV-I 0 W/m -2,8 C -12,0 C 27,4 km/h (4 Bft) 95,74 %
11.01.2019 22:26 -2,0 C 3,9 C -1,1 C 94 % 1021,5 hPa 0,0 l/m 20,8 km/h (4 Bft) W-SW 252 0 min 0,000 mm 0,0 UV-I 0 W/m -2,8 C -12,6 C 29,0 km/h (5 Bft) 94,74 %
11.01.2019 22:29 -2,0 C 3,9 C -1,1 C 94 % 1021,4 hPa 0,2 l/m 18,9 km/h (3 Bft) W 263 0 min 0,000 mm 0,0 UV-I 0 W/m -2,8 C -11,7 C 27,4 km/h (4 Bft) 93,42 %
11.01.2019 22:30 -1,9 C 3,9 C -1,1 C 94 % 1021,4 hPa 0,0 l/m 23,6 km/h (4 Bft) SW 236 0 min 0,000 mm 0,0 UV-I 0 W/m -2,7 C -13,7 C 29,0 km/h (5 Bft) 95,83 %
11.01.2019 22:32 -1,9 C 3,9 C -1,1 C 94 % 1021,4 hPa 0,0 l/m 19,2 km/h (3 Bft) W-SW 246 0 min 0,000 mm 0,0 UV-I 0 W/m -2,7 C -11,7 C 29,0 km/h (5 Bft) 93,62 %
11.01.2019 22:34 -1,9 C 3,9 C -1,1 C 94 % 1021,4 hPa 0,2 l/m 22,3 km/h (4 Bft) W-SW 240 0 min 0,000 mm 0,0 UV-I 0 W/m -2,7 C -13,2 C 29,0 km/h (5 Bft) 91,49 %
11.01.2019 22:36 -1,9 C 3,9 C -1,1 C 94 % 1021,4 hPa 0,0 l/m 19,8 km/h (3 Bft) SW 227 0 min 0,000 mm 0,0 UV-I 0 W/m -2,7 C -12,0 C 29,0 km/h (5 Bft) 97,87 %
11.01.2019 22:39 -1,9 C 3,9 C -1,1 C 94 % 1021,4 hPa 0,0 l/m 19,0 km/h (3 Bft) W-SW 250 0 min 0,000 mm 0,0 UV-I 0 W/m -2,7 C -11,6 C 27,4 km/h (4 Bft) 97,18 %
11.01.2019 22:40 -1,9 C 3,9 C -1,1 C 94 % 1021,4 hPa 0,0 l/m 17,6 km/h (3 Bft) SW 227 0 min 0,000 mm 0,0 UV-I 0 W/m -2,7 C -10,8 C 25,7 km/h (4 Bft) 100,00 %
11.01.2019 22:42 -1,9 C 3,9 C -1,1 C 94 % 1021,4 hPa 0,0 l/m 16,9 km/h (3 Bft) W 261 0 min 0,000 mm 0,0 UV-I 0 W/m -2,7 C -10,4 C 24,1 km/h (4 Bft) 95,74 %
11.01.2019 22:44 -1,9 C 3,9 C -1,1 C 94 % 1021,4 hPa 0,0 l/m 18,0 km/h (3 Bft) W-SW 242 0 min 0,000 mm 0,0 UV-I 0 W/m -2,7 C -11,0 C 27,4 km/h (4 Bft) 95,74 %
11.01.2019 22:46 -1,9 C 3,9 C -1,1 C 94 % 1021,4 hPa 0,0 l/m 20,9 km/h (4 Bft) W 267 0 min 0,000 mm 0,0 UV-I 0 W/m -2,7 C -12,5 C 27,4 km/h (4 Bft) 95,74 %
11.01.2019 22:49 -1,9 C 3,9 C -1,1 C 94 % 1021,4 hPa 0,2 l/m 18,4 km/h (3 Bft) W 267 0 min 0,000 mm 0,0 UV-I 0 W/m -2,7 C -11,3 C 25,7 km/h (4 Bft) 94,37 %
11.01.2019 22:50 -1,9 C 3,9 C -1,1 C 94 % 1021,4 hPa 0,0 l/m 23,4 km/h (4 Bft) W 270 0 min 0,000 mm 0,0 UV-I 0 W/m -2,7 C -13,6 C 30,6 km/h (5 Bft) 100,00 %
11.01.2019 22:52 -1,8 C 3,9 C -1,1 C 94 % 1021,4 hPa 0,0 l/m 21,6 km/h (4 Bft) W 281 0 min 0,000 mm 0,0 UV-I 0 W/m -2,6 C -12,7 C 32,2 km/h (5 Bft) 94,34 %
11.01.2019 22:54 -1,8 C 3,9 C -1,1 C 94 % 1021,4 hPa 0,0 l/m 18,3 km/h (3 Bft) W 264 0 min 0,000 mm 0,0 UV-I 0 W/m -2,6 C -11,1 C 29,0 km/h (5 Bft) 90,57 %
11.01.2019 22:56 -1,8 C 3,9 C -1,1 C 94 % 1021,4 hPa 0,0 l/m 18,6 km/h (3 Bft) SW 232 0 min 0,000 mm 0,0 UV-I 0 W/m -2,6 C -11,2 C 29,0 km/h (5 Bft) 97,37 %
11.01.2019 22:59 -1,8 C 3,9 C -1,1 C 94 % 1021,3 hPa 0,0 l/m 21,1 km/h (4 Bft) W-SW 243 0 min 0,000 mm 0,0 UV-I 0 W/m -2,6 C -12,5 C 32,2 km/h (5 Bft) 94,52 %
11.01.2019 23:00 -1,7 C 3,9 C -1,1 C 94 % 1021,3 hPa 0,2 l/m 14,0 km/h (3 Bft) SW 234 0 min 0,000 mm 0,0 UV-I 0 W/m -2,5 C -8,4 C 22,5 km/h (4 Bft) 91,67 %
11.01.2019 23:02 -1,7 C 3,9 C -1,1 C 94 % 1021,3 hPa 0,0 l/m 19,0 km/h (3 Bft) SW 232 0 min 0,000 mm 0,0 UV-I 0 W/m -2,5 C -11,3 C 25,7 km/h (4 Bft) 97,87 %
11.01.2019 23:04 -1,7 C 3,9 C -1,1 C 94 % 1021,3 hPa 0,0 l/m 20,1 km/h (4 Bft) W 270 0 min 0,000 mm 0,0 UV-I 0 W/m -2,5 C -11,9 C 29,0 km/h (5 Bft) 96,00 %
11.01.2019 23:06 -1,7 C 3,9 C -1,1 C 94 % 1021,3 hPa 0,0 l/m 14,5 km/h (3 Bft) W 261 0 min 0,000 mm 0,0 UV-I 0 W/m -2,5 C -8,7 C 20,9 km/h (4 Bft) 97,87 %
11.01.2019 23:09 -1,7 C 3,9 C -1,1 C 94 % 1021,3 hPa 0,0 l/m 14,7 km/h (3 Bft) W-SW 247 0 min 0,000 mm 0,0 UV-I 0 W/m -2,5 C -8,8 C 24,1 km/h (4 Bft) 94,29 %
11.01.2019 23:10 -1,7 C 3,9 C -1,1 C 94 % 1021,3 hPa 0,0 l/m 15,6 km/h (3 Bft) W-SW 244 0 min 0,000 mm 0,0 UV-I 0 W/m -2,5 C -9,4 C 20,9 km/h (4 Bft) 100,00 %
11.01.2019 23:12 -1,7 C 3,9 C -1,1 C 94 % 1021,4 hPa 0,0 l/m 17,5 km/h (3 Bft) SW 226 0 min 0,000 mm 0,0 UV-I 0 W/m -2,5 C -10,5 C 25,7 km/h (4 Bft) 91,49 %
11.01.2019 23:14 -1,7 C 3,9 C -1,1 C 94 % 1021,4 hPa 0,0 l/m 13,2 km/h (3 Bft) W 268 0 min 0,000 mm 0,0 UV-I 0 W/m -2,5 C -7,8 C 19,3 km/h (3 Bft) 100,00 %
11.01.2019 23:16 -1,7 C 3,9 C -1,1 C 94 % 1021,3 hPa 0,0 l/m 17,5 km/h (3 Bft) W-SW 249 0 min 0,000 mm 0,0 UV-I 0 W/m -2,5 C -10,5 C 27,4 km/h (4 Bft) 93,62 %
11.01.2019 23:18 -1,6 C 3,9 C -1,1 C 94 % 1021,3 hPa 0,2 l/m 19,5 km/h (3 Bft) SW 229 0 min 0,000 mm 0,0 UV-I 0 W/m -2,4 C -11,5 C 30,6 km/h (5 Bft) 97,87 %
11.01.2019 23:20 -1,6 C 3,9 C -1,1 C 94 % 1021,3 hPa 0,0 l/m 20,5 km/h (4 Bft) W 261 0 min 0,000 mm 0,0 UV-I 0 W/m -2,4 C -11,9 C 29,0 km/h (5 Bft) 100,00 %
11.01.2019 23:22 -1,6 C 3,9 C -1,1 C 94 % 1021,3 hPa 0,0 l/m 19,7 km/h (3 Bft) W 265 0 min 0,000 mm 0,0 UV-I 0 W/m -2,4 C -11,6 C 27,4 km/h (4 Bft) 100,00 %
11.01.2019 23:24 -1,6 C 3,9 C -1,1 C 94 % 1021,2 hPa 0,0 l/m 20,0 km/h (4 Bft) W-SW 254 0 min 0,000 mm 0,0 UV-I 0 W/m -2,4 C -11,7 C 27,4 km/h (4 Bft) 100,00 %
11.01.2019 23:26 -1,5 C 3,9 C -1,1 C 94 % 1021,3 hPa 0,0 l/m 17,2 km/h (3 Bft) W 278 0 min 0,000 mm 0,0 UV-I 0 W/m -2,3 C -10,1 C 22,5 km/h (4 Bft) 100,00 %
11.01.2019 23:29 -1,4 C 3,9 C -1,1 C 94 % 1021,4 hPa 0,0 l/m 18,1 km/h (3 Bft) W 259 0 min 0,000 mm 0,0 UV-I 0 W/m -2,2 C -10,5 C 25,7 km/h (4 Bft) 98,59 %
11.01.2019 23:30 -1,4 C 3,9 C -1,1 C 94 % 1021,4 hPa 0,0 l/m 18,6 km/h (3 Bft) W 275 0 min 0,000 mm 0,0 UV-I 0 W/m -2,2 C -10,7 C 22,5 km/h (4 Bft) 100,00 %
11.01.2019 23:32 -1,4 C 3,9 C -1,1 C 94 % 1021,3 hPa 0,0 l/m 16,3 km/h (3 Bft) W 261 0 min 0,000 mm 0,0 UV-I 0 W/m -2,2 C -9,5 C 22,5 km/h (4 Bft) 100,00 %
11.01.2019 23:34 -1,4 C 3,9 C -1,1 C 94 % 1021,2 hPa 0,0 l/m 18,1 km/h (3 Bft) W 262 0 min 0,000 mm 0,0 UV-I 0 W/m -2,2 C -10,5 C 29,0 km/h (5 Bft) 100,00 %
11.01.2019 23:36 -1,3 C 3,9 C -1,1 C 93 % 1021,3 hPa 0,2 l/m 18,4 km/h (3 Bft) W-SW 242 0 min 0,000 mm 0,0 UV-I 0 W/m -2,3 C -10,5 C 27,4 km/h (4 Bft) 98,00 %
11.01.2019 23:38 -1,3 C 3,9 C -1,1 C 93 % 1021,2 hPa 0,0 l/m 18,0 km/h (3 Bft) W 275 0 min 0,000 mm 0,0 UV-I 0 W/m -2,3 C -10,3 C 27,4 km/h (4 Bft) 95,74 %
11.01.2019 23:40 -1,3 C 3,9 C -1,1 C 93 % 1021,2 hPa 0,0 l/m 22,0 km/h (4 Bft) W 261 0 min 0,000 mm 0,0 UV-I 0 W/m -2,3 C -12,2 C 30,6 km/h (5 Bft) 100,00 %
11.01.2019 23:42 -1,2 C 3,9 C -1,1 C 93 % 1021,2 hPa 0,0 l/m 16,2 km/h (3 Bft) SW 225 0 min 0,000 mm 0,0 UV-I 0 W/m -2,2 C -9,2 C 22,5 km/h (4 Bft) 100,00 %
11.01.2019 23:44 -1,2 C 3,9 C -1,1 C 93 % 1021,2 hPa 0,0 l/m 18,1 km/h (3 Bft) W 271 0 min 0,000 mm 0,0 UV-I 0 W/m -2,2 C -10,2 C 33,8 km/h (5 Bft) 100,00 %
11.01.2019 23:46 -1,1 C 3,9 C -1,1 C 93 % 1021,1 hPa 0,0 l/m 18,6 km/h (3 Bft) W 260 0 min 0,000 mm 0,0 UV-I 0 W/m -2,1 C -10,4 C 30,6 km/h (5 Bft) 98,00 %
11.01.2019 23:48 -1,1 C 3,9 C -1,1 C 93 % 1021,2 hPa 0,0 l/m 16,2 km/h (3 Bft) SW 219 0 min 0,000 mm 0,0 UV-I 0 W/m -2,1 C -9,0 C 25,7 km/h (4 Bft) 100,00 %
11.01.2019 23:50 -1,1 C 3,9 C -1,1 C 92 % 1021,2 hPa 0,0 l/m 19,8 km/h (3 Bft) SW 223 0 min 0,000 mm 0,0 UV-I 0 W/m -2,2 C -11,0 C 30,6 km/h (5 Bft) 100,00 %
11.01.2019 23:52 -1,1 C 3,9 C -1,1 C 92 % 1021,2 hPa 0,0 l/m 22,6 km/h (4 Bft) W 275 0 min 0,000 mm 0,0 UV-I 0 W/m -2,2 C -12,2 C 32,2 km/h (5 Bft) 95,74 %
11.01.2019 23:54 -1,0 C 3,9 C -1,1 C 92 % 1021,3 hPa 0,0 l/m 23,0 km/h (4 Bft) W 262 0 min 0,000 mm 0,0 UV-I 0 W/m -2,1 C -12,3 C 30,6 km/h (5 Bft) 97,73 %
11.01.2019 23:56 -0,9 C 3,9 C -1,1 C 92 % 1021,2 hPa 0,0 l/m 22,1 km/h (4 Bft) W 266 0 min 0,000 mm 0,0 UV-I 0 W/m -2,0 C -11,8 C 33,8 km/h (5 Bft) 98,11 %
11.01.2019 23:58 -0,9 C 3,9 C -1,1 C 92 % 1021,2 hPa 0,0 l/m 21,2 km/h (4 Bft) W-SW 254 0 min 0,000 mm 0,0 UV-I 0 W/m -2,0 C -11,4 C 32,2 km/h (5 Bft) 94,74 %
_ Min-Zeit 09:10 00:00 04:20 13:44 23:46 - 00:10 - - - - - - 11:36 21:30 00:02 00:02
Minimum _ -3,2 C 3,3 C -4,4 C 74 % 1021,1 hPa - 2,0 km/h (1 Bft) - - - - - - -5,4 C -14,1 C 3,2 km/h (1 Bft) 12,50 %
_ Max-Zeit 12:12 10:32 12:04 05:50 10:00 22:09 21:02 - - 08:04 13:00 11:50 12:04 23:56 00:20 21:24 00:22
Maximum _ -0,7 C 3,9 C 1,1 C 94 % 1025,1 hPa 0,2 l/m 24,0 km/h
W-SW (4 Bft)
- - 2 min 0,127 mm 0,6 UV-I 494 W/m -2,0 C -1,9 C 37,0 km/h
W-SW (5 Bft)
100,00 %
Durchschnitt _ -2,1 C 3,6 C -2,3 C 88 % 1023,3 hPa #1,6 l/m 12,7 km/h (3 Bft) W - #4:08 h #0,584 mm 0,5 UV-I 145 W/m -3,9 C -7,7 C 19,3 km/h (3 Bft) 96,67 %